[[{"header":{"parameterUnit":"m.s-1","parameterCategory":1,"la1":31.0,"la2":29.5877,"lo1":-88.7671,"lo2":-86.6584,"dy":0.0162,"dx":0.0185,"nx":115,"ny":88,"refTime":"2023-03-17T06:00:00:Z","depth":0,"parameterNumber":2,"parameterNumberName":"U-component_of_WINDS"},"data":[0.0,0.0,0.0,0.0,0.0,0.0,0.0,0.0,0.0,0.0,0.0,0.0,0.0,0.0,0.0,0.0,0.0,0.0,0.0,0.0,0.0,0.0,0.0,0.0,0.0,0.0,0.0,0.0,0.0,0.0,0.0,0.0,0.0,0.0,0.0,0.0,0.0,0.0,0.0,0.0,0.0,0.0,0.0,0.0,0.0,0.0,0.0,0.0,0.0,0.0,0.0,0.0,0.0,0.0,0.0,0.0,0.0,0.0,0.0,0.0,0.0,0.0,0.0,0.0,0.0,0.0,0.0,0.0,0.0,0.0,0.0,0.0,0.0,0.0,0.0,0.0,0.0,0.0,0.0,0.0,0.0,0.0,0.0,0.0,0.0,0.0,0.0,0.0,0.0,0.0,0.0,0.0,0.0,0.0,0.0,0.0,0.0,0.0,0.0,0.0,0.0,0.0,0.0,0.0,0.0,0.0,0.0,0.0,0.0,0.0,0.0,0.0,0.0,0.0,0.0,0.0,0.0,0.0,0.0,0.0,0.0,0.0,0.0,0.0,0.0,0.0,0.0,0.0,0.0,0.0,0.0,0.0,0.0,0.0,0.0,0.0,0.0,0.0,0.0,0.0,0.0,0.0,0.0,0.0,0.0,0.0,0.0,0.0,0.0,0.0,0.0,0.0,0.0,0.0,0.0,0.0,0.0,0.0,0.0,0.0,0.0,0.0,0.0,0.0,0.0,0.0,0.0,0.0,0.0,0.0,0.0,0.0,0.0,0.0,0.0,0.0,0.0,0.0,0.0,0.0,0.0,0.0,0.0,0.0,0.0,0.0,0.0,0.0,0.0,0.0,0.0,0.0,0.0,0.0,0.0,0.0,0.0,0.0,0.0,0.0,0.0,0.0,0.0,0.0,0.0,0.0,0.0,0.0,0.0,0.0,0.0,0.0,0.0,0.0,0.0,0.0,0.0,0.0,0.0,0.0,0.0,0.0,0.0,0.0,0.0,0.0,0.0,0.0,0.0,0.0,0.0,0.0,0.0,0.0,0.0,0.0,0.0,0.0,0.0,0.0,0.0,0.0,0.0,0.0,0.0,0.0,0.0,0.0,0.0,0.0,0.0,0.0,0.0,0.0,0.0,0.0,0.0,0.0,0.0,0.0,0.0,0.0,0.0,0.0,0.0,0.0,0.0,0.0,0.0,0.0,0.0,0.0,0.0,0.0,0.0,0.0,0.0,0.0,0.0,0.0,0.0,0.0,0.0,0.0,0.0,0.0,0.0,0.0,0.0,0.0,0.0,0.0,0.0,0.0,0.0,0.0,0.0,0.0,0.0,0.0,0.0,0.0,0.0,0.0,0.0,0.0,0.0,0.0,0.0,0.0,0.0,0.0,0.0,0.0,0.0,0.0,0.0,0.0,0.0,0.0,0.0,0.0,0.0,0.0,0.0,0.0,0.0,0.0,0.0,0.0,0.0,0.0,0.0,0.0,0.0,0.0,0.0,0.0,0.0,0.0,0.0,0.0,0.0,0.0,0.0,0.0,0.0,0.0,0.0,0.0,0.0,0.0,0.0,0.0,0.0,0.0,0.0,0.0,0.0,0.0,0.0,0.0,0.0,0.0,0.0,0.0,0.0,0.0,0.0,0.0,0.0,0.0,0.0,0.0,0.0,0.0,0.0,0.0,0.0,0.0,0.0,0.0,0.0,0.0,0.0,0.0,0.0,0.0,0.0,0.0,0.0,0.0,0.0,0.0,0.0,0.0,0.0,0.0,0.0,0.0,0.0,0.0,0.0,0.0,0.0,0.0,0.0,0.0,0.0,0.0,0.0,0.0,0.0,0.0,0.0,0.0,0.0,0.0,0.0,0.0,0.0,0.0,0.0,0.0,0.0,0.0,0.0,0.0,0.0,0.0,0.0,0.0,0.0,0.0,0.0,0.0,0.0,0.0,0.0,0.0,0.0,0.0,0.0,0.0,0.0,0.0,0.0,0.0,0.0,0.0,0.0,0.0,0.0,0.0,0.0,0.0,0.0,0.0,0.0,0.0,0.0,0.0,0.0,0.0,0.0,0.0,0.0,0.0,0.0,0.0,0.0,0.0,0.0,0.0,0.0,0.0,0.0,0.0,0.0,0.0,0.0,0.0,0.0,0.0,0.0,0.0,0.0,0.0,0.0,0.0,0.0,0.0,0.0,0.0,0.0,0.0,0.0,0.0,0.0,0.0,0.0,0.0,0.0,0.0,0.0,0.0,0.0,0.0,0.0,0.0,0.0,0.0,0.0,0.0,0.0,0.0,0.0,0.0,0.0,0.0,0.0,0.0,0.0,0.0,0.0,0.0,0.0,0.0,0.0,0.0,0.0,0.0,0.0,0.0,0.0,0.0,0.0,0.0,0.0,0.0,0.0,0.0,0.0,0.0,0.0,0.0,0.0,0.0,0.0,0.0,0.0,0.0,0.0,0.0,0.0,0.0,0.0,0.0,0.0,0.0,0.0,0.0,0.0,0.0,0.0,0.0,0.0,0.0,0.0,0.0,0.0,0.0,0.0,0.0,0.0,0.0,0.0,0.0,0.0,0.0,0.0,0.0,0.0,0.0,0.0,0.0,0.0,0.0,0.0,0.0,0.0,0.0,0.0,0.0,0.0,0.0,0.0,0.0,0.0,0.0,0.0,0.0,0.0,0.0,0.0,0.0,0.0,0.0,0.0,0.0,0.0,0.0,0.0,0.0,0.0,0.0,0.0,0.0,0.0,0.0,0.0,0.0,0.0,0.0,0.0,0.0,0.0,0.0,0.0,0.0,0.0,0.0,0.0,0.0,0.0,0.0,0.0,0.0,0.0,0.0,0.0,0.0,0.0,0.0,0.0,0.0,0.0,0.0,0.0,0.0,0.0,0.0,0.0,0.0,0.0,0.0,0.0,0.0,0.0,0.0,0.0,0.0,0.0,0.0,0.0,0.0,0.0,0.0,0.0,0.0,0.0,0.0,0.0,0.0,0.0,0.0,0.0,0.0,0.0,0.0,0.0,0.0,0.0,0.0,0.0,0.0,0.0,0.0,0.0,0.0,0.0,0.0,0.0,0.0,0.0,0.0,0.0,0.0,0.0,0.0,0.0,0.0,0.0,0.0,0.0,0.0,0.0,0.0,0.0,0.0,0.0,0.0,0.0,0.0,0.0,0.0,0.0,0.0,0.0,0.0,0.0,0.0,0.0,0.0,0.0,0.0,0.0,0.0,0.0,0.0,0.0,0.0,0.0,0.0,0.0,0.0,0.0,0.0,0.0,0.0,0.0,0.0,0.0,0.0,0.0,0.0,0.0,0.0,0.0,0.0,0.0,0.0,0.0,0.0,0.0,0.0,0.0,0.0,0.0,0.0,0.0,0.0,0.0,0.0,0.0,0.0,0.0,0.0,0.0,0.0,0.0,0.0,0.0,0.0,0.0,0.0,0.0,0.0,0.0,0.0,0.0,0.0,0.0,0.0,0.0,0.0,0.0,0.0,0.0,0.0,0.0,0.0,0.0,0.0,0.0,0.0,0.0,0.0,0.0,0.0,0.0,0.0,0.0,0.0,0.0,0.0,0.0,0.0,0.0,0.0,0.0,0.0,0.0,0.0,0.0,0.0,0.0,0.0,0.0,0.0,0.0,0.0,0.0,0.0,0.0,0.0,0.0,0.0,0.0,0.0,0.0,0.0,0.0,0.0,0.0,0.0,0.0,0.0,0.0,0.0,0.0,0.0,0.0,0.0,0.0,0.0,0.0,0.0,0.0,0.0,0.0,0.0,0.0,0.0,0.0,0.0,0.0,0.0,0.0,0.0,0.0,0.0,0.0,0.0,0.0,0.0,0.0,0.0,0.0,0.0,0.0,0.0,0.0,0.0,0.0,0.0,0.0,0.0,0.0,0.0,0.0,0.0,0.0,0.0,0.0,0.0,0.0,0.0,0.0,0.0,0.0,0.0,0.0,0.0,0.0,0.0,0.0,0.0,0.0,0.0,0.0,0.0,0.0,0.0,0.0,0.0,0.0,0.0,0.0,0.0,0.0,0.0,0.0,0.0,0.0,0.0,0.0,0.0,0.0,0.0,0.0,0.0,0.0,0.0,0.0,0.0,0.0,0.0,0.0,0.0,0.0,0.0,0.0,0.0,0.0,0.0,0.0,0.0,0.0,0.0,0.0,0.0,0.0,0.0,0.0,0.0,0.0,0.0,0.0,0.0,0.0,0.0,0.0,0.0,0.0,0.0,0.0,0.0,0.0,0.0,0.0,0.0,0.0,0.0,0.0,0.0,2.9026,0.0,0.0,0.0,0.0,0.0,0.0,0.0,0.0,0.0,0.0,0.0,0.0,0.0,0.0,0.0,0.0,0.0,0.0,0.0,0.0,0.0,0.0,0.0,0.0,0.0,0.0,0.0,0.0,0.0,0.0,0.0,0.0,0.0,0.0,0.0,0.0,0.0,0.0,0.0,0.0,0.0,0.0,0.0,0.0,0.0,0.0,0.0,0.0,0.0,0.0,0.0,0.0,0.0,0.0,0.0,0.0,0.0,0.0,0.0,0.0,0.0,0.0,0.0,0.0,0.0,0.0,0.0,0.0,0.0,0.0,0.0,0.0,0.0,0.0,0.0,0.0,0.0,0.0,0.0,0.0,0.0,0.0,0.0,0.0,0.0,0.0,0.0,0.0,0.0,0.0,0.0,0.0,0.0,0.0,0.0,0.0,0.0,0.0,0.0,0.0,0.0,0.0,0.0,0.0,0.0,0.0,0.0,0.0,0.0,0.0,2.9329,2.9448,2.892,2.8827,2.9192,0.0,0.0,0.0,0.0,0.0,0.0,0.0,0.0,0.0,0.0,0.0,0.0,0.0,0.0,0.0,0.0,0.0,0.0,0.0,0.0,0.0,0.0,0.0,0.0,0.0,0.0,0.0,0.0,0.0,0.0,0.0,0.0,0.0,0.0,0.0,0.0,0.0,0.0,0.0,0.0,0.0,0.0,0.0,0.0,0.0,0.0,0.0,0.0,0.0,0.0,0.0,0.0,0.0,0.0,0.0,0.0,0.0,0.0,0.0,0.0,0.0,0.0,0.0,0.0,0.0,0.0,0.0,0.0,0.0,0.0,0.0,0.0,0.0,0.0,0.0,0.0,0.0,0.0,0.0,0.0,0.0,0.0,0.0,0.0,0.0,0.0,0.0,0.0,0.0,0.0,0.0,0.0,0.0,0.0,0.0,0.0,0.0,0.0,0.0,0.0,0.0,0.0,0.0,0.0,0.0,0.0,0.0,0.0,0.0,0.0,0.0,0.0,2.8727,2.8682,2.903,0.0,0.0,0.0,0.0,0.0,0.0,0.0,0.0,0.0,0.0,0.0,0.0,0.0,0.0,0.0,0.0,0.0,0.0,0.0,0.0,0.0,0.0,0.0,0.0,0.0,0.0,0.0,0.0,0.0,0.0,0.0,0.0,0.0,0.0,0.0,0.0,0.0,0.0,0.0,0.0,0.0,0.0,0.0,0.0,0.0,0.0,0.0,0.0,0.0,0.0,0.0,0.0,0.0,0.0,0.0,0.0,0.0,0.0,0.0,0.0,0.0,0.0,0.0,0.0,0.0,0.0,0.0,0.0,0.0,0.0,0.0,0.0,0.0,0.0,0.0,0.0,0.0,0.0,0.0,0.0,0.0,0.0,0.0,0.0,0.0,0.0,0.0,0.0,0.0,0.0,0.0,0.0,0.0,0.0,0.0,0.0,0.0,0.0,0.0,0.0,0.0,0.0,0.0,0.0,0.0,0.0,0.0,0.0,0.0,0.0,2.9303,2.9889,2.8554,0.0,2.8199,0.0,0.0,0.0,0.0,0.0,0.0,0.0,0.0,0.0,0.0,0.0,0.0,0.0,0.0,0.0,0.0,0.0,0.0,0.0,0.0,0.0,0.0,0.0,0.0,0.0,0.0,0.0,0.0,0.0,0.0,0.0,0.0,0.0,0.0,0.0,0.0,0.0,0.0,0.0,0.0,0.0,0.0,0.0,0.0,0.0,0.0,0.0,0.0,0.0,0.0,0.0,0.0,0.0,0.0,0.0,0.0,0.0,0.0,0.0,0.0,0.0,0.0,0.0,0.0,0.0,0.0,0.0,0.0,0.0,0.0,0.0,0.0,0.0,0.0,0.0,0.0,0.0,0.0,0.0,0.0,0.0,0.0,0.0,0.0,0.0,0.0,0.0,0.0,0.0,0.0,0.0,0.0,0.0,0.0,0.0,0.0,0.0,0.0,0.0,0.0,0.0,0.0,0.0,0.0,0.0,0.0,0.0,0.0,0.0,0.0,2.8886,2.9104,2.918,2.8804,0.0,0.0,0.0,0.0,0.0,0.0,0.0,0.0,0.0,0.0,0.0,0.0,0.0,0.0,0.0,0.0,0.0,0.0,0.0,0.0,0.0,0.0,0.0,0.0,0.0,0.0,0.0,0.0,0.0,0.0,0.0,0.0,0.0,0.0,0.0,0.0,0.0,0.0,0.0,0.0,0.0,0.0,0.0,0.0,0.0,0.0,0.0,0.0,0.0,0.0,0.0,0.0,0.0,0.0,0.0,0.0,0.0,0.0,0.0,0.0,0.0,0.0,0.0,0.0,0.0,0.0,0.0,0.0,0.0,0.0,0.0,0.0,0.0,0.0,0.0,0.0,0.0,0.0,0.0,0.0,0.0,0.0,0.0,0.0,0.0,0.0,0.0,0.0,0.0,0.0,0.0,0.0,0.0,0.0,0.0,0.0,0.0,0.0,0.0,0.0,0.0,0.0,0.0,0.0,0.0,0.0,0.0,0.0,0.0,0.0,2.892,2.8926,2.8829,2.9731,2.9221,2.7275,0.0,0.0,0.0,0.0,0.0,0.0,0.0,0.0,0.0,0.0,0.0,0.0,0.0,0.0,0.0,0.0,0.0,0.0,0.0,0.0,0.0,0.0,0.0,0.0,0.0,0.0,0.0,0.0,0.0,0.0,0.0,0.0,0.0,0.0,0.0,0.0,0.0,0.0,0.0,0.0,0.0,0.0,0.0,0.0,0.0,0.0,0.0,0.0,0.0,0.0,0.0,0.0,0.0,0.0,0.0,0.0,0.0,0.0,0.0,0.0,0.0,0.0,0.0,0.0,0.0,0.0,0.0,0.0,0.0,0.0,0.0,0.0,0.0,0.0,0.0,0.0,0.0,0.0,0.0,0.0,0.0,0.0,0.0,0.0,0.0,0.0,0.0,0.0,0.0,0.0,0.0,0.0,0.0,0.0,0.0,0.0,0.0,0.0,0.0,0.0,0.0,0.0,0.0,0.0,0.0,0.0,0.0,0.0,2.9687,3.0158,3.0107,2.937,2.9925,2.9066,0.0,0.0,0.0,0.0,0.0,0.0,0.0,0.0,0.0,0.0,0.0,0.0,0.0,0.0,0.0,0.0,0.0,0.0,0.0,0.0,0.0,0.0,0.0,0.0,0.0,0.0,0.0,0.0,0.0,0.0,0.0,0.0,0.0,0.0,0.0,0.0,0.0,0.0,0.0,0.0,0.0,0.0,0.0,0.0,0.0,0.0,0.0,0.0,0.0,0.0,0.0,0.0,0.0,0.0,0.0,0.0,0.0,0.0,0.0,0.0,0.0,0.0,0.0,0.0,0.0,0.0,0.0,0.0,0.0,0.0,0.0,0.0,0.0,0.0,0.0,0.0,0.0,0.0,0.0,0.0,0.0,0.0,0.0,0.0,0.0,0.0,0.0,0.0,0.0,0.0,0.0,0.0,0.0,0.0,0.0,0.0,0.0,0.0,0.0,0.0,0.0,0.0,0.0,0.0,0.0,0.0,0.0,0.0,0.0,2.9466,2.9766,2.998,2.9792,2.9949,2.8917,0.0,0.0,0.0,0.0,0.0,0.0,0.0,0.0,0.0,0.0,0.0,0.0,0.0,0.0,0.0,0.0,0.0,0.0,0.0,0.0,0.0,0.0,0.0,0.0,0.0,0.0,0.0,0.0,0.0,0.0,0.0,0.0,0.0,0.0,0.0,0.0,0.0,0.0,0.0,0.0,0.0,0.0,0.0,0.0,0.0,0.0,0.0,0.0,0.0,0.0,0.0,0.0,0.0,0.0,0.0,0.0,0.0,0.0,0.0,0.0,0.0,0.0,0.0,0.0,0.0,0.0,0.0,0.0,0.0,0.0,0.0,0.0,0.0,0.0,0.0,0.0,0.0,0.0,0.0,0.0,0.0,0.0,0.0,0.0,0.0,0.0,0.0,0.0,0.0,0.0,0.0,0.0,0.0,0.0,0.0,0.0,0.0,0.0,0.0,0.0,0.0,0.0,0.0,0.0,0.0,0.0,0.0,0.0,0.0,2.9867,0.0,3.018,2.993,2.9732,2.8473,0.0,0.0,0.0,0.0,0.0,0.0,0.0,0.0,0.0,0.0,0.0,0.0,0.0,0.0,0.0,0.0,0.0,0.0,0.0,0.0,0.0,0.0,0.0,0.0,0.0,0.0,0.0,0.0,0.0,0.0,0.0,0.0,0.0,0.0,0.0,0.0,0.0,0.0,0.0,0.0,0.0,0.0,0.0,0.0,0.0,0.0,0.0,0.0,0.0,0.0,0.0,0.0,0.0,0.0,0.0,0.0,0.0,0.0,0.0,0.0,0.0,0.0,0.0,0.0,0.0,0.0,0.0,0.0,0.0,0.0,0.0,0.0,0.0,0.0,0.0,0.0,0.0,0.0,0.0,0.0,0.0,0.0,0.0,0.0,0.0,0.0,0.0,0.0,0.0,0.0,0.0,0.0,0.0,0.0,0.0,0.0,0.0,0.0,0.0,0.0,0.0,0.0,0.0,0.0,0.0,0.0,0.0,0.0,3.0659,3.1189,3.1189,3.0723,2.9922,2.9176,2.767,0.0,0.0,0.0,0.0,0.0,0.0,0.0,0.0,0.0,0.0,0.0,0.0,0.0,0.0,0.0,0.0,0.0,0.0,0.0,0.0,0.0,0.0,0.0,0.0,0.0,0.0,0.0,0.0,0.0,0.0,0.0,0.0,0.0,0.0,0.0,0.0,0.0,0.0,0.0,0.0,0.0,0.0,0.0,0.0,0.0,0.0,0.0,0.0,0.0,0.0,0.0,0.0,0.0,0.0,0.0,0.0,0.0,0.0,0.0,0.0,0.0,0.0,0.0,0.0,0.0,0.0,0.0,0.0,0.0,0.0,0.0,0.0,0.0,0.0,0.0,0.0,0.0,0.0,0.0,0.0,0.0,0.0,0.0,0.0,0.0,0.0,0.0,0.0,0.0,0.0,0.0,0.0,0.0,0.0,0.0,0.0,0.0,0.0,0.0,0.0,0.0,0.0,0.0,0.0,0.0,0.0,0.0,0.0,0.0,3.0606,2.9785,2.9313,2.9213,2.7727,2.6315,0.0,0.0,0.0,0.0,0.0,0.0,0.0,0.0,0.0,0.0,0.0,0.0,0.0,0.0,0.0,0.0,0.0,0.0,0.0,0.0,0.0,0.0,0.0,0.0,0.0,0.0,0.0,0.0,0.0,0.0,0.0,0.0,0.0,0.0,0.0,0.0,0.0,0.0,0.0,0.0,0.0,0.0,0.0,0.0,0.0,0.0,0.0,0.0,0.0,0.0,0.0,0.0,0.0,0.0,0.0,0.0,0.0,0.0,0.0,0.0,0.0,0.0,0.0,0.0,0.0,0.0,0.0,0.0,0.0,0.0,0.0,0.0,0.0,0.0,0.0,0.0,0.0,0.0,0.0,0.0,0.0,0.0,0.0,0.0,0.0,0.0,0.0,0.0,0.0,0.0,0.0,0.0,0.0,0.0,0.0,0.0,0.0,0.0,0.0,0.0,0.0,0.0,0.0,0.0,0.0,0.0,0.0,0.0,0.0,2.9431,2.8957,2.848,2.8241,2.652,2.5098,2.3718,0.0,0.0,0.0,0.0,0.0,0.0,0.0,0.0,0.0,0.0,0.0,0.0,0.0,0.0,0.0,0.0,0.0,0.0,0.0,0.0,0.0,0.0,0.0,0.0,0.0,0.0,0.0,0.0,0.0,0.0,0.0,0.0,0.0,0.0,0.0,0.0,0.0,0.0,0.0,0.0,0.0,0.0,0.0,0.0,0.0,0.0,0.0,0.0,0.0,0.0,0.0,0.0,0.0,0.0,0.0,0.0,0.0,0.0,0.0,0.0,0.0,0.0,0.0,0.0,0.0,0.0,0.0,0.0,0.0,0.0,0.0,0.0,0.0,0.0,0.0,0.0,0.0,0.0,0.0,0.0,0.0,0.0,0.0,0.0,0.0,0.0,0.0,0.0,0.0,0.0,0.0,0.0,0.0,0.0,0.0,0.0,0.0,0.0,0.0,0.0,0.0,0.0,0.0,0.0,0.0,0.0,0.0,0.0,2.8055,2.8517,2.814,2.69,2.5578,2.3932,0.0,0.0,0.0,0.0,0.0,0.0,0.0,0.0,0.0,0.0,0.0,0.0,0.0,0.0,0.0,0.0,0.0,0.0,0.0,0.0,0.0,0.0,0.0,0.0,0.0,0.0,0.0,0.0,0.0,0.0,0.0,0.0,0.0,0.0,0.0,0.0,0.0,0.0,0.0,0.0,0.0,0.0,0.0,0.0,0.0,0.0,0.0,0.0,0.0,0.0,0.0,0.0,0.0,0.0,0.0,0.0,0.0,0.0,0.0,0.0,0.0,0.0,0.0,0.0,0.0,0.0,0.0,0.0,0.0,0.0,0.0,0.0,0.0,0.0,0.0,0.0,0.0,0.0,0.0,0.0,0.0,0.0,0.0,0.0,0.0,0.0,0.0,0.0,0.0,0.0,0.0,0.0,0.0,0.0,0.0,0.0,0.0,0.0,0.0,0.0,0.0,0.0,0.0,0.0,0.0,0.0,0.0,0.0,0.0,2.8306,2.7599,2.686,2.5994,2.4204,2.2525,0.0,0.0,0.0,0.0,0.0,0.0,0.0,0.0,0.0,0.0,0.0,0.0,0.0,0.0,0.0,0.0,0.0,0.0,0.0,0.0,0.0,0.0,0.0,0.0,0.0,0.0,0.0,0.0,0.0,0.0,0.0,0.0,0.0,0.0,0.0,0.0,0.0,0.0,0.0,0.0,0.0,0.0,0.0,0.0,0.0,0.0,0.0,0.0,0.0,0.0,0.0,0.0,0.0,0.0,0.0,0.0,0.0,0.0,0.0,0.0,0.0,0.0,0.0,0.0,0.0,0.0,0.0,0.0,0.0,0.0,0.0,0.0,0.0,0.0,0.0,0.0,0.0,0.0,0.0,0.0,0.0,0.0,0.0,0.0,0.0,0.0,0.0,0.0,0.0,0.0,0.0,0.0,0.0,0.0,0.0,0.0,0.0,0.0,0.0,0.0,0.0,0.0,0.0,0.0,0.0,0.0,0.0,0.0,2.8306,2.771,2.6701,2.5802,2.4921,2.3307,2.1692,0.0,0.0,0.0,0.0,0.0,0.0,0.0,0.0,0.0,0.0,0.0,0.0,0.0,0.0,0.0,0.0,0.0,0.0,0.0,0.0,0.0,0.0,0.0,0.0,0.0,0.0,0.0,0.0,0.0,0.0,0.0,0.0,0.0,0.0,0.0,0.0,0.0,0.0,0.0,0.0,0.0,0.0,0.0,0.0,0.0,0.0,0.0,0.0,0.0,0.0,0.0,0.0,0.0,0.0,0.0,0.0,0.0,0.0,0.0,0.0,0.0,0.0,0.0,0.0,0.0,0.0,0.0,0.0,0.0,0.0,0.0,0.0,0.0,0.0,0.0,0.0,0.0,0.0,0.0,0.0,0.0,0.0,0.0,0.0,0.0,0.0,0.0,0.0,0.0,0.0,0.0,0.0,0.0,0.0,0.0,0.0,0.0,0.0,0.0,0.0,0.0,0.0,0.0,0.0,0.0,0.0,0.0,0.0,2.7539,2.6786,2.5975,2.5134,2.4029,2.2925,2.1188,0.0,0.0,0.0,0.0,0.0,0.0,0.0,0.0,0.0,0.0,0.0,0.0,0.0,0.0,0.0,0.0,0.0,0.0,0.0,0.0,0.0,0.0,0.0,0.0,0.0,0.0,0.0,0.0,0.0,0.0,0.0,0.0,0.0,0.0,0.0,0.0,0.0,0.0,0.0,0.0,0.0,0.0,0.0,0.0,0.0,0.0,0.0,0.0,0.0,0.0,0.0,0.0,0.0,0.0,0.0,0.0,0.0,0.0,0.0,0.0,0.0,0.0,0.0,0.0,0.0,0.0,0.0,0.0,0.0,0.0,0.0,0.0,0.0,0.0,0.0,0.0,0.0,0.0,0.0,0.0,0.0,0.0,0.0,0.0,0.0,0.0,0.0,0.0,0.0,0.0,0.0,0.0,0.0,0.0,0.0,0.0,0.0,0.0,0.0,0.0,0.0,0.0,0.0,0.0,0.0,0.0,0.0,0.0,2.7796,2.7403,2.615,2.5024,2.3877,2.2205,2.034,0.0,0.0,0.0,0.0,0.0,0.0,0.0,0.0,0.0,0.0,0.0,0.0,0.0,0.0,0.0,0.0,0.0,0.0,0.0,0.0,0.0,0.0,0.0,0.0,0.0,0.0,0.0,0.0,0.0,0.0,0.0,0.0,0.0,0.0,0.0,0.0,0.0,0.0,0.0,0.0,0.0,0.0,0.0,0.0,0.0,0.0,0.0,0.0,-4.7242,0.0,0.0,0.0,0.0,0.0,0.0,0.0,0.0,0.0,0.0,0.0,0.0,0.0,0.0,0.0,0.0,0.0,0.0,0.0,0.0,0.0,0.0,0.0,0.0,0.0,0.0,0.0,0.0,0.0,0.0,0.0,0.0,0.0,0.0,0.0,0.0,0.0,0.0,0.0,0.0,0.0,0.0,0.0,0.0,0.0,0.0,0.0,0.0,0.0,0.0,0.0,0.0,0.0,0.0,0.0,0.0,0.0,0.0,0.0,2.7402,2.6647,2.582,2.4834,2.3638,2.1314,1.9464,0.0,0.0,0.0,0.0,0.0,0.0,0.0,0.0,0.0,0.0,0.0,0.0,0.0,0.0,0.0,0.0,0.0,0.0,0.0,0.0,0.0,0.0,0.0,0.0,0.0,0.0,0.0,0.0,0.0,0.0,0.0,0.0,0.0,0.0,0.0,0.0,0.0,0.0,0.0,0.0,0.0,0.0,0.0,0.0,0.0,0.0,0.0,0.0,0.0,0.0,0.0,0.0,0.0,0.0,0.0,0.0,0.0,0.0,0.0,0.0,0.0,0.0,0.0,0.0,0.0,0.0,0.0,0.0,0.0,0.0,0.0,0.0,0.0,0.0,0.0,0.0,0.0,0.0,0.0,0.0,0.0,0.0,0.0,0.0,0.0,0.0,0.0,0.0,0.0,0.0,0.0,0.0,0.0,0.0,0.0,0.0,0.0,0.0,0.0,0.0,0.0,0.0,0.0,0.0,0.0,0.0,0.0,2.7484,2.6859,2.5716,2.508,2.4329,2.3174,2.0513,1.8605,1.759,0.0,0.0,0.0,0.0,0.0,0.0,0.0,0.0,0.0,0.0,0.0,0.0,0.0,0.0,0.0,0.0,0.0,0.0,0.0,0.0,0.0,0.0,0.0,0.0,0.0,0.0,0.0,0.0,0.0,0.0,0.0,0.0,0.0,0.0,0.0,0.0,0.0,0.0,-3.9989,-4.0946,0.0,0.0,0.0,0.0,0.0,0.0,0.0,0.0,-4.9483,0.0,0.0,0.0,0.0,0.0,0.0,0.0,0.0,0.0,0.0,0.0,0.0,0.0,0.0,0.0,0.0,0.0,0.0,0.0,0.0,0.0,0.0,0.0,0.0,0.0,0.0,0.0,0.0,0.0,0.0,0.0,0.0,0.0,0.0,0.0,0.0,0.0,0.0,0.0,0.0,0.0,0.0,0.0,0.0,0.0,0.0,0.0,0.0,0.0,0.0,0.0,0.0,0.0,0.0,0.0,0.0,2.7887,2.7378,2.6728,2.5897,2.479,2.3486,2.2192,1.9646,1.7385,1.5301,0.0,0.0,0.0,0.0,0.0,0.0,0.0,0.0,0.0,0.0,0.0,0.0,0.0,0.0,0.0,0.0,0.0,0.0,0.0,0.0,0.0,0.0,0.0,0.0,0.0,0.0,0.0,0.0,0.0,0.0,0.0,0.0,0.0,0.0,0.0,0.0,0.0,0.0,0.0,-4.2403,-4.34,0.0,0.0,0.0,0.0,0.0,0.0,0.0,0.0,-5.1883,0.0,0.0,0.0,0.0,0.0,0.0,0.0,0.0,0.0,0.0,0.0,0.0,0.0,0.0,0.0,0.0,0.0,0.0,0.0,0.0,0.0,0.0,0.0,0.0,0.0,0.0,0.0,0.0,0.0,0.0,0.0,0.0,0.0,0.0,0.0,0.0,0.0,0.0,0.0,0.0,0.0,0.0,0.0,0.0,0.0,0.0,0.0,0.0,0.0,0.0,0.0,0.0,0.0,0.0,0.0,2.7727,2.6832,2.6037,2.5464,2.4473,2.3131,2.1695,1.9223,1.6661,0.0,0.0,0.0,0.0,0.0,0.0,0.0,0.0,0.0,0.0,0.0,0.0,0.0,0.0,0.0,0.0,0.0,0.0,0.0,0.0,0.0,0.0,0.0,0.0,0.0,0.0,0.0,0.0,0.0,0.0,0.0,0.0,0.0,0.0,0.0,0.0,0.0,0.0,0.0,0.0,-4.2176,-4.2656,-4.3118,0.0,0.0,0.0,0.0,0.0,0.0,-5.0758,-5.1802,0.0,0.0,0.0,0.0,0.0,0.0,0.0,0.0,0.0,0.0,0.0,0.0,0.0,0.0,0.0,0.0,0.0,0.0,0.0,0.0,0.0,0.0,0.0,0.0,0.0,0.0,0.0,0.0,0.0,0.0,0.0,0.0,0.0,0.0,0.0,0.0,0.0,0.0,0.0,0.0,0.0,0.0,0.0,0.0,0.0,0.0,0.0,0.0,0.0,0.0,0.0,0.0,0.0,0.0,0.0,2.7334,2.6168,2.5267,2.4893,2.401,2.2907,2.1302,1.8832,1.5922,0.0,0.0,0.0,0.0,0.0,0.0,0.0,0.0,0.0,0.0,0.0,0.0,0.0,0.0,0.0,0.0,0.0,0.0,0.0,0.0,0.0,0.0,0.0,0.0,0.0,0.0,0.0,0.0,0.0,0.0,0.0,0.0,0.0,0.0,0.0,0.0,0.0,0.0,0.0,0.0,0.0,-4.2281,-4.3307,-4.4571,0.0,0.0,0.0,0.0,-4.9744,-5.0803,0.0,0.0,0.0,0.0,0.0,0.0,0.0,0.0,0.0,0.0,0.0,0.0,0.0,0.0,0.0,0.0,0.0,0.0,0.0,0.0,0.0,0.0,0.0,0.0,0.0,0.0,0.0,0.0,0.0,0.0,0.0,0.0,0.0,0.0,0.0,0.0,0.0,0.0,0.0,0.0,0.0,0.0,0.0,0.0,0.0,0.0,0.0,0.0,0.0,0.0,0.0,0.0,0.0,0.0,0.0,0.0,2.7074,2.5758,2.4907,2.4412,2.3399,2.2254,2.112,1.7976,1.5233,0.0,0.0,0.0,0.0,0.0,0.0,0.0,0.0,0.0,0.0,0.0,0.0,0.0,0.0,0.0,0.0,0.0,0.0,0.0,0.0,0.0,0.0,0.0,0.0,0.0,0.0,0.0,0.0,0.0,0.0,0.0,0.0,0.0,0.0,0.0,0.0,0.0,0.0,0.0,0.0,0.0,-4.3768,-4.4708,-4.633,-4.7729,0.0,0.0,-5.0867,-5.1347,-5.1738,0.0,0.0,0.0,0.0,0.0,0.0,0.0,0.0,0.0,0.0,0.0,0.0,0.0,0.0,0.0,0.0,0.0,0.0,0.0,0.0,0.0,0.0,0.0,0.0,0.0,0.0,0.0,0.0,0.0,0.0,0.0,0.0,0.0,0.0,0.0,0.0,0.0,0.0,0.0,0.0,0.0,0.0,0.0,0.0,0.0,0.0,0.0,0.0,0.0,0.0,0.0,0.0,0.0,0.0,0.0,2.6902,2.6615,2.5479,2.4495,2.4122,2.3195,2.2174,2.0773,1.7743,1.499,0.0,0.0,0.0,0.0,0.0,0.0,0.0,0.0,0.0,0.0,0.0,0.0,0.0,0.0,0.0,0.0,0.0,0.0,0.0,0.0,0.0,0.0,0.0,0.0,0.0,0.0,0.0,0.0,0.0,0.0,0.0,0.0,0.0,0.0,0.0,0.0,0.0,0.0,0.0,0.0,0.0,0.0,-4.4515,-4.5892,0.0,0.0,0.0,-5.1285,-5.1728,0.0,0.0,0.0,0.0,0.0,0.0,0.0,0.0,0.0,0.0,0.0,0.0,0.0,0.0,0.0,0.0,0.0,0.0,0.0,0.0,0.0,0.0,0.0,0.0,0.0,0.0,0.0,0.0,0.0,0.0,0.0,0.0,0.0,0.0,0.0,0.0,0.0,0.0,0.0,0.0,0.0,0.0,0.0,0.0,0.0,0.0,0.0,0.0,0.0,0.0,0.0,0.0,0.0,0.0,0.0,0.0,0.0,2.6616,2.4907,2.3901,2.3514,2.2802,2.1726,2.0284,1.7743,0.0,0.0,0.0,0.0,0.0,0.0,0.0,0.0,0.0,0.0,0.0,0.0,0.0,0.0,0.0,0.0,0.0,0.0,0.0,0.0,0.0,0.0,0.0,0.0,0.0,0.0,0.0,-2.8569,0.0,0.0,0.0,0.0,0.0,0.0,0.0,0.0,0.0,0.0,0.0,0.0,0.0,0.0,-4.3746,-4.4766,-4.5698,-4.6652,0.0,0.0,-5.0711,-5.0949,-5.1803,-5.2469,0.0,0.0,0.0,0.0,0.0,0.0,0.0,0.0,0.0,0.0,0.0,0.0,0.0,0.0,0.0,0.0,0.0,0.0,0.0,0.0,0.0,0.0,0.0,0.0,0.0,0.0,0.0,0.0,0.0,0.0,0.0,0.0,0.0,0.0,0.0,0.0,0.0,0.0,0.0,0.0,0.0,0.0,0.0,0.0,0.0,0.0,0.0,0.0,0.0,0.0,0.0,0.0,0.0,0.0,2.6072,2.6792,2.4331,2.3007,2.293,2.1836,2.0786,1.9801,1.7521,1.5513,0.0,0.0,0.0,0.0,0.0,0.0,0.0,0.0,0.0,0.0,0.0,0.0,0.0,0.0,0.0,0.0,0.0,0.0,0.0,0.0,0.0,0.0,0.0,0.0,0.0,0.0,0.0,0.0,0.0,0.0,0.0,0.0,0.0,0.0,0.0,0.0,0.0,0.0,0.0,0.0,0.0,-4.4839,-4.6487,-4.6636,-4.6911,0.0,-4.8609,-4.9019,-4.8994,-5.0069,-5.0597,-5.0126,0.0,0.0,0.0,0.0,0.0,0.0,0.0,0.0,0.0,0.0,0.0,0.0,0.0,0.0,0.0,0.0,0.0,0.0,0.0,0.0,0.0,0.0,0.0,0.0,0.0,0.0,0.0,0.0,0.0,0.0,0.0,0.0,0.0,0.0,0.0,0.0,0.0,0.0,0.0,0.0,0.0,0.0,0.0,0.0,0.0,0.0,0.0,0.0,0.0,0.0,0.0,0.0,0.0,2.5405,2.5935,2.4039,2.2808,2.2276,2.1722,2.0957,1.9833,1.7586,1.5578,0.0,0.0,0.0,0.0,0.0,0.0,0.0,0.0,0.0,0.0,0.0,0.0,0.0,0.0,0.0,0.0,0.0,0.0,0.0,0.0,0.0,0.0,0.0,0.0,0.0,0.0,0.0,0.0,-3.0107,-3.1856,-3.4065,0.0,0.0,0.0,0.0,0.0,0.0,0.0,0.0,0.0,0.0,-4.5228,-4.7035,-4.6414,0.0,0.0,-4.8582,-4.9317,-4.9336,-5.0452,-5.1347,-5.1727,-5.2674,0.0,0.0,0.0,0.0,0.0,0.0,0.0,0.0,0.0,0.0,0.0,0.0,0.0,0.0,0.0,0.0,0.0,0.0,0.0,0.0,0.0,0.0,0.0,0.0,0.0,0.0,0.0,0.0,0.0,0.0,0.0,0.0,0.0,0.0,0.0,0.0,0.0,0.0,0.0,0.0,0.0,0.0,0.0,0.0,0.0,0.0,0.0,0.0,0.0,0.0,0.0,0.0,2.5039,2.5275,2.352,2.2325,2.1436,2.1184,2.0568,1.9425,1.7471,1.5685,0.0,0.0,0.0,0.0,0.0,0.0,0.0,0.0,0.0,0.0,0.0,0.0,0.0,0.0,0.0,0.0,0.0,0.0,0.0,0.0,0.0,0.0,0.0,0.0,0.0,0.0,0.0,0.0,-3.0859,-3.2956,-3.5575,0.0,0.0,0.0,0.0,0.0,0.0,0.0,0.0,0.0,0.0,-4.5779,-4.7352,-4.6588,-4.6388,-4.783,-4.8685,-4.9318,-4.9413,-5.0727,-5.1918,-5.2608,0.0,0.0,0.0,0.0,0.0,0.0,0.0,0.0,0.0,0.0,0.0,0.0,0.0,0.0,0.0,0.0,0.0,0.0,0.0,0.0,0.0,0.0,0.0,0.0,0.0,0.0,0.0,4.0311,0.0,0.0,3.9597,0.0,0.0,0.0,0.0,0.0,0.0,0.0,0.0,0.0,0.0,0.0,0.0,0.0,0.0,0.0,0.0,0.0,0.0,0.0,0.0,0.0,0.0,2.4578,2.4911,2.2741,2.1197,2.0318,1.9882,1.9284,1.8309,1.7114,1.5905,1.4525,0.0,0.0,0.0,0.0,0.0,0.0,0.0,0.0,0.0,0.0,0.0,0.0,0.0,0.0,0.0,0.0,0.0,0.0,0.0,0.0,0.0,0.0,0.0,0.0,0.0,0.0,-3.1452,-3.3494,-3.5339,0.0,0.0,0.0,0.0,0.0,0.0,0.0,0.0,0.0,-4.5862,-4.5845,-4.6305,-4.7769,-4.7358,-4.7305,-4.86,-4.8851,-4.8851,-4.8825,-5.0689,-5.2135,0.0,0.0,0.0,0.0,0.0,0.0,0.0,0.0,0.0,0.0,0.0,0.0,0.0,0.0,0.0,0.0,0.0,0.0,0.0,0.0,0.0,0.0,0.0,0.0,0.0,0.0,0.0,4.043,4.0685,0.0,0.0,0.0,0.0,0.0,0.0,0.0,0.0,0.0,0.0,0.0,3.7893,3.7228,0.0,0.0,0.0,0.0,0.0,0.0,0.0,0.0,0.0,0.0,0.0,0.0,2.3732,2.4217,2.2019,2.0439,1.9812,1.9828,1.8968,1.7563,1.6935,1.5109,1.1954,0.0,0.0,0.0,0.0,0.0,0.0,0.0,0.0,0.0,0.0,0.0,0.0,0.0,0.0,0.0,0.0,0.0,0.0,0.0,0.0,0.0,0.0,0.0,0.0,0.0,-2.9189,0.0,0.0,0.0,0.0,0.0,0.0,0.0,0.0,0.0,0.0,-4.3803,-4.4976,-4.6219,-4.6534,-4.7134,-4.8446,-4.7866,-4.7308,0.0,0.0,0.0,0.0,0.0,0.0,0.0,0.0,0.0,0.0,0.0,0.0,0.0,0.0,-6.666,-6.6141,-6.6428,-6.7446,-6.9278,0.0,0.0,0.0,0.0,0.0,0.0,0.0,0.0,0.0,0.0,0.0,0.0,0.0,0.0,4.1105,4.1003,4.059,0.0,0.0,0.0,0.0,0.0,0.0,0.0,0.0,3.7882,3.8517,3.9505,3.8612,3.8343,3.8559,3.6286,3.4472,0.0,0.0,0.0,0.0,0.0,0.0,0.0,0.0,2.3052,2.3094,2.1066,1.967,1.9105,1.9033,1.836,1.7105,1.6179,1.4014,1.0521,0.8117,0.5796,0.0,0.0,0.0,0.0,0.0,0.0,0.0,0.0,0.0,0.0,0.0,0.0,0.0,0.0,0.0,0.0,0.0,0.0,0.0,0.0,0.0,0.0,0.0,-3.0477,0.0,0.0,0.0,0.0,0.0,0.0,0.0,0.0,0.0,-4.3037,-4.4181,-4.5283,-4.6533,-4.669,-4.7392,-4.8916,0.0,0.0,0.0,0.0,0.0,0.0,0.0,-5.497,-5.5874,-5.7583,-5.9514,-6.1972,-6.4284,-6.6122,-6.7212,0.0,0.0,-6.8083,-6.8566,-6.9582,-7.1446,-7.2185,-7.2834,-7.3961,-7.4518,-7.4799,0.0,0.0,0.0,0.0,4.2647,0.0,0.0,0.0,4.203,4.1957,0.0,4.1529,0.0,0.0,0.0,0.0,3.7109,3.7611,0.0,0.0,3.9551,4.0704,4.163,4.0263,3.9792,4.014,3.7545,3.5651,3.4681,3.2325,0.0,0.0,0.0,0.0,0.0,0.0,2.2699,2.128,1.997,1.8942,1.8124,1.7593,1.7211,1.6964,1.4859,1.267,1.041,0.8459,0.628,0.4087,0.1919,0.0,0.0,0.0,0.0,0.0,0.0,0.0,0.0,0.0,0.0,0.0,0.0,0.0,0.0,0.0,0.0,0.0,0.0,0.0,0.0,-3.0549,0.0,0.0,0.0,0.0,0.0,0.0,0.0,0.0,0.0,-4.311,-4.3979,-4.4546,-4.5313,-4.6645,0.0,0.0,0.0,0.0,-4.8489,-5.0524,-5.1674,-5.2479,-5.3212,-5.5734,-5.7731,-5.8112,0.0,0.0,-6.3499,-6.4609,-6.5861,-6.7629,-6.8606,-6.9238,-6.9862,-7.1171,-7.2297,-7.308,-7.3694,-7.4242,-7.4467,-7.4897,-7.5042,4.5635,0.0,0.0,0.0,0.0,4.2658,4.2605,4.2865,4.3222,4.3008,4.222,4.194,0.0,0.0,0.0,0.0,0.0,0.0,3.8798,4.006,4.0638,4.1798,4.3385,4.252,4.2103,4.1913,3.8777,3.6742,3.585,3.3143,3.0954,2.9344,0.0,0.0,0.0,0.0,2.1331,2.0071,1.895,1.7956,1.6934,1.7283,1.6812,1.565,1.4122,1.2206,1.0078,0.8711,0.6958,0.4736,0.2372,0.0,0.0,0.0,0.0,0.0,0.0,0.0,0.0,0.0,0.0,0.0,0.0,0.0,0.0,0.0,0.0,0.0,0.0,0.0,-2.902,-3.0445,-3.2363,0.0,0.0,0.0,0.0,0.0,0.0,0.0,0.0,0.0,-4.3837,-4.4953,-4.5918,0.0,0.0,-4.8942,-4.9452,-4.9876,-5.0263,-5.0669,-5.2512,0.0,-5.4709,-5.7062,-5.9212,-6.0114,-6.2175,-6.3969,-6.5023,-6.6287,-6.7752,-6.886,-6.9861,-7.0735,-7.1618,-7.2443,-7.3472,-7.4653,-7.5417,-7.5907,-7.6361,-7.6546,-7.6644,4.7752,4.6571,4.4864,4.415,4.4255,4.3935,4.3906,4.417,4.4281,4.4002,4.3229,4.2674,4.1829,4.0749,3.9968,0.0,0.0,0.0,4.0171,4.1662,4.2131,4.3136,4.4499,4.4157,4.3553,4.2798,3.9884,3.7858,3.6475,3.3573,3.116,2.9379,0.0,2.6252,2.3885,2.1897,2.0308,1.8987,1.7979,1.7163,1.6396,1.6357,1.5888,1.4814,1.3524,1.1721,0.9764,0.8583,0.6997,0.476,0.33,0.12,0.0,0.0,0.0,0.0,0.0,0.0,0.0,0.0,0.0,0.0,0.0,-1.7558,-1.9231,0.0,0.0,0.0,-2.5996,-2.8444,-3.0294,-3.1653,0.0,0.0,0.0,0.0,0.0,0.0,0.0,-4.2089,-4.2543,-4.2976,-4.3578,-4.4743,-4.5544,-4.5708,-4.701,-4.8247,-4.8956,0.0,-5.069,-5.1603,-5.3882,-5.5878,-5.6788,-5.8727,-6.0568,-6.199,-6.3921,-6.5571,-6.6222,-6.7654,-6.8923,-6.9578,-7.0724,-7.1799,-7.2224,-7.3315,-7.4618,-7.5907,-7.6777,-7.7404,-7.7756,-7.7818,-7.7745,4.9697,4.9045,4.7442,4.6402,4.5715,4.5741,4.559,4.5415,4.5467,4.4976,4.4308,4.3762,4.2788,4.1543,4.0834,0.0,4.0352,4.0924,4.1969,4.3235,4.3807,4.4583,4.559,4.5181,4.4225,4.3103,4.0716,3.8512,3.6385,3.3774,3.1353,2.9147,2.8074,2.5907,2.2943,2.1233,1.9588,1.7877,1.7096,1.6536,1.6111,1.5253,1.4669,1.4361,1.2977,1.1157,0.9221,0.8412,0.6705,0.4325,0.4109,0.3357,0.164,0.0,0.0,0.0,0.0,0.0,0.0,0.0,0.0,0.0,0.0,0.0,0.0,0.0,0.0,0.0,-2.7312,0.0,-3.1361,-3.3275,0.0,0.0,0.0,-3.8139,-3.892,-3.912,-3.9688,-4.0601,0.0,0.0,-4.3458,-4.4075,-4.4548,-4.4882,-4.506,-4.5919,-4.824,-4.9127,-5.0401,-5.3378,-5.5766,-5.7687,-5.8919,-6.0608,-6.217,-6.3676,-6.5254,-6.642,-6.7134,-6.8371,-6.9456,-6.9457,-7.1181,-7.2463,-7.2056,-7.4011,-7.6084,-7.6767,-7.7698,-7.8442,-7.8369,-7.8332,-7.8174,4.9852,5.0113,4.9498,4.8057,4.6316,4.6508,4.6757,4.712,4.7751,4.7197,4.5792,4.5435,4.413,4.2448,4.1971,4.1875,4.1754,4.2555,4.3174,4.3831,4.5218,4.5852,4.5869,4.5453,4.4156,4.226,3.9731,3.7312,3.4892,3.3091,3.0435,2.7154,2.5968,2.4313,2.1976,1.9769,1.8021,1.6556,1.6286,1.5913,1.5295,1.4467,1.3744,1.3436,1.1843,1.0378,0.8883,0.7748,0.6326,0.4379,0.3975,0.2756,0.0603,-0.1047,0.0,0.0,0.0,0.0,0.0,0.0,0.0,0.0,0.0,-1.7707,-2.0245,0.0,-2.2984,0.0,-2.7579,-2.9613,-3.095,-3.198,0.0,0.0,-3.561,-3.6829,-3.8316,-3.8614,-3.9318,-4.0822,-4.1701,-4.244,-4.2972,-4.4183,-4.5001,-4.513,-4.6539,-4.7875,-4.9032,-5.1081,-5.3103,-5.5014,-5.693,-5.8673,-6.0359,-6.2568,-6.4223,-6.4673,-6.5967,-6.6971,-6.7165,-6.8011,-6.8792,-6.9086,-7.0667,-7.2031,-7.2363,-7.4868,-7.6935,-7.743,-7.7559,-7.7598,-7.7635,-7.7635,-7.7623,5.1411,5.0803,5.0924,4.9718,4.791,4.808,4.8288,4.8412,4.8421,4.7828,4.6709,4.5233,4.3843,4.2568,4.2639,4.2756,4.3041,4.3826,4.4451,4.5092,4.5997,4.6192,4.593,4.5216,4.3804,4.1722,3.9007,3.6509,3.3893,3.1861,2.925,2.6156,2.4562,2.2752,2.0793,1.8774,1.7097,1.591,1.5201,1.4789,1.4653,1.3898,1.3274,1.2811,1.1256,0.9805,0.8928,0.7627,0.5751,0.3668,0.3242,0.2163,-0.0153,-0.1513,-0.3456,0.0,0.0,0.0,0.0,0.0,0.0,0.0,0.0,0.0,0.0,0.0,-2.3256,-2.6235,-2.8249,-2.9843,-3.1062,-3.2629,-3.3923,-3.4854,-3.5815,-3.685,-3.7872,-3.8312,-3.9295,-4.0935,-4.1749,-4.2497,-4.3286,-4.4522,-4.5381,-4.5768,-4.7954,-4.9548,-5.0063,-5.2044,-5.4228,-5.6137,-5.7841,-5.9453,-6.1283,-6.3292,-6.4801,-6.5448,-6.6452,-6.7361,-6.785,-6.8554,-6.9142,-6.9693,-7.1166,-7.2507,-7.287,-7.4968,-7.685,-7.6919,-7.7129,-7.7426,-7.7818,-7.7892,-7.788,5.3171,5.1663,5.2015,5.1367,5.005,5.0182,4.9897,4.9425,4.8484,4.7732,4.7057,4.4774,4.3322,4.2542,4.3089,4.3688,4.4094,4.4942,4.5827,4.6463,4.6428,4.6341,4.6183,4.486,4.3249,4.1296,3.8521,3.5743,3.3058,3.0533,2.8023,2.5668,2.352,2.1507,1.9511,1.8067,1.6749,1.5537,1.42,1.3748,1.4207,1.3274,1.2656,1.2192,1.0474,0.9501,0.8957,0.7162,0.4831,0.2318,0.2026,0.109,-0.0771,-0.2307,-0.4276,0.0,-0.9014,0.0,0.0,0.0,0.0,0.0,0.0,0.0,0.0,-2.0611,-2.322,-2.6703,-2.863,-3.012,-3.1236,-3.3581,-3.5182,-3.5163,-3.658,-3.741,-3.7548,-3.8234,-3.949,-4.0958,-4.1608,-4.2415,-4.3955,-4.4937,-4.5797,-4.6712,-4.9039,-5.0785,-5.1308,-5.2852,-5.4909,-5.7017,-5.8624,-6.0315,-6.2013,-6.3322,-6.4671,-6.5967,-6.6873,-6.7719,-6.8863,-6.9251,-6.9769,-7.0653,-7.1987,-7.3074,-7.3293,-7.4957,-7.625,-7.6262,-7.6814,-7.7524,-7.8112,-7.8259,-7.8309,5.2908,5.2899,5.2529,5.2154,5.1818,5.1845,5.1152,4.9952,4.9636,4.8417,4.6548,4.6075,4.517,4.4031,4.4918,4.5158,4.4918,4.6238,4.6851,4.6997,4.7218,4.6993,4.6287,4.4435,4.2513,4.059,3.8117,3.5138,3.1906,3.0451,2.7866,2.4382,2.2805,2.1128,1.9275,0.0,0.0,0.0,1.4137,1.3553,1.3274,1.1869,1.094,1.0486,0.8778,0.0,0.7665,0.4967,0.2482,0.0625,-0.0466,0.0,0.0,0.0,0.0,0.0,0.0,0.0,0.0,0.0,0.0,0.0,-1.7494,-1.914,-2.0132,-2.2782,-2.5256,-2.6967,-2.8213,-2.9293,-3.0484,-3.2151,-3.3279,-3.3712,-3.5309,-3.6726,-3.7269,-3.8286,-3.9571,-4.0979,-4.2163,-4.3041,-4.3808,-4.511,-4.6431,-4.745,-4.9677,-5.1718,-5.3296,-5.4818,-5.6422,-5.8077,-5.9747,-6.1365,-6.278,-6.403,-6.5254,-6.6647,-6.7553,-6.8306,-6.9024,-6.9127,-6.9644,-7.1105,-7.2191,-7.3261,-7.4452,-7.5822,-7.6728,-7.6997,-7.7133,-7.7378,-7.7524,-7.7561,-7.7586,5.3514,5.3031,5.2829,5.2459,0.0,5.2195,5.1439,5.024,4.9594,4.805,4.606,4.5646,4.5231,4.4887,4.5279,4.5646,4.606,4.6873,4.7232,4.7146,4.7027,4.6652,4.5804,4.3482,4.1621,4.0068,3.7036,3.4224,3.1597,2.9317,2.6829,2.4147,2.2448,2.0913,1.9584,1.7832,1.6381,1.5106,1.4011,1.3276,1.2712,1.1547,1.0571,0.9473,0.8015,0.0,0.0,0.0,0.0,0.0,0.0,0.0,0.0,-0.4565,0.0,-0.6951,-0.8402,-0.9409,-1.0002,-1.1993,-1.3675,-1.4564,-1.7311,-1.9837,-2.1582,-2.3417,-2.5034,-2.6517,-2.7688,-2.8826,-2.9913,-3.1713,-3.3072,-3.3831,-3.5467,-3.6915,-3.7914,-3.9313,-4.0599,-4.171,-4.3418,-4.4566,-4.4877,-4.6816,-4.8309,-4.9006,-5.1123,-5.3225,-5.4613,-5.5965,-5.7324,-5.855,-6.0183,-6.169,-6.2972,-6.4159,-6.5675,-6.723,-6.8241,-6.8928,-6.9637,-6.9692,-7.0379,-7.2163,-7.2947,-7.3725,-7.5308,-7.625,-7.6902,-7.7217,-7.7341,-7.7157,-7.6827,-7.6717,-7.6778,5.4184,5.3034,5.31,5.2497,5.1681,5.1916,5.1403,5.0059,4.9116,0.0,0.0,4.5314,4.5425,4.5685,4.5582,4.6107,4.6974,4.7247,4.7393,4.7373,4.6638,4.591,4.5244,4.2782,4.0861,3.9523,3.6171,3.3481,3.1259,2.8232,2.5935,2.4061,2.2125,2.0587,1.9447,1.7724,1.623,1.4979,1.387,1.282,1.2128,1.1372,1.0199,0.8767,0.7252,0.6115,0.5022,0.3133,0.1559,0.0309,-0.1077,-0.2459,-0.3839,-0.528,-0.6323,-0.7044,-0.8814,-0.9537,-0.8809,-1.1447,-1.3431,-1.4082,-1.7375,-2.05,-2.3024,-2.3387,-2.4376,-2.6168,-2.742,-2.8492,-2.974,-3.1685,-3.3483,-3.4464,-3.5869,-3.7371,-3.8864,-4.041,-4.1792,-4.2958,-4.4505,-4.5959,-4.6432,-4.828,-4.9948,-5.0575,-5.223,-5.4469,-5.5814,-5.7166,-5.8128,-5.8979,-6.0578,-6.2199,-6.3355,-6.4546,-6.5999,-6.7979,-6.883,-6.9475,-7.0029,-7.0554,-7.1538,-7.3098,-7.3668,-7.4547,-7.5887,-7.657,-7.6866,-7.7181,-7.7279,-7.7084,-7.6313,-7.5873,-7.5749,5.4087,5.3766,5.3164,5.2666,5.2228,5.1664,5.0701,4.9388,4.8815,4.7685,4.6358,4.7115,4.7021,4.6382,4.7115,4.744,4.7158,4.7628,4.7959,4.824,4.6622,4.5728,4.5531,4.2624,4.0406,3.8747,3.6461,3.3736,3.0552,2.8468,2.6197,2.3579,2.1749,1.9958,1.7892,1.7092,1.5964,1.4351,1.3387,1.2602,1.1653,0.9781,0.8454,0.7815,0.6155,0.5176,0.5019,0.4044,0.2627,0.077,-0.1678,-0.2881,-0.2883,-0.4883,-0.6115,-0.5922,-0.7025,-0.8013,-0.8252,-1.0644,-1.3824,-1.7898,-2.0395,-2.221,-2.3593,-2.4083,-2.498,-2.6474,-2.7488,-2.8417,-2.9976,-3.1415,-3.2994,-3.4642,-3.6174,-3.812,-4.0171,-4.1253,-4.2538,-4.4183,-4.4775,-4.5724,-4.69,-4.8108,-4.9353,-5.0417,-5.2469,-5.4491,-5.7082,-5.8908,-5.9608,-5.997,-6.1628,-6.3463,-6.47,-6.5545,-6.668,-6.8536,-6.9123,-6.9561,-7.0232,-7.0943,-7.1955,-7.3229,-7.4011,-7.4899,-7.6264,-7.6708,-7.6866,-7.7019,-7.7181,-7.6974,-7.6166,-7.5065,-7.439,5.3725,5.3291,5.2742,5.2189,5.1632,5.0809,4.9676,4.8756,4.852,4.7819,4.6796,4.7075,4.719,4.7075,4.7351,4.7443,4.7399,4.7734,4.7767,4.7454,4.6359,4.5556,4.4799,4.2249,4.0452,3.8955,3.6225,3.358,3.0778,2.8569,2.6324,2.4259,2.2111,1.9855,1.7741,1.7199,1.6071,1.404,1.3556,1.2618,1.0891,0.9744,0.8371,0.7091,0.6178,0.5492,0.5019,0.419,0.3076,0.183,-0.0754,-0.2247,-0.2548,-0.4491,-0.5553,-0.5594,-0.6384,-0.7663,-0.8987,-1.2699,-1.6107,-1.9208,-2.1102,-2.2834,-2.4696,-2.5014,-2.559,-2.6934,-2.8023,-2.9303,-3.0716,-3.176,-3.3298,-3.5362,-3.674,-3.8329,-4.0464,-4.1683,-4.2892,-4.4142,-4.5372,-4.6559,-4.7425,-4.8935,-5.0219,-5.1416,-5.338,-5.5749,-5.7599,-6.0067,-6.1486,-6.1563,-6.2879,-6.4329,-6.5574,-6.6256,-6.7362,-6.8927,-6.9273,-6.9879,-7.1026,-7.1871,-7.2731,-7.4038,-7.4476,-7.4968,-7.63,-7.6344,-7.6464,-7.6983,-7.6778,-7.6387,-7.5506,-7.4206,-7.3382,5.3493,5.2779,5.2189,5.1583,5.0857,4.9795,4.9011,4.8422,4.8476,4.798,4.7293,4.711,4.7293,4.7637,4.7341,4.7386,4.7667,4.7701,4.7498,4.6849,4.616,4.5216,4.4246,4.209,4.0356,3.8812,3.5957,3.3388,3.1089,2.8461,2.6268,2.432,2.2166,1.9957,1.7539,1.7421,1.6114,1.3676,1.3533,1.2275,1.019,0.9672,0.859,0.6788,0.6346,0.5952,0.5,0.4192,0.3224,0.2262,0.015,-0.1489,-0.2516,-0.4275,-0.5487,-0.5886,-0.6838,-0.8407,-1.0938,-1.513,-1.8325,-2.006,-2.1837,-2.3616,-2.5478,-2.6031,-2.6641,-2.7677,-2.9288,-3.0651,-3.1613,-3.2618,-3.3936,-3.6174,-3.7214,-3.8778,-4.0924,-4.2223,-4.3365,-4.4612,-4.6299,-4.7548,-4.8636,-5.0156,-5.1641,-5.2875,-5.4984,-5.6811,-5.8148,-6.0886,-6.2792,-6.363,-6.4389,-6.5485,-6.6418,-6.7232,-6.8177,-6.9283,-6.9736,-7.0669,-7.2088,-7.2893,-7.3828,-7.5262,-7.519,-7.5433,-7.6378,-7.6162,-7.6072,-7.6773,-7.6716,-7.6056,-7.4551,-7.3031,-7.2225,5.3073,5.2552,5.1754,5.0901,4.9984,4.9342,4.8957,4.8835,4.8566,4.8452,4.8248,4.7863,4.7681,4.7794,4.7759,4.779,4.7813,4.7617,4.7575,4.766,4.5848,4.4741,4.4051,4.1717,3.97,3.8108,3.5921,3.3302,3.0821,2.882,2.5961,2.2545,2.105,1.9354,1.7414,1.7249,1.5771,1.269,1.2319,1.1499,0.9912,0.915,0.808,0.7039,0.6476,0.5929,0.4948,0.4208,0.3084,0.1496,-0.015,-0.1643,-0.2934,-0.4914,-0.6337,-0.7105,-0.8477,-1.0755,-1.416,-1.6943,-1.9233,-2.1119,-2.3482,-2.5383,-2.6433,-2.7712,-2.8783,-2.9483,-3.0807,-3.1993,-3.2879,-3.3426,-3.4778,-3.7118,-3.816,-3.9425,-4.2138,-4.3255,-4.4589,-4.668,-4.74,-4.8435,-4.9973,-5.1066,-5.2406,-5.3919,-5.5737,-5.7565,-5.9504,-6.1829,-6.4135,-6.5596,-6.6751,-6.7202,-6.7877,-6.8569,-6.9184,-6.9855,-7.0781,-7.178,-7.2984,-7.437,-7.5707,-7.6051,-7.6081,-7.6208,-7.6632,-7.6505,-7.5926,-7.6574,-7.6653,-7.624,-7.3523,-7.1838,-7.1287,5.3031,5.2509,5.1687,5.0717,4.9724,4.9525,4.9129,4.8736,4.8919,4.8697,4.8222,4.772,4.7759,4.8231,4.7831,4.7617,4.7509,4.7199,4.6898,4.6574,4.5436,4.4437,4.3181,4.0909,3.9152,3.7873,3.522,3.2777,3.0703,2.7651,2.4801,2.2588,2.1405,2.0059,1.8374,1.7691,1.5811,1.2801,1.1959,1.0738,0.9159,0.8464,0.7593,0.6709,0.6158,0.5324,0.4048,0.3243,0.2288,0.0601,-0.1049,-0.2522,-0.393,-0.5625,-0.7174,-0.8225,-1.023,-1.2546,-1.5081,-1.7539,-1.9754,-2.1778,-2.4389,-2.624,-2.7058,-2.9122,-3.0514,-3.0934,-3.1609,-3.2542,-3.3816,-3.4963,-3.6662,-3.8984,-4.0242,-4.1678,-4.3484,-4.4359,-4.5373,-4.7047,-4.8033,-4.8876,-5.035,-5.1535,-5.2913,-5.4497,-5.6345,-5.8377,-6.0111,-6.2748,-6.5079,-6.6385,-6.7593,-6.8301,-6.8699,-6.8961,-6.9533,-7.0196,-7.1226,-7.2498,-7.3861,-7.4775,-7.5871,-7.6982,-7.6321,-7.6094,-7.6565,-7.625,-7.5817,-7.6428,-7.5995,-7.5139,-7.2899,-7.2132,-7.2134,5.3045,5.2641,5.1464,5.0508,4.9834,4.977,4.9342,4.8815,4.9141,4.8888,4.8299,4.7924,4.8123,4.8432,4.7706,4.7199,4.7264,4.7069,4.6489,4.583,4.5167,4.3919,4.2242,4.0095,3.8572,3.7099,3.4442,3.206,3.0042,2.6518,2.398,2.2979,2.1873,2.056,1.8847,1.7678,1.5569,1.2707,1.1435,0.9993,0.8419,0.7762,0.7236,0.636,0.5516,0.4388,0.281,0.2156,0.0913,-0.0756,-0.2257,-0.3722,-0.5271,-0.6677,-0.8244,-0.9921,-1.2354,-1.4501,-1.6303,-1.8501,-2.0524,-2.2355,-2.4834,-2.6616,-2.7777,-2.9718,-3.1318,-3.1959,-3.238,-3.3308,-3.4805,-3.6514,-3.8504,-4.0471,-4.2043,-4.3395,-4.4526,-4.5372,-4.6602,-4.8007,-4.9174,-5.0011,-5.1216,-5.2338,-5.3489,-5.456,-5.6896,-5.9364,-6.0975,-6.3746,-6.596,-6.6796,-6.8068,-6.8994,-6.9058,-6.9372,-6.9762,-7.0613,-7.1833,-7.3229,-7.4617,-7.5508,-7.6374,-7.7555,-7.6248,-7.5907,-7.6735,-7.6461,-7.5917,-7.6345,-7.591,-7.4661,-7.323,-7.2867,-7.3037,5.3229,5.286,5.1201,5.0499,5.0397,4.9996,4.972,4.9141,4.9333,4.9073,4.8763,4.8699,4.8575,4.8143,4.7282,4.6911,4.6954,4.6901,4.6587,4.6082,4.4945,4.3549,4.1779,3.9714,3.7882,3.6241,3.3871,3.1239,2.796,2.569,2.4093,2.3275,2.1911,2.0417,1.8716,1.7187,1.5014,1.2382,1.0606,0.8982,0.7377,0.7042,0.6687,0.5984,0.4706,0.3279,0.1858,0.0779,-0.0775,-0.2878,-0.3818,-0.5013,-0.6849,-0.8022,-0.9835,-1.2099,-1.4605,-1.6617,-1.8329,-2.0016,-2.1673,-2.3088,-2.4935,-2.6692,-2.7925,-2.9577,-3.0973,-3.2083,-3.3572,-3.4792,-3.6128,-3.7903,-3.9596,-4.0793,-4.2436,-4.397,-4.5363,-4.7085,-4.8672,-4.9976,-5.0948,-5.183,-5.32,-5.3752,-5.4185,-5.5233,-5.7686,-6.0343,-6.2646,-6.4754,-6.6248,-6.7253,-6.8369,-6.9316,-6.9346,-6.9703,-7.0423,-7.1367,-7.2513,-7.3922,-7.5401,-7.6684,-7.7595,-7.7986,-7.6859,-7.6487,-7.7123,-7.7101,-7.6564,-7.6361,-7.5861,-7.4771,-7.4111,-7.3235,-7.3386,5.2791,5.1639,5.0857,5.0318,5.0065,4.9935,4.9638,4.9049,4.9362,4.9135,4.8562,4.8168,4.7771,4.7412,4.7103,4.7035,4.6964,4.6447,4.5861,4.5005,4.4021,4.2576,4.0857,3.9069,3.7555,3.5848,3.3353,3.0647,2.7655,2.5243,2.4045,2.3649,2.2197,2.0457,1.8566,1.6885,1.4354,1.1374,0.9554,0.7969,0.6623,0.5937,0.4944,0.3333,0.3173,0.2059,-0.0,-0.0472,-0.1718,-0.3876,-0.494,-0.6263,-0.7972,-1.0122,-1.1894,-1.3398,-1.4941,-1.666,-1.8754,-2.006,-2.1557,-2.3543,-2.5144,-2.6937,-2.8447,-2.9828,-3.1383,-3.3016,-3.4612,-3.6142,-3.7611,-3.909,-4.0763,-4.3105,-4.416,-4.5561,-4.7456,-4.8799,-4.9917,-5.1349,-5.211,-5.2685,-5.3114,-5.338,-5.4055,-5.5704,-5.8176,-6.076,-6.2761,-6.492,-6.6659,-6.7491,-6.8732,-6.9722,-6.9284,-6.985,-7.0648,-7.2004,-7.317,-7.4299,-7.5596,-7.6769,-7.7661,-7.7728,-7.6891,-7.6627,-7.7007,-7.7194,-7.6763,-7.6741,-7.6203,-7.5689,-7.5285,-7.4595,-7.469,5.2214,5.0919,5.0608,5.0315,5.0017,5.0204,4.983,4.9359,4.969,4.9541,4.8768,4.8371,4.7927,4.7525,4.7237,4.7113,4.6966,4.6168,4.5411,4.4363,4.3253,4.199,4.0382,3.8594,3.6799,3.5046,3.2054,2.9424,2.7482,2.5465,2.4471,2.3936,2.2256,2.0458,1.8336,1.6293,1.3566,1.0538,0.8561,0.7015,0.5529,0.436,0.3053,0.1286,0.0806,-0.0,-0.1278,-0.1895,-0.2982,-0.4703,-0.5916,-0.7249,-0.9173,-1.1396,-1.3251,-1.4302,-1.5236,-1.6793,-1.8905,-2.02,-2.1546,-2.3543,-2.5157,-2.6829,-2.8626,-2.9915,-3.1531,-3.3492,-3.5643,-3.7324,-3.9004,-4.0707,-4.2703,-4.4887,-4.5944,-4.7222,-4.9118,-5.0233,-5.1304,-5.2577,-5.2755,-5.3022,-5.3234,-5.3472,-5.4747,-5.6708,-5.9182,-6.1378,-6.3888,-6.5502,-6.7078,-6.7967,-6.8956,-6.9862,-7.0075,-7.0512,-7.0891,-7.196,-7.3367,-7.454,-7.5463,-7.6661,-7.7257,-7.7217,-7.7098,-7.6729,-7.6708,-7.6966,-7.7118,-7.7206,-7.6937,-7.6423,-7.6166,-7.6043,-7.5809,5.1393,5.0567,5.0716,5.0479,5.0162,5.0409,5.0628,5.0109,5.0542,5.0218,4.9424,4.9446,4.8725,4.8149,4.7672,4.7339,4.6923,4.645,4.5523,4.4386,4.3055,4.1694,4.0307,3.8399,3.6158,3.3753,3.0382,2.8063,2.6965,2.6041,2.502,2.3514,2.2267,2.022,1.7673,1.5235,1.2476,0.9736,0.7954,0.6246,0.4236,0.2602,0.1138,-0.0326,-0.2135,-0.278,-0.2083,-0.3486,-0.4574,-0.551,-0.6438,-0.7994,-1.0285,-1.204,-1.3558,-1.4911,-1.6015,-1.7559,-1.9119,-2.0538,-2.1895,-2.3376,-2.4736,-2.6391,-2.8359,-2.9698,-3.13,-3.3648,-3.6093,-3.8205,-4.0103,-4.318,-4.5294,-4.532,-4.6964,-4.8682,-4.9796,-5.1152,-5.2732,-5.3571,-5.3389,-5.3227,-5.3592,-5.4369,-5.5771,-5.8148,-6.0304,-6.2744,-6.5552,-6.6596,-6.7561,-6.8732,-6.9462,-7.0004,-7.0663,-7.1163,-7.1394,-7.1955,-7.3343,-7.4638,-7.5434,-7.6482,-7.6859,-7.6886,-7.7043,-7.6745,-7.6902,-7.7092,-7.7217,-7.7268,-7.7084,-7.6974,-7.6717,-7.6484,-7.6056,5.0365,4.9919,5.0232,4.9962,4.9402,4.9767,4.9729,4.9489,4.951,4.9346,4.8853,4.8688,4.8191,4.7609,4.752,4.7325,4.6456,4.5976,4.5091,4.391,4.2856,4.1394,4.0,3.86,3.6256,3.278,2.957,2.8195,2.7551,2.5848,2.4395,2.3525,2.1628,1.9358,1.7007,1.4351,1.1464,0.8725,0.7143,0.5448,0.3295,0.1317,-0.0494,-0.2635,-0.3636,-0.3956,-0.3764,-0.4239,-0.4864,-0.5305,-0.6695,-0.8531,-1.0802,-1.2608,-1.3838,-1.4968,-1.6009,-1.7316,-1.8886,-2.0605,-2.221,-2.3451,-2.4817,-2.6818,-2.8788,-2.9807,-3.1566,-3.4389,-3.6872,-3.9065,-4.1816,-4.4806,-4.6562,-4.6213,-4.7973,-4.9807,-5.0917,-5.2279,-5.3033,-5.3142,-5.3457,-5.3727,-5.4227,-5.5289,-5.7298,-5.9333,-6.1425,-6.3749,-6.5786,-6.6878,-6.7593,-6.8993,-6.9556,-7.0243,-7.0992,-7.1607,-7.1987,-7.2405,-7.354,-7.4642,-7.5474,-7.6158,-7.6465,-7.6693,-7.6846,-7.6902,-7.7092,-7.7217,-7.7279,-7.7341,-7.7231,-7.7121,-7.6974,-7.6754,-7.6423,4.983,4.9494,4.9516,4.917,4.8801,4.9135,4.9175,4.9086,4.9128,4.9047,4.8798,4.8483,4.8067,4.7494,4.7508,4.7138,4.6571,4.5725,4.4818,4.3823,4.2422,4.116,3.966,3.7964,3.5508,3.2267,2.9398,2.801,2.7722,2.5689,2.4235,2.3181,2.1272,1.8813,1.6236,1.3593,1.0736,0.7889,0.6317,0.4477,0.1997,0.05,-0.1332,-0.3498,-0.4163,-0.4329,-0.466,-0.4826,-0.5121,-0.5857,-0.7545,-0.9351,-1.0969,-1.2704,-1.4136,-1.4943,-1.6008,-1.7226,-1.8641,-2.0544,-2.213,-2.3248,-2.4943,-2.7024,-2.8875,-2.9944,-3.2287,-3.5461,-3.8442,-4.0836,-4.3431,-4.6573,-4.7929,-4.7465,-4.8994,-5.0537,-5.189,-5.2755,-5.316,-5.3106,-5.3524,-5.3916,-5.4609,-5.6325,-5.8516,-6.0262,-6.2233,-6.429,-6.5859,-6.7132,-6.8271,-6.9313,-6.9921,-7.069,-7.1388,-7.2015,-7.2614,-7.3107,-7.3687,-7.4602,-7.5437,-7.6117,-7.6621,-7.6818,-7.6902,-7.6966,-7.7155,-7.7217,-7.7341,-7.7341,-7.7378,-7.7231,-7.7157,-7.7194,-7.6974,4.9538,4.9403,4.8591,4.8371,4.8337,4.8741,4.8857,4.9154,4.9364,4.9386,4.9195,4.8525,4.821,4.8066,4.7218,4.6822,4.6579,4.5373,4.4636,4.3584,4.2179,4.069,3.9511,3.682,3.4143,3.194,2.957,2.7945,2.691,2.5653,2.4407,2.2675,2.0905,1.864,1.5421,1.2853,1.0033,0.7073,0.5832,0.3664,0.0672,-0.0168,-0.1344,-0.3698,-0.4031,-0.4367,-0.5036,-0.5706,-0.6151,-0.6838,-0.8828,-1.0302,-1.0999,-1.2786,-1.4117,-1.4751,-1.6038,-1.725,-1.8413,-2.0475,-2.2032,-2.3028,-2.5255,-2.7162,-2.9012,-3.1045,-3.3517,-3.6922,-4.0255,-4.308,-4.5184,-4.8031,-4.9311,-4.9004,-5.0149,-5.1522,-5.2017,-5.2661,-5.2983,-5.309,-5.3493,-5.4294,-5.4815,-5.6921,-5.9186,-6.1108,-6.3072,-6.4969,-6.6447,-6.7701,-6.8993,-6.9783,-7.0411,-7.1299,-7.2054,-7.2472,-7.3067,-7.3422,-7.4011,-7.4713,-7.544,-7.6043,-7.6548,-7.6773,-7.6966,-7.7092,-7.7155,-7.7217,-7.7488,-7.7671,-7.7598,-7.7414,-7.7414,-7.7488,-7.7402,4.9873,4.9068,4.8583,4.8051,4.7969,4.7975,4.8315,4.8503,4.8376,4.8289,4.8222,4.8004,4.739,4.6875,4.6576,4.6385,4.5744,4.4902,4.38,4.3065,4.1904,4.0088,3.8356,3.6085,3.4002,3.1827,2.9824,2.7839,2.656,2.5407,2.3765,2.1628,1.9718,1.7339,1.4513,1.2122,0.927,0.6633,0.5723,0.4191,0.1848,-0.0841,-0.2859,-0.4712,-0.471,-0.5214,-0.6553,-0.7725,-0.7974,-0.7641,-0.9457,-1.0768,-1.1299,-1.2956,-1.4312,-1.5152,-1.6333,-1.7787,-1.9114,-2.0857,-2.2259,-2.3548,-2.5977,-2.8061,-2.9883,-3.2409,-3.5285,-3.8418,-4.1581,-4.4308,-4.6309,-4.8682,-5.0052,-5.0831,-5.132,-5.1758,-5.1732,-5.2368,-5.2721,-5.2305,-5.3619,-5.4921,-5.6454,-5.8765,-6.1292,-6.2996,-6.4457,-6.5847,-6.7118,-6.8136,-6.9187,-7.0263,-7.1041,-7.1867,-7.2582,-7.3044,-7.3482,-7.3712,-7.4258,-7.4935,-7.5514,-7.5971,-7.6378,-7.668,-7.6902,-7.7029,-7.7155,-7.7217,-7.7573,-7.7928,-7.7781,-7.7598,-7.7781,-7.7892,-7.7549,4.9932,4.9384,4.8586,4.8349,4.8244,4.7585,4.7714,4.7894,4.7684,4.7508,4.7622,4.7015,4.6689,4.6323,4.5842,4.5588,4.5255,4.437,4.3641,4.2836,4.1586,3.9733,3.7825,3.6318,3.4467,3.2179,3.0344,2.8365,2.6487,2.5275,2.3531,2.1128,1.8497,1.6125,1.4048,1.1318,0.8624,0.6489,0.558,0.4206,0.1514,-0.0841,-0.3027,-0.471,-0.5214,-0.6053,-0.7562,-0.9059,-0.9623,-0.9278,-1.0297,-1.1482,-1.2005,-1.3204,-1.4592,-1.5463,-1.686,-1.8323,-1.9634,-2.1501,-2.3003,-2.4442,-2.6949,-2.9393,-3.156,-3.4231,-3.7313,-4.0507,-4.3108,-4.5418,-4.7157,-4.8978,-5.0181,-5.0942,-5.168,-5.1826,-5.1425,-5.1924,-5.2391,-5.28,-5.4181,-5.6156,-5.764,-6.0646,-6.275,-6.429,-6.539,-6.6523,-6.7491,-6.8436,-6.9379,-7.0507,-7.1532,-7.2398,-7.2936,-7.3311,-7.3896,-7.4124,-7.477,-7.5405,-7.587,-7.6216,-7.6487,-7.6789,-7.6911,-7.7066,-7.7202,-7.7437,-7.7719,-7.7928,-7.7818,-7.7781,-7.7928,-7.7892,-7.7549,5.0095,5.0349,4.8854,4.8571,4.8725,4.7587,4.7215,4.7535,4.7183,4.7127,4.7135,4.6245,4.5822,4.6133,4.5236,4.4744,4.48,4.3856,4.3284,4.2282,4.0959,3.915,3.7777,3.6869,3.4787,3.2482,3.1211,2.8868,2.6472,2.508,2.3468,2.0637,1.7597,1.525,1.3391,1.0483,0.8125,0.6511,0.56,0.354,0.0673,-0.1681,-0.37,-0.5214,-0.6553,-0.7391,-0.8729,-1.0049,-1.0788,-1.0728,-1.1344,-1.2217,-1.2924,-1.3822,-1.5066,-1.6182,-1.78,-1.9267,-1.9917,-2.2316,-2.4099,-2.5332,-2.8414,-3.134,-3.3308,-3.6227,-3.9488,-4.2549,-4.4783,-4.6496,-4.7971,-4.9177,-4.995,-5.0766,-5.1407,-5.1788,-5.1779,-5.1826,-5.2339,-5.3539,-5.5292,-5.7276,-5.9472,-6.17,-6.3923,-6.5094,-6.613,-6.7078,-6.7967,-6.8993,-6.9855,-7.0815,-7.1883,-7.297,-7.3299,-7.3577,-7.408,-7.4611,-7.536,-7.598,-7.6436,-7.6777,-7.6875,-7.7007,-7.7421,-7.7514,-7.7458,-7.7668,-7.8013,-7.7965,-7.7892,-7.7818,-7.7745,-7.7635,-7.7402,5.1077,5.083,4.9004,4.8592,4.8747,4.7237,4.6902,4.7549,4.6766,4.6471,4.6366,4.5842,4.5511,4.5255,4.4585,4.4342,4.4207,4.3269,4.2389,4.111,3.997,3.8412,3.721,3.6379,3.4595,3.2131,3.0437,2.8127,2.5874,2.4204,2.241,1.9581,1.6362,1.3865,1.2261,0.9703,0.752,0.6579,0.5656,0.3392,-0.0,-0.3026,-0.5214,-0.6727,-0.8566,-0.9898,-1.0737,-1.173,-1.2478,-1.2983,-1.3171,-1.3214,-1.3771,-1.5256,-1.6316,-1.7376,-1.8921,-2.0674,-2.1838,-2.2863,-2.4343,-2.652,-2.932,-3.1977,-3.5111,-3.8021,-4.1169,-4.4015,-4.5892,-4.7469,-4.8874,-4.9847,-5.0334,-5.0766,-5.135,-5.1904,-5.2377,-5.3111,-5.3905,-5.4924,-5.6753,-5.9056,-6.1082,-6.2988,-6.4721,-6.596,-6.6837,-6.7561,-6.8535,-6.9475,-7.0415,-7.1266,-7.2262,-7.3252,-7.3531,-7.3922,-7.4646,-7.5241,-7.594,-7.6446,-7.6899,-7.7243,-7.7274,-7.7559,-7.8085,-7.7997,-7.776,-7.8207,-7.8552,-7.8295,-7.7965,-7.7928,-7.7781,-7.7524,-7.7365,5.1841,5.131,4.9603,4.9086,4.9028,4.7485,4.6852,4.7178,4.6584,4.6245,4.5881,4.5431,4.5078,4.4585,4.4041,4.3704,4.3434,4.2782,4.1587,4.0258,3.9408,3.8191,3.6622,3.5532,3.3812,3.1513,3.0308,2.8117,2.5414,2.3375,2.1255,1.847,1.4673,1.2343,1.1266,0.8901,0.723,0.5923,0.4323,0.2224,-0.0169,-0.3866,-0.6724,-0.8068,-0.9903,-1.107,-1.1736,-1.2235,-1.3308,-1.4171,-1.4554,-1.4792,-1.5018,-1.6282,-1.7426,-1.8519,-1.983,-2.143,-2.2507,-2.3732,-2.5439,-2.8038,-3.0852,-3.3983,-3.7292,-4.0399,-4.3162,-4.5373,-4.6754,-4.805,-4.9336,-4.9976,-5.0334,-5.0968,-5.1596,-5.2342,-5.2968,-5.3858,-5.4948,-5.6149,-5.848,-6.0413,-6.2401,-6.4009,-6.5076,-6.6194,-6.6844,-6.7583,-6.8928,-6.9855,-7.0781,-7.1708,-7.2602,-7.3334,-7.3682,-7.4299,-7.5241,-7.5864,-7.6625,-7.7018,-7.733,-7.7538,-7.7647,-7.8031,-7.8377,-7.8216,-7.8089,-7.861,-7.8699,-7.8112,-7.7818,-7.7928,-7.7855,-7.7488,-7.7463,5.2466,5.158,5.0267,4.966,4.9404,4.7663,4.6917,4.6848,4.6437,4.5996,4.5549,4.5078,4.4548,4.3911,4.3524,4.3325,4.2815,4.2154,4.1016,3.964,3.8857,3.747,3.5866,3.4485,3.2718,3.0916,2.9767,2.7695,2.5093,2.2717,2.0535,1.7745,1.3726,1.1514,1.0392,0.8595,0.6754,0.525,0.2782,0.0517,-0.1359,-0.4734,-0.7088,-0.9272,-1.0414,-1.1403,-1.2235,-1.2886,-1.3823,-1.5171,-1.5804,-1.6453,-1.7047,-1.7686,-1.8404,-1.9871,-2.0998,-2.2241,-2.3597,-2.4933,-2.6739,-2.9593,-3.3051,-3.6316,-3.9104,-4.2147,-4.4677,-4.6199,-4.7415,-4.8551,-4.954,-5.0104,-5.0487,-5.1246,-5.2094,-5.2929,-5.374,-5.4485,-5.6149,-5.7582,-5.9771,-6.1905,-6.3268,-6.4683,-6.5552,-6.6332,-6.6934,-6.7818,-6.9049,-7.0289,-7.1253,-7.2039,-7.2797,-7.3542,-7.3966,-7.4858,-7.5715,-7.6157,-7.6984,-7.7411,-7.7688,-7.7683,-7.7891,-7.8316,-7.8486,-7.8398,-7.8556,-7.8903,-7.8736,-7.7928,-7.7671,-7.7818,-7.7708,-7.7451,-7.756,5.2279,5.1054,5.01,4.9491,4.8955,4.765,4.7047,4.6947,4.656,4.5881,4.5059,4.4902,4.4174,4.3394,4.3361,4.2797,4.2224,4.144,4.0545,3.9004,3.8056,3.6529,3.4794,3.3171,3.1262,2.9327,2.8322,2.683,2.4844,2.2625,2.0069,1.7778,1.4661,1.2269,0.9857,0.806,0.6053,0.4205,0.1567,-0.1037,-0.3786,-0.5639,-0.7815,-0.9835,-1.1109,-1.1908,-1.2893,-1.4045,-1.5185,-1.5983,-1.7293,-1.8588,-1.9473,-1.9978,-2.0305,-2.0943,-2.2159,-2.3389,-2.4855,-2.6194,-2.8399,-3.1318,-3.4631,-3.7529,-4.0195,-4.3049,-4.5562,-4.6973,-4.8164,-4.9207,-4.9976,-5.0359,-5.0842,-5.1596,-5.2685,-5.3752,-5.4936,-5.6446,-5.7858,-5.8834,-6.1014,-6.2878,-6.384,-6.4893,-6.5804,-6.6577,-6.7134,-6.8134,-6.9384,-7.0535,-7.1575,-7.2257,-7.2951,-7.3641,-7.4167,-7.5307,-7.6298,-7.6374,-7.6983,-7.7731,-7.7901,-7.7891,-7.8135,-7.885,-7.9092,-7.8938,-7.9169,-7.937,-7.914,-7.8662,-7.8259,-7.7818,-7.8002,-7.8174,-7.7841,5.2667,5.1076,5.0166,4.9362,4.8654,4.7824,4.7155,4.6638,4.6308,4.5783,4.5059,4.4529,4.3819,4.309,4.2868,4.2452,4.1697,4.1289,3.9918,3.8344,3.7194,3.56,3.3656,3.1956,3.0199,2.8458,2.7045,2.5822,2.4117,2.1346,1.9088,1.6657,1.3874,1.1231,0.9277,0.7644,0.5291,0.2962,0.0346,-0.2071,-0.5001,-0.6511,-0.8526,-1.0483,-1.1617,-1.2407,-1.3231,-1.4541,-1.5859,-1.6837,-1.8318,-1.9947,-2.1157,-2.1612,-2.1839,-2.213,-2.3116,-2.4495,-2.6085,-2.7406,-2.9978,-3.3978,-3.6693,-3.9433,-4.2127,-4.4924,-4.6876,-4.8164,-4.8799,-4.959,-5.0232,-5.0741,-5.1346,-5.2535,-5.3631,-5.4915,-5.6251,-5.779,-5.883,-5.9945,-6.1995,-6.3471,-6.3933,-6.4919,-6.6049,-6.6777,-6.732,-6.8434,-6.9736,-7.0954,-7.1985,-7.2741,-7.3412,-7.4026,-7.4694,-7.568,-7.6407,-7.659,-7.6982,-7.7691,-7.8078,-7.8068,-7.8923,-7.9961,-7.9917,-7.98,-7.9746,-7.991,-7.9653,-7.9323,-7.8772,-7.8405,-7.8736,-7.8823,-7.8467,5.2702,5.076,4.9912,4.9059,4.8199,4.7701,4.6987,4.6289,4.6133,4.5607,4.4902,4.4352,4.3641,4.2748,4.2337,4.1917,4.1268,4.0949,3.9478,3.7647,3.6653,3.4853,3.2807,3.0929,2.9474,2.7751,2.6375,2.5012,2.3504,2.0723,1.7949,1.5723,1.2913,1.0016,0.8199,0.7467,0.4542,0.1727,-0.086,-0.2754,-0.4977,-0.7366,-0.954,-1.1282,-1.1914,-1.2567,-1.3403,-1.4878,-1.6024,-1.7337,-1.8961,-2.0758,-2.22,-2.2692,-2.2905,-2.3162,-2.3536,-2.492,-2.6655,-2.849,-3.14,-3.5717,-3.8766,-4.1407,-4.37,-4.5882,-4.817,-4.9311,-4.9719,-4.9976,-5.0588,-5.122,-5.2192,-5.351,-5.4825,-5.6107,-5.7358,-5.8614,-5.974,-6.1202,-6.3083,-6.3746,-6.3893,-6.4789,-6.5771,-6.7001,-6.7559,-6.8602,-6.995,-7.1319,-7.2437,-7.3287,-7.4018,-7.4547,-7.521,-7.5938,-7.6445,-7.6554,-7.7016,-7.7792,-7.8073,-7.8244,-7.9457,-8.0678,-8.1,-8.0882,-8.069,-8.0424,-8.0241,-7.9874,-7.9213,-7.914,-7.9617,-7.9595,-7.9228,5.187,4.9912,4.9401,4.8564,4.7701,4.6832,4.6483,4.6308,4.5958,4.5431,4.4902,4.4352,4.3463,4.237,4.1596,4.1084,4.0545,4.0005,3.8675,3.687,3.5645,3.4103,3.2326,3.0303,2.8781,2.7192,2.6191,2.5411,2.3709,2.0557,1.8223,1.6,1.2552,0.9494,0.7877,0.7314,0.4958,0.1394,-0.14,-0.3675,-0.607,-0.8473,-1.0304,-1.1396,-1.2136,-1.2899,-1.3569,-1.4878,-1.6353,-1.7173,-1.8971,-2.0769,-2.2234,-2.2556,-2.3324,-2.3977,-2.4503,-2.5304,-2.7506,-2.9606,-3.2628,-3.6856,-3.993,-4.2119,-4.4441,-4.6487,-4.8422,-4.9515,-4.9847,-5.0487,-5.122,-5.2068,-5.3146,-5.4679,-5.6194,-5.7245,-5.8386,-5.9362,-6.0499,-6.1371,-6.2892,-6.3255,-6.3345,-6.4481,-6.5543,-6.6659,-6.792,-6.8954,-7.0255,-7.171,-7.2962,-7.3834,-7.4364,-7.4886,-7.5291,-7.6086,-7.6374,-7.6445,-7.6975,-7.7679,-7.8353,-7.885,-7.9998,-8.1037,-8.1469,-8.1791,-8.1562,-8.1232,-8.0901,-8.0498,-8.0021,-8.0241,-8.0681,-8.043,-7.9989,5.004,4.9401,4.8887,4.8372,4.7701,4.7007,4.6483,4.6308,4.5783,4.5431,4.4725,4.4156,4.3035,4.1968,4.1482,4.0797,4.0041,3.9298,3.76,3.5846,3.4478,3.2974,3.1178,2.9733,2.838,2.6794,2.5785,2.4973,2.3404,2.0529,1.749,1.4936,1.1846,0.9143,0.7724,0.7143,0.476,0.1399,-0.2102,-0.4735,-0.6785,-0.8663,-1.0522,-1.1769,-1.2476,-1.2919,-1.3728,-1.5043,-1.6024,-1.7009,-1.8808,-2.0607,-2.1577,-2.2395,-2.3199,-2.3668,-2.4598,-2.6222,-2.8578,-3.0862,-3.428,-3.7891,-4.108,-4.3557,-4.5832,-4.7385,-4.8516,-4.9565,-5.0206,-5.0942,-5.1944,-5.3025,-5.4679,-5.6079,-5.744,-5.8466,-5.9392,-6.0241,-6.1196,-6.1925,-6.2619,-6.3154,-6.3869,-6.5413,-6.6438,-6.7354,-6.8473,-6.9538,-7.0891,-7.2381,-7.3501,-7.4446,-7.478,-7.5039,-7.5405,-7.5908,-7.6121,-7.6225,-7.6397,-7.728,-7.8638,-7.9566,-8.0393,-8.1285,-8.1827,-8.2076,-8.2113,-8.1893,-8.1489,-8.1195,-8.0938,-8.1158,-8.1305,-8.1103,-8.0837,4.8372,4.8544,4.8199,4.7854,4.7528,4.6832,4.6483,4.6133,4.5607,4.5078,4.4548,4.3641,4.255,4.1909,4.1264,4.0562,3.9538,3.8691,3.6822,3.4941,3.3351,3.2029,3.057,2.923,2.7993,2.6313,2.5751,2.4432,2.2288,1.9992,1.7134,1.4235,1.1499,0.8973,0.7581,0.6436,0.4425,-0.0,-0.2995,-0.5273,-0.6979,-0.868,-1.0506,-1.1763,-1.2656,-1.3065,-1.3562,-1.5043,-1.6024,-1.6517,-1.8482,-2.014,-2.069,-2.1632,-2.2843,-2.3663,-2.4874,-2.6963,-2.9389,-3.2107,-3.543,-3.8986,-4.2354,-4.4753,-4.7329,-4.8445,-4.8967,-4.9847,-5.0942,-5.1793,-5.2876,-5.4204,-5.5935,-5.7328,-5.8575,-5.9683,-6.069,-6.1103,-6.1832,-6.2581,-6.3341,-6.403,-6.4995,-6.6631,-6.7586,-6.8144,-6.9086,-7.0174,-7.1581,-7.3193,-7.3956,-7.478,-7.5004,-7.5294,-7.5763,-7.6015,-7.6084,-7.6148,-7.6248,-7.7062,-7.8565,-7.9493,-8.0173,-8.1,-8.2076,-8.2186,-8.215,-8.2113,-8.2039,-8.1746,-8.1562,-8.1672,-8.1774,-8.1571,-8.1342,4.7528,4.7181,4.7181,4.7181,4.7007,4.6133,4.5783,4.5588,4.5255,4.4744,4.4071,4.2927,4.1885,4.1465,4.1143,4.0376,3.9191,3.8578,3.6776,3.4739,3.3163,3.165,3.0178,2.8954,2.7884,2.6444,2.5566,2.3456,2.076,1.9825,1.7933,1.6011,1.1705,0.919,0.7272,0.5758,0.2683,-0.1068,-0.3908,-0.5299,-0.7017,-0.8709,-1.0511,-1.1932,-1.2823,-1.3397,-1.3403,-1.5043,-1.6024,-1.6024,-1.7992,-1.9404,-2.0303,-2.0853,-2.2067,-2.3785,-2.5308,-2.743,-3.0065,-3.2475,-3.5577,-3.9269,-4.2709,-4.5592,-4.7606,-4.8026,-4.8812,-5.0461,-5.1793,-5.2876,-5.4176,-5.5704,-5.7216,-5.8466,-5.9469,-6.0211,-6.1103,-6.1714,-6.2368,-6.3304,-6.4058,-6.477,-6.5919,-6.7512,-6.8182,-6.8661,-6.9918,-7.1015,-7.2499,-7.3948,-7.4329,-7.4926,-7.5078,-7.5548,-7.6374,-7.6446,-7.6153,-7.6361,-7.657,-7.7565,-7.8814,-7.9493,-8.021,-8.1146,-8.2186,-8.2186,-8.2186,-8.215,-8.2113,-8.215,-8.2113,-8.2031,-8.1838,-8.1623,-8.1353,4.7007,4.6658,4.6658,4.6658,4.7007,4.5958,4.5607,4.5412,4.4725,4.4164,4.3631,4.2514,4.181,4.1422,4.0589,4.0024,3.8958,3.7194,3.5876,3.4334,3.2597,3.108,2.9785,2.8625,2.7416,2.6467,2.5403,2.3846,2.1325,1.9825,1.7577,1.4859,1.1526,0.9237,0.7323,0.4704,0.0898,-0.1972,-0.4109,-0.5509,-0.7041,-0.8718,-1.0517,-1.2107,-1.2643,-1.3078,-1.3562,-1.5043,-1.5703,-1.6525,-1.7846,-1.897,-1.9765,-2.0262,-2.1545,-2.3668,-2.5248,-2.7629,-3.0282,-3.276,-3.6286,-4.0864,-4.3982,-4.6001,-4.7473,-4.8264,-4.9515,-5.1142,-5.2849,-5.4121,-5.5676,-5.6991,-5.8276,-5.9392,-6.0241,-6.0897,-6.1512,-6.2116,-6.2576,-6.3383,-6.4481,-6.5437,-6.6924,-6.8439,-6.8803,-6.9186,-7.0574,-7.2011,-7.337,-7.454,-7.4988,-7.5324,-7.551,-7.5836,-7.6554,-7.6409,-7.6115,-7.6538,-7.6995,-7.8031,-7.9135,-7.9925,-8.0678,-8.1644,-8.2186,-8.2186,-8.2186,-8.2186,-8.2186,-8.2186,-8.2141,-8.2059,-8.1855,-8.1575,-8.1303,4.6658,4.6308,4.6308,4.6483,4.6658,4.5939,4.5412,4.5255,4.4548,4.3788,4.3145,4.2334,4.181,4.1422,4.0709,3.9774,3.864,3.6839,3.5503,3.3944,3.2219,3.0713,2.9633,2.8436,2.6993,2.6268,2.5043,2.3477,2.0955,2.0019,1.7211,1.4132,1.1181,0.9061,0.6987,0.3446,-0.0,-0.2512,-0.4287,-0.5709,-0.7071,-0.8701,-1.036,-1.1956,-1.2508,-1.3238,-1.4059,-1.5538,-1.6402,-1.7095,-1.7973,-1.891,-1.9308,-2.002,-2.1221,-2.3223,-2.54,-2.7616,-3.05,-3.4232,-3.7864,-4.1753,-4.4163,-4.5955,-4.7449,-4.8868,-5.0384,-5.2455,-5.3947,-5.5303,-5.6846,-5.7849,-5.8919,-6.0014,-6.0763,-6.141,-6.2016,-6.2513,-6.2905,-6.3421,-6.4699,-6.6028,-6.7647,-6.9233,-7.0617,-7.1001,-7.1943,-7.3037,-7.397,-7.4988,-7.5529,-7.579,-7.6049,-7.6338,-7.6733,-7.6406,-7.6184,-7.7,-7.7565,-7.8456,-7.942,-8.0246,-8.1037,-8.1827,-8.2186,-8.2186,-8.2186,-8.2186,-8.2186,-8.2186,-8.1957,-8.1681,-8.166,-8.144,-8.1252,4.6308,4.6308,4.6308,4.6308,4.6289,4.5744,4.5216,4.4902,4.437,4.3715,4.2874,4.2245,4.1722,4.1283,4.0542,3.9691,3.8657,3.6776,3.5291,3.3959,3.1637,3.0319,2.9392,2.8186,2.6993,2.6222,2.5184,2.3087,1.9834,1.9639,1.6838,1.2999,1.0236,0.8282,0.7381,0.326,-0.0179,-0.2689,-0.4089,-0.5515,-0.7071,-0.8502,-1.0169,-1.1962,-1.2514,-1.3065,-1.4268,-1.5916,-1.6808,-1.7268,-1.8126,-1.8811,-1.9269,-1.9119,-2.0328,-2.2888,-2.5062,-2.8301,-3.2642,-3.7387,-4.0679,-4.2473,-4.4458,-4.6201,-4.7641,-4.9286,-5.1564,-5.3735,-5.4818,-5.6078,-5.7335,-5.8513,-5.9486,-6.0371,-6.1041,-6.1683,-6.2284,-6.2905,-6.3196,-6.3929,-6.5259,-6.6642,-6.8297,-7.0035,-7.2,-7.3008,-7.3677,-7.4245,-7.474,-7.5316,-7.5929,-7.6188,-7.6373,-7.6626,-7.6803,-7.6331,-7.6393,-7.7243,-7.8062,-7.8814,-7.9742,-8.0568,-8.1322,-8.2003,-8.2003,-8.1819,-8.1966,-8.215,-8.2039,-8.1856,-8.1397,-8.1155,-8.1231,-8.1229,-8.0904,4.6483,4.5783,4.6133,4.5958,4.5431,4.5236,4.5059,4.4725,4.4034,4.3269,4.2693,4.2171,4.1664,4.1075,4.0058,3.9241,3.8624,3.6204,3.471,3.393,3.1257,3.0128,2.9239,2.8234,2.7039,2.6268,2.5217,2.3077,1.9639,1.9454,1.639,1.2562,0.8881,0.5839,0.3807,0.1257,-0.0359,-0.2693,-0.3932,-0.5329,-0.6845,-0.8149,-0.9777,-1.2077,-1.2309,-1.2951,-1.4202,-1.5878,-1.6801,-1.7121,-1.7998,-1.8533,-1.9121,-1.9173,-2.0468,-2.3427,-2.6057,-3.0778,-3.6618,-4.169,-4.4058,-4.4492,-4.5165,-4.716,-4.9182,-5.0525,-5.2836,-5.4753,-5.5764,-5.6997,-5.8367,-5.8757,-5.9561,-6.0536,-6.1175,-6.1853,-6.245,-6.3068,-6.3707,-6.4649,-6.5865,-6.8378,-7.0378,-7.1132,-7.2799,-7.3756,-7.4237,-7.4322,-7.4704,-7.5534,-7.6107,-7.6478,-7.6661,-7.6912,-7.6838,-7.64,-7.6321,-7.6958,-7.7989,-7.9026,-7.9888,-8.0744,-8.1065,-8.1452,-8.1452,-8.1415,-8.1636,-8.1782,-8.1709,-8.1517,-8.1129,-8.0886,-8.102,-8.077,-8.0295,4.6483,4.5958,4.5958,4.5783,4.5078,4.4864,4.4687,4.4389,4.3628,4.3054,4.2185,4.1716,4.1171,4.0492,3.9441,3.8942,3.8742,3.6158,3.4478,3.3525,3.1257,3.0128,2.9085,2.808,2.7216,2.6444,2.5228,2.3282,2.0575,1.9454,1.5775,1.1341,0.7713,0.4903,0.2162,0.0359,-0.1256,-0.3049,-0.4107,-0.5327,-0.6848,-0.8338,-0.9797,-1.1617,-1.2577,-1.3043,-1.4161,-1.5409,-1.647,-1.6941,-1.7562,-1.8361,-1.9186,-1.9895,-2.0908,-2.3851,-2.905,-3.3686,-3.9259,-4.3818,-4.5599,-4.6113,-4.7098,-4.8713,-5.0732,-5.2152,-5.3985,-5.568,-5.6566,-5.7715,-5.8722,-5.9077,-5.9814,-6.0681,-6.1582,-6.2284,-6.2939,-6.3548,-6.4333,-6.5321,-6.6718,-6.9441,-7.1745,-7.2638,-7.3466,-7.4132,-7.4723,-7.4735,-7.4851,-7.5783,-7.6399,-7.6552,-7.6913,-7.7235,-7.7052,-7.661,-7.6601,-7.6777,-7.785,-7.9135,-7.9735,-8.0451,-8.0727,-8.0828,-8.0718,-8.0755,-8.1195,-8.1379,-8.1525,-8.1406,-8.1019,-8.0874,-8.0822,-8.057,-8.0184,4.6308,4.6133,4.5763,4.5607,4.5412,4.4649,4.3978,4.3573,4.3361,4.2583,4.136,4.0794,4.0342,3.974,3.8408,3.8408,3.8391,3.5972,3.4666,3.3337,3.1257,3.0128,2.9024,2.796,2.7381,2.655,2.5532,2.4031,2.1704,1.8786,1.4547,1.0165,0.7313,0.4523,0.1797,-0.0538,-0.2154,-0.3047,-0.3748,-0.5157,-0.6536,-0.835,-1.0047,-1.1567,-1.2734,-1.3566,-1.4479,-1.5569,-1.651,-1.7123,-1.7716,-1.8356,-1.8967,-1.9728,-2.148,-2.5477,-3.2413,-3.6775,-4.082,-4.4982,-4.7351,-4.8558,-5.0052,-5.0913,-5.2044,-5.3447,-5.5111,-5.62,-5.6927,-5.7892,-5.8847,-5.947,-6.0106,-6.1099,-6.2085,-6.2776,-6.3548,-6.4207,-6.4976,-6.6001,-6.7235,-6.9301,-7.1106,-7.231,-7.3315,-7.394,-7.4416,-7.4709,-7.5182,-7.6542,-7.6869,-7.6517,-7.6949,-7.7523,-7.7266,-7.6606,-7.6565,-7.6668,-7.8062,-7.9208,-7.9771,-8.0076,-8.0287,-8.0314,-7.9984,-8.0057,-8.0571,-8.1085,-8.1627,-8.136,-8.0919,-8.0874,-8.0799,-8.0807,-8.0555,4.6133,4.5783,4.5607,4.5236,4.4548,4.3997,4.3774,4.3724,4.3087,4.2144,4.1161,3.9891,3.9474,3.9707,3.8408,3.8391,3.7639,3.6344,3.4464,3.2772,3.1257,2.9949,2.887,2.8246,2.7628,2.6993,2.5982,2.4215,2.1248,1.7949,1.3364,0.8852,0.7457,0.4864,0.2156,-0.0718,-0.1796,-0.2692,-0.3216,-0.4635,-0.6039,-0.7534,-0.9435,-1.1134,-1.2656,-1.3521,-1.4312,-1.5211,-1.5986,-1.6284,-1.7372,-1.8173,-1.8867,-2.0995,-2.3755,-3.062,-3.57,-3.969,-4.3075,-4.657,-4.9221,-5.0732,-5.2242,-5.3298,-5.4055,-5.4714,-5.5939,-5.6849,-5.7375,-5.8218,-5.9214,-5.9906,-6.0599,-6.1496,-6.2513,-6.3357,-6.4053,-6.4983,-6.5769,-6.732,-6.852,-6.9323,-7.1042,-7.1798,-7.273,-7.3456,-7.4145,-7.4577,-7.533,-7.6691,-7.6981,-7.659,-7.6912,-7.7557,-7.7047,-7.6384,-7.642,-7.6705,-7.8092,-7.8909,-7.8865,-7.9206,-7.97,-7.9764,-7.9396,-7.958,-7.9984,-8.0534,-8.1149,-8.1195,-8.0892,-8.0886,-8.0812,-8.0785,-8.0555,4.6133,4.5958,4.5607,4.4977,4.3862,4.336,4.2997,4.2689,4.2364,4.1585,4.0393,3.8966,3.8651,3.8791,3.7671,3.747,3.8208,3.5972,3.4291,3.3149,3.1067,2.9937,2.9098,2.8331,2.7864,2.7239,2.6237,2.4844,2.1607,1.688,1.2329,0.8978,0.7768,0.5393,0.2874,0.1261,-0.018,-0.1438,-0.251,-0.3753,-0.5157,-0.6542,-0.8436,-1.0524,-1.2056,-1.3153,-1.4129,-1.5024,-1.544,-1.5866,-1.6936,-1.8032,-1.9812,-2.3005,-2.7158,-3.348,-3.7766,-4.1228,-4.4432,-4.7863,-5.0223,-5.2111,-5.3791,-5.4856,-5.5246,-5.5758,-5.6878,-5.788,-5.8038,-5.8398,-5.9497,-6.0536,-6.1215,-6.1885,-6.2873,-6.3865,-6.4708,-6.5657,-6.7012,-6.8631,-6.9565,-7.014,-7.0909,-7.1488,-7.2171,-7.2996,-7.3967,-7.4828,-7.551,-7.655,-7.6589,-7.6158,-7.6838,-7.7447,-7.6859,-7.6378,-7.6481,-7.6802,-7.7757,-7.839,-7.8135,-7.8336,-7.893,-7.8993,-7.8809,-7.9103,-7.9433,-7.9984,-8.0461,-8.0571,-8.0561,-8.0333,-8.0382,-8.0762,-8.0385,4.6308,4.6308,4.5783,4.4539,4.3235,4.2672,4.197,4.1035,4.117,4.0697,3.9373,3.7899,3.7383,3.7533,3.673,3.6915,3.6915,3.5413,3.4291,3.3728,3.1257,2.9746,2.9289,2.8496,2.7816,2.739,2.6376,2.4583,2.2118,1.7596,1.2829,0.964,0.7937,0.5565,0.3053,0.2898,0.1448,-0.0719,-0.1978,-0.3234,-0.4651,-0.6047,-0.7618,-0.9969,-1.1533,-1.2565,-1.3892,-1.4815,-1.5352,-1.5881,-1.6936,-1.8339,-2.2417,-2.6427,-3.1104,-3.5366,-4.0021,-4.3085,-4.5934,-4.8825,-5.083,-5.2697,-5.4544,-5.5637,-5.6238,-5.6554,-5.7487,-5.856,-5.8942,-5.9618,-6.0659,-6.1392,-6.2066,-6.2805,-6.3548,-6.4649,-6.579,-6.6872,-6.8315,-6.9485,-6.9776,-7.0307,-7.0323,-7.0863,-7.1364,-7.2398,-7.3399,-7.4401,-7.5548,-7.6444,-7.6446,-7.6049,-7.6764,-7.7333,-7.6714,-7.6378,-7.6548,-7.6971,-7.7778,-7.787,-7.7614,-7.7814,-7.8185,-7.8259,-7.8332,-7.8552,-7.8883,-7.9396,-7.9764,-8.0047,-7.9963,-7.9609,-7.9865,-8.0258,-8.0052,4.6308,4.6308,4.5431,4.4071,4.2334,4.2171,4.1301,4.0125,3.9282,3.8926,3.8222,3.6807,3.6356,3.6777,3.5801,3.5987,3.6746,3.5054,3.3916,3.2974,3.1257,2.9899,2.9276,2.8375,2.7733,2.7121,2.5891,2.3677,2.0308,1.6431,1.2993,0.9264,0.757,0.5562,0.2513,0.2901,0.1813,-0.0359,-0.1264,-0.2706,-0.4303,-0.5728,-0.7328,-0.9299,-1.0692,-1.2461,-1.3755,-1.4999,-1.5881,-1.6761,-1.8506,-2.1656,-2.6492,-3.071,-3.4772,-3.9022,-4.2654,-4.5266,-4.7355,-4.9469,-5.1359,-5.2771,-5.4357,-5.6042,-5.6966,-5.7291,-5.7988,-5.9168,-6.0106,-6.0844,-6.165,-6.2355,-6.2956,-6.3645,-6.43,-6.5601,-6.694,-6.8232,-6.9554,-6.9845,-6.998,-6.9963,-6.998,-7.0305,-7.0768,-7.1479,-7.2369,-7.3439,-7.4869,-7.5872,-7.6554,-7.6373,-7.6939,-7.7149,-7.6668,-7.6445,-7.6614,-7.6927,-7.7559,-7.7468,-7.7166,-7.7437,-7.7781,-7.7855,-7.7928,-7.8148,-7.8369,-7.8662,-7.8993,-7.9276,-7.9326,-7.897,-7.9113,-7.949,-7.924,4.6308,4.6114,4.5059,4.3623,4.2012,4.1291,4.0385,3.9158,3.8031,3.7367,3.7211,3.6012,3.575,3.6188,3.504,3.5256,3.6204,3.4305,3.3756,3.2988,3.1434,3.0203,2.9267,2.829,2.7661,2.684,2.4529,2.1797,1.8516,1.5405,1.2181,0.9212,0.7363,0.5025,0.1976,0.1811,0.0907,-0.018,-0.0906,-0.1991,-0.3593,-0.502,-0.6448,-0.8234,-1.0016,-1.1971,-1.3748,-1.5168,-1.6401,-1.8479,-2.0722,-2.4951,-2.9478,-3.3842,-3.7538,-4.1088,-4.4371,-4.7334,-4.8718,-5.027,-5.1906,-5.3091,-5.4641,-5.6496,-5.754,-5.7978,-5.9152,-6.0138,-6.0373,-6.1076,-6.2126,-6.2873,-6.3738,-6.4447,-6.5504,-6.6761,-6.7755,-6.8808,-6.9671,-6.9966,-6.9957,-6.9652,-6.9698,-6.9882,-7.0379,-7.0841,-7.1658,-7.3368,-7.4655,-7.5621,-7.6195,-7.6587,-7.7011,-7.6968,-7.6492,-7.6445,-7.6578,-7.6992,-7.7404,-7.7348,-7.7217,-7.7279,-7.7378,-7.7524,-7.7635,-7.7745,-7.7965,-7.8148,-7.8112,-7.8222,-7.8333,-7.833,-7.8581,-7.8771,-7.8647,4.6133,4.5958,4.4687,4.3248,4.1814,4.0368,3.9291,3.8408,3.7301,3.656,3.6234,3.5524,3.5276,3.5128,3.4867,3.5099,3.4926,3.3756,3.338,3.3002,3.1284,3.0178,2.9243,2.8302,2.6818,2.4932,2.2678,2.058,1.8027,1.5132,1.2298,0.95,0.6984,0.4664,0.2159,-0.0362,-0.1995,-0.0722,-0.0723,-0.1628,-0.2702,-0.3947,-0.5915,-0.7699,-0.9482,-1.1438,-1.3565,-1.5337,-1.692,-2.0346,-2.3904,-2.8538,-3.2906,-3.7209,-4.0225,-4.369,-4.6463,-4.8557,-4.9658,-5.1015,-5.2396,-5.3625,-5.5352,-5.6793,-5.7858,-5.9105,-6.0183,-6.0855,-6.1121,-6.1687,-6.2748,-6.37,-6.4597,-6.5525,-6.6711,-6.7646,-6.8542,-6.9296,-6.9771,-7.0091,-6.9933,-6.959,-6.9631,-6.9812,-7.0309,-7.0664,-7.1764,-7.3475,-7.494,-7.5693,-7.6338,-7.6445,-7.6617,-7.6502,-7.6311,-7.6475,-7.6643,-7.6874,-7.7212,-7.7228,-7.7243,-7.7243,-7.7341,-7.7341,-7.7451,-7.7561,-7.7524,-7.7598,-7.7488,-7.7524,-7.7805,-7.8057,-7.8137,-7.829,-7.835,4.5783,4.5078,4.451,4.3069,4.1454,4.0186,3.9291,3.8224,3.6915,3.6359,3.6017,3.5286,3.4724,3.4882,3.4291,3.4508,3.4897,3.3525,3.3337,3.3351,3.1165,3.0088,2.9093,2.7286,2.4725,2.2697,2.073,1.9088,1.7222,1.4903,1.2454,1.0035,0.7167,0.4126,0.0719,-0.1447,-0.2542,-0.1445,-0.1445,-0.2353,-0.3237,-0.4662,-0.6273,-0.8056,-0.9838,-1.232,-1.4618,-1.621,-1.8654,-2.2417,-2.7252,-3.232,-3.6599,-4.0584,-4.3718,-4.6139,-4.8985,-5.0208,-5.1532,-5.2126,-5.3217,-5.4496,-5.6084,-5.7393,-5.868,-6.0352,-6.1277,-6.2116,-6.2555,-6.3228,-6.4244,-6.5023,-6.5935,-6.6963,-6.8056,-6.8418,-6.8968,-6.9485,-6.9922,-7.0108,-7.0082,-6.9912,-6.9809,-7.0309,-7.1197,-7.1765,-7.2691,-7.4297,-7.5367,-7.6015,-7.6482,-7.6409,-7.6331,-7.6461,-7.6445,-7.6541,-7.6773,-7.6929,-7.7118,-7.7181,-7.7243,-7.7243,-7.7341,-7.7341,-7.7341,-7.7378,-7.7341,-7.7341,-7.7341,-7.7414,-7.768,-7.7857,-7.7879,-7.7994,-7.8221]},{"header":{"parameterUnit":"m.s-1","parameterCategory":1,"la1":31.0,"la2":29.5877,"lo1":-88.7671,"lo2":-86.6584,"dy":0.0162,"dx":0.0185,"nx":115,"ny":88,"refTime":"2023-03-17T06:00:00:Z","depth":0,"parameterNumber":3,"parameterNumberName":"V-component_of_WINDS"},"data":[0.0,0.0,0.0,0.0,0.0,0.0,0.0,0.0,0.0,0.0,0.0,0.0,0.0,0.0,0.0,0.0,0.0,0.0,0.0,0.0,0.0,0.0,0.0,0.0,0.0,0.0,0.0,0.0,0.0,0.0,0.0,0.0,0.0,0.0,0.0,0.0,0.0,0.0,0.0,0.0,0.0,0.0,0.0,0.0,0.0,0.0,0.0,0.0,0.0,0.0,0.0,0.0,0.0,0.0,0.0,0.0,0.0,0.0,0.0,0.0,0.0,0.0,0.0,0.0,0.0,0.0,0.0,0.0,0.0,0.0,0.0,0.0,0.0,0.0,0.0,0.0,0.0,0.0,0.0,0.0,0.0,0.0,0.0,0.0,0.0,0.0,0.0,0.0,0.0,0.0,0.0,0.0,0.0,0.0,0.0,0.0,0.0,0.0,0.0,0.0,0.0,0.0,0.0,0.0,0.0,0.0,0.0,0.0,0.0,0.0,0.0,0.0,0.0,0.0,0.0,0.0,0.0,0.0,0.0,0.0,0.0,0.0,0.0,0.0,0.0,0.0,0.0,0.0,0.0,0.0,0.0,0.0,0.0,0.0,0.0,0.0,0.0,0.0,0.0,0.0,0.0,0.0,0.0,0.0,0.0,0.0,0.0,0.0,0.0,0.0,0.0,0.0,0.0,0.0,0.0,0.0,0.0,0.0,0.0,0.0,0.0,0.0,0.0,0.0,0.0,0.0,0.0,0.0,0.0,0.0,0.0,0.0,0.0,0.0,0.0,0.0,0.0,0.0,0.0,0.0,0.0,0.0,0.0,0.0,0.0,0.0,0.0,0.0,0.0,0.0,0.0,0.0,0.0,0.0,0.0,0.0,0.0,0.0,0.0,0.0,0.0,0.0,0.0,0.0,0.0,0.0,0.0,0.0,0.0,0.0,0.0,0.0,0.0,0.0,0.0,0.0,0.0,0.0,0.0,0.0,0.0,0.0,0.0,0.0,0.0,0.0,0.0,0.0,0.0,0.0,0.0,0.0,0.0,0.0,0.0,0.0,0.0,0.0,0.0,0.0,0.0,0.0,0.0,0.0,0.0,0.0,0.0,0.0,0.0,0.0,0.0,0.0,0.0,0.0,0.0,0.0,0.0,0.0,0.0,0.0,0.0,0.0,0.0,0.0,0.0,0.0,0.0,0.0,0.0,0.0,0.0,0.0,0.0,0.0,0.0,0.0,0.0,0.0,0.0,0.0,0.0,0.0,0.0,0.0,0.0,0.0,0.0,0.0,0.0,0.0,0.0,0.0,0.0,0.0,0.0,0.0,0.0,0.0,0.0,0.0,0.0,0.0,0.0,0.0,0.0,0.0,0.0,0.0,0.0,0.0,0.0,0.0,0.0,0.0,0.0,0.0,0.0,0.0,0.0,0.0,0.0,0.0,0.0,0.0,0.0,0.0,0.0,0.0,0.0,0.0,0.0,0.0,0.0,0.0,0.0,0.0,0.0,0.0,0.0,0.0,0.0,0.0,0.0,0.0,0.0,0.0,0.0,0.0,0.0,0.0,0.0,0.0,0.0,0.0,0.0,0.0,0.0,0.0,0.0,0.0,0.0,0.0,0.0,0.0,0.0,0.0,0.0,0.0,0.0,0.0,0.0,0.0,0.0,0.0,0.0,0.0,0.0,0.0,0.0,0.0,0.0,0.0,0.0,0.0,0.0,0.0,0.0,0.0,0.0,0.0,0.0,0.0,0.0,0.0,0.0,0.0,0.0,0.0,0.0,0.0,0.0,0.0,0.0,0.0,0.0,0.0,0.0,0.0,0.0,0.0,0.0,0.0,0.0,0.0,0.0,0.0,0.0,0.0,0.0,0.0,0.0,0.0,0.0,0.0,0.0,0.0,0.0,0.0,0.0,0.0,0.0,0.0,0.0,0.0,0.0,0.0,0.0,0.0,0.0,0.0,0.0,0.0,0.0,0.0,0.0,0.0,0.0,0.0,0.0,0.0,0.0,0.0,0.0,0.0,0.0,0.0,0.0,0.0,0.0,0.0,0.0,0.0,0.0,0.0,0.0,0.0,0.0,0.0,0.0,0.0,0.0,0.0,0.0,0.0,0.0,0.0,0.0,0.0,0.0,0.0,0.0,0.0,0.0,0.0,0.0,0.0,0.0,0.0,0.0,0.0,0.0,0.0,0.0,0.0,0.0,0.0,0.0,0.0,0.0,0.0,0.0,0.0,0.0,0.0,0.0,0.0,0.0,0.0,0.0,0.0,0.0,0.0,0.0,0.0,0.0,0.0,0.0,0.0,0.0,0.0,0.0,0.0,0.0,0.0,0.0,0.0,0.0,0.0,0.0,0.0,0.0,0.0,0.0,0.0,0.0,0.0,0.0,0.0,0.0,0.0,0.0,0.0,0.0,0.0,0.0,0.0,0.0,0.0,0.0,0.0,0.0,0.0,0.0,0.0,0.0,0.0,0.0,0.0,0.0,0.0,0.0,0.0,0.0,0.0,0.0,0.0,0.0,0.0,0.0,0.0,0.0,0.0,0.0,0.0,0.0,0.0,0.0,0.0,0.0,0.0,0.0,0.0,0.0,0.0,0.0,0.0,0.0,0.0,0.0,0.0,0.0,0.0,0.0,0.0,0.0,0.0,0.0,0.0,0.0,0.0,0.0,0.0,0.0,0.0,0.0,0.0,0.0,0.0,0.0,0.0,0.0,0.0,0.0,0.0,0.0,0.0,0.0,0.0,0.0,0.0,0.0,0.0,0.0,0.0,0.0,0.0,0.0,0.0,0.0,0.0,0.0,0.0,0.0,0.0,0.0,0.0,0.0,0.0,0.0,0.0,0.0,0.0,0.0,0.0,0.0,0.0,0.0,0.0,0.0,0.0,0.0,0.0,0.0,0.0,0.0,0.0,0.0,0.0,0.0,0.0,0.0,0.0,0.0,0.0,0.0,0.0,0.0,0.0,0.0,0.0,0.0,0.0,0.0,0.0,0.0,0.0,0.0,0.0,0.0,0.0,0.0,0.0,0.0,0.0,0.0,0.0,0.0,0.0,0.0,0.0,0.0,0.0,0.0,0.0,0.0,0.0,0.0,0.0,0.0,0.0,0.0,0.0,0.0,0.0,0.0,0.0,0.0,0.0,0.0,0.0,0.0,0.0,0.0,0.0,0.0,0.0,0.0,0.0,0.0,0.0,0.0,0.0,0.0,0.0,0.0,0.0,0.0,0.0,0.0,0.0,0.0,0.0,0.0,0.0,0.0,0.0,0.0,0.0,0.0,0.0,0.0,0.0,0.0,0.0,0.0,0.0,0.0,0.0,0.0,0.0,0.0,0.0,0.0,0.0,0.0,0.0,0.0,0.0,0.0,0.0,0.0,0.0,0.0,0.0,0.0,0.0,0.0,0.0,0.0,0.0,0.0,0.0,0.0,0.0,0.0,0.0,0.0,0.0,0.0,0.0,0.0,0.0,0.0,0.0,0.0,0.0,0.0,0.0,0.0,0.0,0.0,0.0,0.0,0.0,0.0,0.0,0.0,0.0,0.0,0.0,0.0,0.0,0.0,0.0,0.0,0.0,0.0,0.0,0.0,0.0,0.0,0.0,0.0,0.0,0.0,0.0,0.0,0.0,0.0,0.0,0.0,0.0,0.0,0.0,0.0,0.0,0.0,0.0,0.0,0.0,0.0,0.0,0.0,0.0,0.0,0.0,0.0,0.0,0.0,0.0,0.0,0.0,0.0,0.0,0.0,0.0,0.0,0.0,0.0,0.0,0.0,0.0,0.0,0.0,0.0,0.0,0.0,0.0,0.0,0.0,0.0,0.0,0.0,0.0,0.0,0.0,0.0,0.0,0.0,0.0,0.0,0.0,0.0,0.0,0.0,0.0,0.0,0.0,0.0,0.0,0.0,0.0,0.0,0.0,0.0,0.0,0.0,0.0,0.0,0.0,0.0,0.0,0.0,0.0,0.0,0.0,0.0,0.0,0.0,0.0,0.0,0.0,0.0,0.0,0.0,0.0,0.0,0.0,0.0,0.0,0.0,0.0,0.0,0.0,0.0,0.0,0.0,0.0,0.0,0.0,0.0,0.0,0.0,0.0,0.0,0.0,0.0,0.0,0.0,0.0,0.0,0.0,0.0,0.0,0.0,0.0,0.0,0.0,0.0,0.0,0.0,0.0,0.0,0.0,0.0,0.0,0.0,0.0,0.0,0.0,0.0,0.0,0.0,0.0,0.0,0.0,0.0,0.0,0.0,0.0,0.0,0.0,0.0,0.0,0.0,0.0,-4.8547,0.0,0.0,0.0,0.0,0.0,0.0,0.0,0.0,0.0,0.0,0.0,0.0,0.0,0.0,0.0,0.0,0.0,0.0,0.0,0.0,0.0,0.0,0.0,0.0,0.0,0.0,0.0,0.0,0.0,0.0,0.0,0.0,0.0,0.0,0.0,0.0,0.0,0.0,0.0,0.0,0.0,0.0,0.0,0.0,0.0,0.0,0.0,0.0,0.0,0.0,0.0,0.0,0.0,0.0,0.0,0.0,0.0,0.0,0.0,0.0,0.0,0.0,0.0,0.0,0.0,0.0,0.0,0.0,0.0,0.0,0.0,0.0,0.0,0.0,0.0,0.0,0.0,0.0,0.0,0.0,0.0,0.0,0.0,0.0,0.0,0.0,0.0,0.0,0.0,0.0,0.0,0.0,0.0,0.0,0.0,0.0,0.0,0.0,0.0,0.0,0.0,0.0,0.0,0.0,0.0,0.0,0.0,0.0,0.0,0.0,-4.7861,-4.8292,-4.861,-4.8938,-4.9312,0.0,0.0,0.0,0.0,0.0,0.0,0.0,0.0,0.0,0.0,0.0,0.0,0.0,0.0,0.0,0.0,0.0,0.0,0.0,0.0,0.0,0.0,0.0,0.0,0.0,0.0,0.0,0.0,0.0,0.0,0.0,0.0,0.0,0.0,0.0,0.0,0.0,0.0,0.0,0.0,0.0,0.0,0.0,0.0,0.0,0.0,0.0,0.0,0.0,0.0,0.0,0.0,0.0,0.0,0.0,0.0,0.0,0.0,0.0,0.0,0.0,0.0,0.0,0.0,0.0,0.0,0.0,0.0,0.0,0.0,0.0,0.0,0.0,0.0,0.0,0.0,0.0,0.0,0.0,0.0,0.0,0.0,0.0,0.0,0.0,0.0,0.0,0.0,0.0,0.0,0.0,0.0,0.0,0.0,0.0,0.0,0.0,0.0,0.0,0.0,0.0,0.0,0.0,0.0,0.0,0.0,0.0,0.0,0.0,0.0,0.0,0.0,-4.8769,-4.9429,-5.0536,0.0,0.0,0.0,0.0,0.0,0.0,0.0,0.0,0.0,0.0,0.0,0.0,0.0,0.0,0.0,0.0,0.0,0.0,0.0,0.0,0.0,0.0,0.0,0.0,0.0,0.0,0.0,0.0,0.0,0.0,0.0,0.0,0.0,0.0,0.0,0.0,0.0,0.0,0.0,0.0,0.0,0.0,0.0,0.0,0.0,0.0,0.0,0.0,0.0,0.0,0.0,0.0,0.0,0.0,0.0,0.0,0.0,0.0,0.0,0.0,0.0,0.0,0.0,0.0,0.0,0.0,0.0,0.0,0.0,0.0,0.0,0.0,0.0,0.0,0.0,0.0,0.0,0.0,0.0,0.0,0.0,0.0,0.0,0.0,0.0,0.0,0.0,0.0,0.0,0.0,0.0,0.0,0.0,0.0,0.0,0.0,0.0,0.0,0.0,0.0,0.0,0.0,0.0,0.0,0.0,0.0,0.0,0.0,0.0,0.0,-4.8289,-4.8066,-4.8962,0.0,-5.2207,0.0,0.0,0.0,0.0,0.0,0.0,0.0,0.0,0.0,0.0,0.0,0.0,0.0,0.0,0.0,0.0,0.0,0.0,0.0,0.0,0.0,0.0,0.0,0.0,0.0,0.0,0.0,0.0,0.0,0.0,0.0,0.0,0.0,0.0,0.0,0.0,0.0,0.0,0.0,0.0,0.0,0.0,0.0,0.0,0.0,0.0,0.0,0.0,0.0,0.0,0.0,0.0,0.0,0.0,0.0,0.0,0.0,0.0,0.0,0.0,0.0,0.0,0.0,0.0,0.0,0.0,0.0,0.0,0.0,0.0,0.0,0.0,0.0,0.0,0.0,0.0,0.0,0.0,0.0,0.0,0.0,0.0,0.0,0.0,0.0,0.0,0.0,0.0,0.0,0.0,0.0,0.0,0.0,0.0,0.0,0.0,0.0,0.0,0.0,0.0,0.0,0.0,0.0,0.0,0.0,0.0,0.0,0.0,0.0,0.0,-4.8312,-4.9409,-5.0541,-5.1697,0.0,0.0,0.0,0.0,0.0,0.0,0.0,0.0,0.0,0.0,0.0,0.0,0.0,0.0,0.0,0.0,0.0,0.0,0.0,0.0,0.0,0.0,0.0,0.0,0.0,0.0,0.0,0.0,0.0,0.0,0.0,0.0,0.0,0.0,0.0,0.0,0.0,0.0,0.0,0.0,0.0,0.0,0.0,0.0,0.0,0.0,0.0,0.0,0.0,0.0,0.0,0.0,0.0,0.0,0.0,0.0,0.0,0.0,0.0,0.0,0.0,0.0,0.0,0.0,0.0,0.0,0.0,0.0,0.0,0.0,0.0,0.0,0.0,0.0,0.0,0.0,0.0,0.0,0.0,0.0,0.0,0.0,0.0,0.0,0.0,0.0,0.0,0.0,0.0,0.0,0.0,0.0,0.0,0.0,0.0,0.0,0.0,0.0,0.0,0.0,0.0,0.0,0.0,0.0,0.0,0.0,0.0,0.0,0.0,0.0,-4.861,-4.9106,-5.0697,-5.1756,-5.2716,-5.353,0.0,0.0,0.0,0.0,0.0,0.0,0.0,0.0,0.0,0.0,0.0,0.0,0.0,0.0,0.0,0.0,0.0,0.0,0.0,0.0,0.0,0.0,0.0,0.0,0.0,0.0,0.0,0.0,0.0,0.0,0.0,0.0,0.0,0.0,0.0,0.0,0.0,0.0,0.0,0.0,0.0,0.0,0.0,0.0,0.0,0.0,0.0,0.0,0.0,0.0,0.0,0.0,0.0,0.0,0.0,0.0,0.0,0.0,0.0,0.0,0.0,0.0,0.0,0.0,0.0,0.0,0.0,0.0,0.0,0.0,0.0,0.0,0.0,0.0,0.0,0.0,0.0,0.0,0.0,0.0,0.0,0.0,0.0,0.0,0.0,0.0,0.0,0.0,0.0,0.0,0.0,0.0,0.0,0.0,0.0,0.0,0.0,0.0,0.0,0.0,0.0,0.0,0.0,0.0,0.0,0.0,0.0,0.0,-4.9653,-5.0191,-5.0858,-5.1647,-5.2094,-5.298,0.0,0.0,0.0,0.0,0.0,0.0,0.0,0.0,0.0,0.0,0.0,0.0,0.0,0.0,0.0,0.0,0.0,0.0,0.0,0.0,0.0,0.0,0.0,0.0,0.0,0.0,0.0,0.0,0.0,0.0,0.0,0.0,0.0,0.0,0.0,0.0,0.0,0.0,0.0,0.0,0.0,0.0,0.0,0.0,0.0,0.0,0.0,0.0,0.0,0.0,0.0,0.0,0.0,0.0,0.0,0.0,0.0,0.0,0.0,0.0,0.0,0.0,0.0,0.0,0.0,0.0,0.0,0.0,0.0,0.0,0.0,0.0,0.0,0.0,0.0,0.0,0.0,0.0,0.0,0.0,0.0,0.0,0.0,0.0,0.0,0.0,0.0,0.0,0.0,0.0,0.0,0.0,0.0,0.0,0.0,0.0,0.0,0.0,0.0,0.0,0.0,0.0,0.0,0.0,0.0,0.0,0.0,0.0,0.0,-5.0781,-5.1555,-5.1928,-5.2126,-5.2935,-5.3817,0.0,0.0,0.0,0.0,0.0,0.0,0.0,0.0,0.0,0.0,0.0,0.0,0.0,0.0,0.0,0.0,0.0,0.0,0.0,0.0,0.0,0.0,0.0,0.0,0.0,0.0,0.0,0.0,0.0,0.0,0.0,0.0,0.0,0.0,0.0,0.0,0.0,0.0,0.0,0.0,0.0,0.0,0.0,0.0,0.0,0.0,0.0,0.0,0.0,0.0,0.0,0.0,0.0,0.0,0.0,0.0,0.0,0.0,0.0,0.0,0.0,0.0,0.0,0.0,0.0,0.0,0.0,0.0,0.0,0.0,0.0,0.0,0.0,0.0,0.0,0.0,0.0,0.0,0.0,0.0,0.0,0.0,0.0,0.0,0.0,0.0,0.0,0.0,0.0,0.0,0.0,0.0,0.0,0.0,0.0,0.0,0.0,0.0,0.0,0.0,0.0,0.0,0.0,0.0,0.0,0.0,0.0,0.0,0.0,-5.1993,0.0,-5.2804,-5.2901,-5.3639,-5.4406,0.0,0.0,0.0,0.0,0.0,0.0,0.0,0.0,0.0,0.0,0.0,0.0,0.0,0.0,0.0,0.0,0.0,0.0,0.0,0.0,0.0,0.0,0.0,0.0,0.0,0.0,0.0,0.0,0.0,0.0,0.0,0.0,0.0,0.0,0.0,0.0,0.0,0.0,0.0,0.0,0.0,0.0,0.0,0.0,0.0,0.0,0.0,0.0,0.0,0.0,0.0,0.0,0.0,0.0,0.0,0.0,0.0,0.0,0.0,0.0,0.0,0.0,0.0,0.0,0.0,0.0,0.0,0.0,0.0,0.0,0.0,0.0,0.0,0.0,0.0,0.0,0.0,0.0,0.0,0.0,0.0,0.0,0.0,0.0,0.0,0.0,0.0,0.0,0.0,0.0,0.0,0.0,0.0,0.0,0.0,0.0,0.0,0.0,0.0,0.0,0.0,0.0,0.0,0.0,0.0,0.0,0.0,0.0,-5.2572,-5.3213,-5.3213,-5.3483,-5.398,-5.4299,-5.46,0.0,0.0,0.0,0.0,0.0,0.0,0.0,0.0,0.0,0.0,0.0,0.0,0.0,0.0,0.0,0.0,0.0,0.0,0.0,0.0,0.0,0.0,0.0,0.0,0.0,0.0,0.0,0.0,0.0,0.0,0.0,0.0,0.0,0.0,0.0,0.0,0.0,0.0,0.0,0.0,0.0,0.0,0.0,0.0,0.0,0.0,0.0,0.0,0.0,0.0,0.0,0.0,0.0,0.0,0.0,0.0,0.0,0.0,0.0,0.0,0.0,0.0,0.0,0.0,0.0,0.0,0.0,0.0,0.0,0.0,0.0,0.0,0.0,0.0,0.0,0.0,0.0,0.0,0.0,0.0,0.0,0.0,0.0,0.0,0.0,0.0,0.0,0.0,0.0,0.0,0.0,0.0,0.0,0.0,0.0,0.0,0.0,0.0,0.0,0.0,0.0,0.0,0.0,0.0,0.0,0.0,0.0,0.0,0.0,-5.355,-5.4011,-5.4269,-5.4367,-5.5009,-5.5482,0.0,0.0,0.0,0.0,0.0,0.0,0.0,0.0,0.0,0.0,0.0,0.0,0.0,0.0,0.0,0.0,0.0,0.0,0.0,0.0,0.0,0.0,0.0,0.0,0.0,0.0,0.0,0.0,0.0,0.0,0.0,0.0,0.0,0.0,0.0,0.0,0.0,0.0,0.0,0.0,0.0,0.0,0.0,0.0,0.0,0.0,0.0,0.0,0.0,0.0,0.0,0.0,0.0,0.0,0.0,0.0,0.0,0.0,0.0,0.0,0.0,0.0,0.0,0.0,0.0,0.0,0.0,0.0,0.0,0.0,0.0,0.0,0.0,0.0,0.0,0.0,0.0,0.0,0.0,0.0,0.0,0.0,0.0,0.0,0.0,0.0,0.0,0.0,0.0,0.0,0.0,0.0,0.0,0.0,0.0,0.0,0.0,0.0,0.0,0.0,0.0,0.0,0.0,0.0,0.0,0.0,0.0,0.0,0.0,-5.4205,-5.446,-5.471,-5.4834,-5.5601,-5.6043,-5.6217,0.0,0.0,0.0,0.0,0.0,0.0,0.0,0.0,0.0,0.0,0.0,0.0,0.0,0.0,0.0,0.0,0.0,0.0,0.0,0.0,0.0,0.0,0.0,0.0,0.0,0.0,0.0,0.0,0.0,0.0,0.0,0.0,0.0,0.0,0.0,0.0,0.0,0.0,0.0,0.0,0.0,0.0,0.0,0.0,0.0,0.0,0.0,0.0,0.0,0.0,0.0,0.0,0.0,0.0,0.0,0.0,0.0,0.0,0.0,0.0,0.0,0.0,0.0,0.0,0.0,0.0,0.0,0.0,0.0,0.0,0.0,0.0,0.0,0.0,0.0,0.0,0.0,0.0,0.0,0.0,0.0,0.0,0.0,0.0,0.0,0.0,0.0,0.0,0.0,0.0,0.0,0.0,0.0,0.0,0.0,0.0,0.0,0.0,0.0,0.0,0.0,0.0,0.0,0.0,0.0,0.0,0.0,0.0,-5.5061,-5.478,-5.493,-5.5461,-5.6126,-5.6381,0.0,0.0,0.0,0.0,0.0,0.0,0.0,0.0,0.0,0.0,0.0,0.0,0.0,0.0,0.0,0.0,0.0,0.0,0.0,0.0,0.0,0.0,0.0,0.0,0.0,0.0,0.0,0.0,0.0,0.0,0.0,0.0,0.0,0.0,0.0,0.0,0.0,0.0,0.0,0.0,0.0,0.0,0.0,0.0,0.0,0.0,0.0,0.0,0.0,0.0,0.0,0.0,0.0,0.0,0.0,0.0,0.0,0.0,0.0,0.0,0.0,0.0,0.0,0.0,0.0,0.0,0.0,0.0,0.0,0.0,0.0,0.0,0.0,0.0,0.0,0.0,0.0,0.0,0.0,0.0,0.0,0.0,0.0,0.0,0.0,0.0,0.0,0.0,0.0,0.0,0.0,0.0,0.0,0.0,0.0,0.0,0.0,0.0,0.0,0.0,0.0,0.0,0.0,0.0,0.0,0.0,0.0,0.0,0.0,-5.5854,-5.6902,-5.6952,-5.6064,-5.7369,-5.7923,0.0,0.0,0.0,0.0,0.0,0.0,0.0,0.0,0.0,0.0,0.0,0.0,0.0,0.0,0.0,0.0,0.0,0.0,0.0,0.0,0.0,0.0,0.0,0.0,0.0,0.0,0.0,0.0,0.0,0.0,0.0,0.0,0.0,0.0,0.0,0.0,0.0,0.0,0.0,0.0,0.0,0.0,0.0,0.0,0.0,0.0,0.0,0.0,0.0,0.0,0.0,0.0,0.0,0.0,0.0,0.0,0.0,0.0,0.0,0.0,0.0,0.0,0.0,0.0,0.0,0.0,0.0,0.0,0.0,0.0,0.0,0.0,0.0,0.0,0.0,0.0,0.0,0.0,0.0,0.0,0.0,0.0,0.0,0.0,0.0,0.0,0.0,0.0,0.0,0.0,0.0,0.0,0.0,0.0,0.0,0.0,0.0,0.0,0.0,0.0,0.0,0.0,0.0,0.0,0.0,0.0,0.0,0.0,-5.5854,-5.65,-5.7588,-5.7953,-5.7657,-5.8791,-5.9197,0.0,0.0,0.0,0.0,0.0,0.0,0.0,0.0,0.0,0.0,0.0,0.0,0.0,0.0,0.0,0.0,0.0,0.0,0.0,0.0,0.0,0.0,0.0,0.0,0.0,0.0,0.0,0.0,0.0,0.0,0.0,0.0,0.0,0.0,0.0,0.0,0.0,0.0,0.0,0.0,0.0,0.0,0.0,0.0,0.0,0.0,0.0,0.0,0.0,0.0,0.0,0.0,0.0,0.0,0.0,0.0,0.0,0.0,0.0,0.0,0.0,0.0,0.0,0.0,0.0,0.0,0.0,0.0,0.0,0.0,0.0,0.0,0.0,0.0,0.0,0.0,0.0,0.0,0.0,0.0,0.0,0.0,0.0,0.0,0.0,0.0,0.0,0.0,0.0,0.0,0.0,0.0,0.0,0.0,0.0,0.0,0.0,0.0,0.0,0.0,0.0,0.0,0.0,0.0,0.0,0.0,0.0,0.0,-5.5844,-5.7117,-5.7662,-5.8501,-5.9849,-6.0113,-6.025,0.0,0.0,0.0,0.0,0.0,0.0,0.0,0.0,0.0,0.0,0.0,0.0,0.0,0.0,0.0,0.0,0.0,0.0,0.0,0.0,0.0,0.0,0.0,0.0,0.0,0.0,0.0,0.0,0.0,0.0,0.0,0.0,0.0,0.0,0.0,0.0,0.0,0.0,0.0,0.0,0.0,0.0,0.0,0.0,0.0,0.0,0.0,0.0,0.0,0.0,0.0,0.0,0.0,0.0,0.0,0.0,0.0,0.0,0.0,0.0,0.0,0.0,0.0,0.0,0.0,0.0,0.0,0.0,0.0,0.0,0.0,0.0,0.0,0.0,0.0,0.0,0.0,0.0,0.0,0.0,0.0,0.0,0.0,0.0,0.0,0.0,0.0,0.0,0.0,0.0,0.0,0.0,0.0,0.0,0.0,0.0,0.0,0.0,0.0,0.0,0.0,0.0,0.0,0.0,0.0,0.0,0.0,0.0,-5.6676,-5.7776,-5.9081,-6.0413,-6.1798,-6.1006,-6.0789,0.0,0.0,0.0,0.0,0.0,0.0,0.0,0.0,0.0,0.0,0.0,0.0,0.0,0.0,0.0,0.0,0.0,0.0,0.0,0.0,0.0,0.0,0.0,0.0,0.0,0.0,0.0,0.0,0.0,0.0,0.0,0.0,0.0,0.0,0.0,0.0,0.0,0.0,0.0,0.0,0.0,0.0,0.0,0.0,0.0,0.0,0.0,0.0,-5.0001,0.0,0.0,0.0,0.0,0.0,0.0,0.0,0.0,0.0,0.0,0.0,0.0,0.0,0.0,0.0,0.0,0.0,0.0,0.0,0.0,0.0,0.0,0.0,0.0,0.0,0.0,0.0,0.0,0.0,0.0,0.0,0.0,0.0,0.0,0.0,0.0,0.0,0.0,0.0,0.0,0.0,0.0,0.0,0.0,0.0,0.0,0.0,0.0,0.0,0.0,0.0,0.0,0.0,0.0,0.0,0.0,0.0,0.0,0.0,-5.7127,-5.8472,-5.9737,-6.1082,-6.2391,-6.1902,-6.1731,0.0,0.0,0.0,0.0,0.0,0.0,0.0,0.0,0.0,0.0,0.0,0.0,0.0,0.0,0.0,0.0,0.0,0.0,0.0,0.0,0.0,0.0,0.0,0.0,0.0,0.0,0.0,0.0,0.0,0.0,0.0,0.0,0.0,0.0,0.0,0.0,0.0,0.0,0.0,0.0,0.0,0.0,0.0,0.0,0.0,0.0,0.0,0.0,0.0,0.0,0.0,0.0,0.0,0.0,0.0,0.0,0.0,0.0,0.0,0.0,0.0,0.0,0.0,0.0,0.0,0.0,0.0,0.0,0.0,0.0,0.0,0.0,0.0,0.0,0.0,0.0,0.0,0.0,0.0,0.0,0.0,0.0,0.0,0.0,0.0,0.0,0.0,0.0,0.0,0.0,0.0,0.0,0.0,0.0,0.0,0.0,0.0,0.0,0.0,0.0,0.0,0.0,0.0,0.0,0.0,0.0,0.0,-5.635,-5.76,-5.9143,-6.0178,-6.1369,-6.2815,-6.2666,-6.281,-6.3426,0.0,0.0,0.0,0.0,0.0,0.0,0.0,0.0,0.0,0.0,0.0,0.0,0.0,0.0,0.0,0.0,0.0,0.0,0.0,0.0,0.0,0.0,0.0,0.0,0.0,0.0,0.0,0.0,0.0,0.0,0.0,0.0,0.0,0.0,0.0,0.0,0.0,0.0,-5.3796,-5.3121,0.0,0.0,0.0,0.0,0.0,0.0,0.0,0.0,-4.7163,0.0,0.0,0.0,0.0,0.0,0.0,0.0,0.0,0.0,0.0,0.0,0.0,0.0,0.0,0.0,0.0,0.0,0.0,0.0,0.0,0.0,0.0,0.0,0.0,0.0,0.0,0.0,0.0,0.0,0.0,0.0,0.0,0.0,0.0,0.0,0.0,0.0,0.0,0.0,0.0,0.0,0.0,0.0,0.0,0.0,0.0,0.0,0.0,0.0,0.0,0.0,0.0,0.0,0.0,0.0,0.0,-5.6239,-5.7399,-5.865,-5.9916,-6.0594,-6.1989,-6.3996,-6.327,-6.3766,-6.5622,0.0,0.0,0.0,0.0,0.0,0.0,0.0,0.0,0.0,0.0,0.0,0.0,0.0,0.0,0.0,0.0,0.0,0.0,0.0,0.0,0.0,0.0,0.0,0.0,0.0,0.0,0.0,0.0,0.0,0.0,0.0,0.0,0.0,0.0,0.0,0.0,0.0,0.0,0.0,-5.307,-5.3118,0.0,0.0,0.0,0.0,0.0,0.0,0.0,0.0,-4.5701,0.0,0.0,0.0,0.0,0.0,0.0,0.0,0.0,0.0,0.0,0.0,0.0,0.0,0.0,0.0,0.0,0.0,0.0,0.0,0.0,0.0,0.0,0.0,0.0,0.0,0.0,0.0,0.0,0.0,0.0,0.0,0.0,0.0,0.0,0.0,0.0,0.0,0.0,0.0,0.0,0.0,0.0,0.0,0.0,0.0,0.0,0.0,0.0,0.0,0.0,0.0,0.0,0.0,0.0,0.0,-5.6535,-5.7871,-5.9173,-6.0356,-6.1732,-6.3122,-6.4372,-6.4379,-6.5008,0.0,0.0,0.0,0.0,0.0,0.0,0.0,0.0,0.0,0.0,0.0,0.0,0.0,0.0,0.0,0.0,0.0,0.0,0.0,0.0,0.0,0.0,0.0,0.0,0.0,0.0,0.0,0.0,0.0,0.0,0.0,0.0,0.0,0.0,0.0,0.0,0.0,0.0,0.0,0.0,-5.35,-5.3867,-5.5688,0.0,0.0,0.0,0.0,0.0,0.0,-4.7749,-4.6848,0.0,0.0,0.0,0.0,0.0,0.0,0.0,0.0,0.0,0.0,0.0,0.0,0.0,0.0,0.0,0.0,0.0,0.0,0.0,0.0,0.0,0.0,0.0,0.0,0.0,0.0,0.0,0.0,0.0,0.0,0.0,0.0,0.0,0.0,0.0,0.0,0.0,0.0,0.0,0.0,0.0,0.0,0.0,0.0,0.0,0.0,0.0,0.0,0.0,0.0,0.0,0.0,0.0,0.0,0.0,-5.6987,-5.8431,-5.9888,-6.1227,-6.296,-6.4241,-6.5079,-6.5674,-6.6319,0.0,0.0,0.0,0.0,0.0,0.0,0.0,0.0,0.0,0.0,0.0,0.0,0.0,0.0,0.0,0.0,0.0,0.0,0.0,0.0,0.0,0.0,0.0,0.0,0.0,0.0,0.0,0.0,0.0,0.0,0.0,0.0,0.0,0.0,0.0,0.0,0.0,0.0,0.0,0.0,0.0,-5.4607,-5.6184,-5.5287,0.0,0.0,0.0,0.0,-4.9527,-4.906,0.0,0.0,0.0,0.0,0.0,0.0,0.0,0.0,0.0,0.0,0.0,0.0,0.0,0.0,0.0,0.0,0.0,0.0,0.0,0.0,0.0,0.0,0.0,0.0,0.0,0.0,0.0,0.0,0.0,0.0,0.0,0.0,0.0,0.0,0.0,0.0,0.0,0.0,0.0,0.0,0.0,0.0,0.0,0.0,0.0,0.0,0.0,0.0,0.0,0.0,0.0,0.0,0.0,0.0,0.0,0.0,-5.806,-5.9593,-6.1263,-6.3182,-6.3855,-6.509,-6.6984,-6.7086,-6.7321,0.0,0.0,0.0,0.0,0.0,0.0,0.0,0.0,0.0,0.0,0.0,0.0,0.0,0.0,0.0,0.0,0.0,0.0,0.0,0.0,0.0,0.0,0.0,0.0,0.0,0.0,0.0,0.0,0.0,0.0,0.0,0.0,0.0,0.0,0.0,0.0,0.0,0.0,0.0,0.0,0.0,-5.4779,-5.7223,-5.546,-5.3948,0.0,0.0,-5.1989,-5.0238,-5.0621,0.0,0.0,0.0,0.0,0.0,0.0,0.0,0.0,0.0,0.0,0.0,0.0,0.0,0.0,0.0,0.0,0.0,0.0,0.0,0.0,0.0,0.0,0.0,0.0,0.0,0.0,0.0,0.0,0.0,0.0,0.0,0.0,0.0,0.0,0.0,0.0,0.0,0.0,0.0,0.0,0.0,0.0,0.0,0.0,0.0,0.0,0.0,0.0,0.0,0.0,0.0,0.0,0.0,0.0,0.0,-5.7364,-5.8401,-6.0392,-6.2185,-6.3669,-6.5051,-6.6271,-6.7419,-6.7391,-6.7616,0.0,0.0,0.0,0.0,0.0,0.0,0.0,0.0,0.0,0.0,0.0,0.0,0.0,0.0,0.0,0.0,0.0,0.0,0.0,0.0,0.0,0.0,0.0,0.0,0.0,0.0,0.0,0.0,0.0,0.0,0.0,0.0,0.0,0.0,0.0,0.0,0.0,0.0,0.0,0.0,0.0,0.0,-5.6977,-5.5671,0.0,0.0,0.0,-5.3107,-5.2182,0.0,0.0,0.0,0.0,0.0,0.0,0.0,0.0,0.0,0.0,0.0,0.0,0.0,0.0,0.0,0.0,0.0,0.0,0.0,0.0,0.0,0.0,0.0,0.0,0.0,0.0,0.0,0.0,0.0,0.0,0.0,0.0,0.0,0.0,0.0,0.0,0.0,0.0,0.0,0.0,0.0,0.0,0.0,0.0,0.0,0.0,0.0,0.0,0.0,0.0,0.0,0.0,0.0,0.0,0.0,0.0,0.0,-5.9086,-6.1263,-6.3085,-6.4604,-6.6223,-6.7364,-6.7935,-6.7996,0.0,0.0,0.0,0.0,0.0,0.0,0.0,0.0,0.0,0.0,0.0,0.0,0.0,0.0,0.0,0.0,0.0,0.0,0.0,0.0,0.0,0.0,0.0,0.0,0.0,0.0,0.0,-5.6071,0.0,0.0,0.0,0.0,0.0,0.0,0.0,0.0,0.0,0.0,0.0,0.0,0.0,0.0,-5.5992,-5.6531,-5.5932,-5.5598,0.0,0.0,-5.4619,-5.4398,-5.4828,-5.4571,0.0,0.0,0.0,0.0,0.0,0.0,0.0,0.0,0.0,0.0,0.0,0.0,0.0,0.0,0.0,0.0,0.0,0.0,0.0,0.0,0.0,0.0,0.0,0.0,0.0,0.0,0.0,0.0,0.0,0.0,0.0,0.0,0.0,0.0,0.0,0.0,0.0,0.0,0.0,0.0,0.0,0.0,0.0,0.0,0.0,0.0,0.0,0.0,0.0,0.0,0.0,0.0,0.0,0.0,-5.856,-6.089,-6.2166,-6.4081,-6.6592,-6.7205,-6.7987,-6.9053,-6.9626,-6.926,0.0,0.0,0.0,0.0,0.0,0.0,0.0,0.0,0.0,0.0,0.0,0.0,0.0,0.0,0.0,0.0,0.0,0.0,0.0,0.0,0.0,0.0,0.0,0.0,0.0,0.0,0.0,0.0,0.0,0.0,0.0,0.0,0.0,0.0,0.0,0.0,0.0,0.0,0.0,0.0,0.0,-5.5372,-5.6143,-5.6323,-5.6907,0.0,-5.7166,-5.6143,-5.6113,-5.7093,-5.6939,-5.399,0.0,0.0,0.0,0.0,0.0,0.0,0.0,0.0,0.0,0.0,0.0,0.0,0.0,0.0,0.0,0.0,0.0,0.0,0.0,0.0,0.0,0.0,0.0,0.0,0.0,0.0,0.0,0.0,0.0,0.0,0.0,0.0,0.0,0.0,0.0,0.0,0.0,0.0,0.0,0.0,0.0,0.0,0.0,0.0,0.0,0.0,0.0,0.0,0.0,0.0,0.0,0.0,0.0,-5.949,-6.1472,-6.345,-6.5312,-6.7061,-6.7858,-6.8547,-6.9166,-6.9247,-6.8845,0.0,0.0,0.0,0.0,0.0,0.0,0.0,0.0,0.0,0.0,0.0,0.0,0.0,0.0,0.0,0.0,0.0,0.0,0.0,0.0,0.0,0.0,0.0,0.0,0.0,0.0,0.0,0.0,-5.6326,-5.6883,-5.6137,0.0,0.0,0.0,0.0,0.0,0.0,0.0,0.0,0.0,0.0,-5.5357,-5.6805,-5.7061,0.0,0.0,-5.8414,-5.7743,-5.7006,-5.7276,-5.6528,-5.3332,-5.2674,0.0,0.0,0.0,0.0,0.0,0.0,0.0,0.0,0.0,0.0,0.0,0.0,0.0,0.0,0.0,0.0,0.0,0.0,0.0,0.0,0.0,0.0,0.0,0.0,0.0,0.0,0.0,0.0,0.0,0.0,0.0,0.0,0.0,0.0,0.0,0.0,0.0,0.0,0.0,0.0,0.0,0.0,0.0,0.0,0.0,0.0,0.0,0.0,0.0,0.0,0.0,0.0,-6.0449,-6.2168,-6.4185,-6.5767,-6.6965,-6.7701,-6.8339,-6.8876,-6.8793,-6.8621,0.0,0.0,0.0,0.0,0.0,0.0,0.0,0.0,0.0,0.0,0.0,0.0,0.0,0.0,0.0,0.0,0.0,0.0,0.0,0.0,0.0,0.0,0.0,0.0,0.0,0.0,0.0,0.0,-5.6541,-5.6795,-5.5842,0.0,0.0,0.0,0.0,0.0,0.0,0.0,0.0,0.0,0.0,-5.48,-5.6183,-5.6768,-5.7284,-5.8022,-5.8278,-5.7999,-5.7094,-5.7085,-5.6164,-5.307,0.0,0.0,0.0,0.0,0.0,0.0,0.0,0.0,0.0,0.0,0.0,0.0,0.0,0.0,0.0,0.0,0.0,0.0,0.0,0.0,0.0,0.0,0.0,0.0,0.0,0.0,0.0,-4.4967,0.0,0.0,-4.7189,0.0,0.0,0.0,0.0,0.0,0.0,0.0,0.0,0.0,0.0,0.0,0.0,0.0,0.0,0.0,0.0,0.0,0.0,0.0,0.0,0.0,0.0,-6.1606,-6.3239,-6.4217,-6.5236,-6.6456,-6.6587,-6.7251,-6.8332,-6.8641,-6.8891,-6.9075,0.0,0.0,0.0,0.0,0.0,0.0,0.0,0.0,0.0,0.0,0.0,0.0,0.0,0.0,0.0,0.0,0.0,0.0,0.0,0.0,0.0,0.0,0.0,0.0,0.0,0.0,-5.733,-5.6298,-5.5205,0.0,0.0,0.0,0.0,0.0,0.0,0.0,0.0,0.0,-5.0269,-5.2276,-5.374,-5.3756,-5.5204,-5.6376,-5.6403,-5.6444,-5.6444,-5.6415,-5.6543,-5.5908,0.0,0.0,0.0,0.0,0.0,0.0,0.0,0.0,0.0,0.0,0.0,0.0,0.0,0.0,0.0,0.0,0.0,0.0,0.0,0.0,0.0,0.0,0.0,0.0,0.0,0.0,0.0,-4.5698,-4.5785,0.0,0.0,0.0,0.0,0.0,0.0,0.0,0.0,0.0,0.0,0.0,-5.3866,-5.3664,0.0,0.0,0.0,0.0,0.0,0.0,0.0,0.0,0.0,0.0,0.0,0.0,-6.223,-6.4343,-6.5334,-6.6336,-6.7423,-6.8028,-6.8395,-6.8527,-6.9208,-6.9589,-6.9566,0.0,0.0,0.0,0.0,0.0,0.0,0.0,0.0,0.0,0.0,0.0,0.0,0.0,0.0,0.0,0.0,0.0,0.0,0.0,0.0,0.0,0.0,0.0,0.0,0.0,-5.9517,0.0,0.0,0.0,0.0,0.0,0.0,0.0,0.0,0.0,0.0,-5.1972,-5.1739,-5.1106,-5.2136,-5.3275,-5.4042,-5.5797,-5.7389,0.0,0.0,0.0,0.0,0.0,0.0,0.0,0.0,0.0,0.0,0.0,0.0,0.0,0.0,-3.907,-3.6099,-3.532,-3.4551,-3.323,0.0,0.0,0.0,0.0,0.0,0.0,0.0,0.0,0.0,0.0,0.0,0.0,0.0,0.0,-4.6665,-4.6755,-4.7525,0.0,0.0,0.0,0.0,0.0,0.0,0.0,0.0,-5.3108,-5.3999,-5.4876,-5.4889,-5.5789,-5.7437,-5.6685,-5.6529,0.0,0.0,0.0,0.0,0.0,0.0,0.0,0.0,-6.2485,-6.3883,-6.532,-6.6406,-6.718,-6.8053,-6.852,-6.8603,-6.9389,-6.9659,-6.9363,-6.8584,-6.7956,0.0,0.0,0.0,0.0,0.0,0.0,0.0,0.0,0.0,0.0,0.0,0.0,0.0,0.0,0.0,0.0,0.0,0.0,0.0,0.0,0.0,0.0,0.0,-5.9175,0.0,0.0,0.0,0.0,0.0,0.0,0.0,0.0,0.0,-5.1747,-5.1958,-5.2093,-5.1454,-5.2311,-5.3098,-5.3617,0.0,0.0,0.0,0.0,0.0,0.0,0.0,-5.2164,-5.0089,-4.8964,-4.7979,-4.6277,-4.5012,-4.3558,-4.1187,0.0,0.0,-3.6201,-3.4936,-3.4126,-3.2748,-3.1575,-3.0355,-2.9134,-2.8233,-2.7595,0.0,0.0,0.0,0.0,-4.6541,0.0,0.0,0.0,-4.6679,-4.7216,0.0,-4.8624,0.0,0.0,0.0,0.0,-5.2507,-5.2245,0.0,0.0,-5.494,-5.526,-5.5496,-5.6447,-5.6829,-5.6535,-5.7266,-5.8464,-5.9768,-5.7426,0.0,0.0,0.0,0.0,0.0,0.0,-6.2365,-6.2244,-6.4314,-6.552,-6.5913,-6.6824,-6.777,-6.8678,-6.9164,-6.9201,-6.8629,-6.8897,-6.8345,-6.6828,-6.7629,0.0,0.0,0.0,0.0,0.0,0.0,0.0,0.0,0.0,0.0,0.0,0.0,0.0,0.0,0.0,0.0,0.0,0.0,0.0,0.0,-5.9314,0.0,0.0,0.0,0.0,0.0,0.0,0.0,0.0,0.0,-5.3955,-5.2181,-5.1698,-5.1443,-5.1353,0.0,0.0,0.0,0.0,-5.5049,-5.3241,-5.398,-5.4344,-5.252,-5.152,-5.0407,-4.8761,0.0,0.0,-4.5713,-4.4613,-4.3386,-4.185,-4.0614,-3.8974,-3.6174,-3.4521,-3.3329,-3.1966,-3.0525,-2.9058,-2.8585,-2.8003,-2.7499,-4.8724,0.0,0.0,0.0,0.0,-4.7585,-4.7946,-4.8238,-4.9069,-4.9257,-4.9215,-4.9761,0.0,0.0,0.0,0.0,0.0,0.0,-5.3893,-5.3646,-5.492,-5.5468,-5.5282,-5.5163,-5.5873,-5.7425,-5.7761,-5.88,-6.0259,-6.01,-6.0423,-6.1178,0.0,0.0,0.0,0.0,-6.3752,-6.5142,-6.6087,-6.7011,-6.7921,-6.8679,-6.9359,-6.987,-7.0195,-7.0117,-6.9507,-6.9692,-6.9104,-6.7725,-6.7927,0.0,0.0,0.0,0.0,0.0,0.0,0.0,0.0,0.0,0.0,0.0,0.0,0.0,0.0,0.0,0.0,0.0,0.0,0.0,-6.0164,-5.8796,-5.7494,0.0,0.0,0.0,0.0,0.0,0.0,0.0,0.0,0.0,-5.3416,-5.3811,-5.3763,0.0,0.0,-5.3646,-5.3496,-5.4909,-5.5823,-5.5296,-5.4854,0.0,-5.2832,-5.0929,-4.9028,-4.7603,-4.6852,-4.6263,-4.5319,-4.5345,-4.442,-4.1785,-4.0946,-3.9817,-3.6688,-3.4942,-3.3483,-3.2267,-3.0854,-2.9519,-2.855,-2.805,-2.7896,-5.054,-4.9506,-4.8747,-4.8606,-4.8721,-4.901,-4.9193,-4.9272,-5.0271,-5.0618,-5.0614,-5.1083,-5.1425,-5.169,-5.1853,0.0,0.0,0.0,-5.4536,-5.4295,-5.5657,-5.6216,-5.6194,-5.6265,-5.7275,-5.8906,-5.8852,-5.9713,-6.1614,-6.1513,-6.2158,-6.3364,0.0,-6.1846,-6.2631,-6.3147,-6.3922,-6.5141,-6.6519,-6.7581,-6.8294,-6.9467,-7.0217,-7.0451,-7.0392,-7.0042,-6.9473,-6.9905,-6.9492,-6.8076,-6.871,-6.8739,0.0,0.0,0.0,0.0,0.0,0.0,0.0,0.0,0.0,0.0,0.0,-6.3313,-6.3397,0.0,0.0,0.0,-6.1615,-6.0999,-6.0102,-5.9219,0.0,0.0,0.0,0.0,0.0,0.0,0.0,-5.51,-5.5194,-5.5255,-5.5279,-5.55,-5.5249,-5.3993,-5.4318,-5.4533,-5.4371,0.0,-5.5805,-5.5337,-5.4117,-5.2795,-5.1583,-4.906,-4.6897,-4.5661,-4.5594,-4.5488,-4.5301,-4.5205,-4.4121,-4.1807,-4.0627,-3.9187,-3.6009,-3.4382,-3.3222,-3.2416,-3.0825,-2.9326,-2.8493,-2.8323,-2.8297,-5.2141,-5.2594,-5.2001,-5.1309,-5.0772,-5.0801,-5.0411,-4.9779,-5.0942,-5.1739,-5.2107,-5.2617,-5.3312,-5.414,-5.3699,0.0,-5.5033,-5.4804,-5.5191,-5.6091,-5.6834,-5.732,-5.7572,-5.8882,-6.004,-6.0707,-6.0364,-6.1333,-6.334,-6.2204,-6.2542,-6.433,-6.3056,-6.2161,-6.1775,-6.3002,-6.3574,-6.3387,-6.6106,-6.7576,-6.7759,-6.9518,-7.0522,-7.0585,-7.0018,-6.9461,-6.8878,-6.9768,-6.9639,-6.8261,-6.9683,-6.988,-6.834,0.0,0.0,0.0,0.0,0.0,0.0,0.0,0.0,0.0,0.0,0.0,0.0,0.0,0.0,0.0,-6.1343,0.0,-6.0565,-6.0339,0.0,0.0,0.0,-5.6543,-5.6103,-5.5869,-5.5898,-5.6398,0.0,0.0,-5.715,-5.6923,-5.6255,-5.4933,-5.5645,-5.5953,-5.5008,-5.5528,-5.5487,-5.3846,-5.2231,-5.0813,-4.9439,-4.6717,-4.455,-4.3764,-4.4014,-4.4801,-4.507,-4.4401,-4.2981,-4.1323,-3.966,-3.7521,-3.4756,-3.3145,-3.21,-3.2388,-3.041,-2.8551,-2.8524,-2.8511,-2.826,-5.2533,-5.3039,-5.308,-5.2444,-5.1439,-5.2107,-5.2617,-5.3026,-5.445,-5.4775,-5.4331,-5.463,-5.4739,-5.4576,-5.4698,-5.482,-5.5158,-5.6217,-5.6777,-5.6865,-5.7617,-5.8162,-5.8447,-5.8968,-5.9946,-6.1202,-6.2365,-6.3343,-6.4263,-6.4595,-6.4897,-6.5154,-6.5089,-6.4599,-6.3822,-6.4662,-6.5536,-6.6404,-6.7838,-6.8929,-6.9709,-7.0324,-7.0708,-7.0767,-7.0774,-7.049,-6.9828,-7.0749,-7.0537,-6.9119,-7.0004,-7.0141,-6.906,-6.8547,0.0,0.0,0.0,0.0,0.0,0.0,0.0,0.0,0.0,-6.3313,-6.3245,0.0,-6.1885,0.0,-6.2677,-6.2435,-6.1739,-6.1432,0.0,0.0,-5.9265,-5.8654,-5.8442,-5.8339,-5.8292,-5.83,-5.8733,-5.8683,-5.7809,-5.758,-5.734,-5.699,-5.6707,-5.6303,-5.5664,-5.5501,-5.499,-5.3359,-5.1485,-4.9671,-4.7797,-4.5667,-4.3933,-4.3828,-4.4495,-4.5172,-4.5303,-4.4167,-4.257,-4.0492,-3.8569,-3.6307,-3.3743,-3.236,-3.1475,-3.1087,-2.9578,-2.8243,-2.8257,-2.8257,-2.8061,-5.4176,-5.448,-5.4848,-5.4736,-5.4153,-5.4107,-5.434,-5.4961,-5.6196,-5.6497,-5.6161,-5.6359,-5.5865,-5.4978,-5.5318,-5.5721,-5.6092,-5.7115,-5.7669,-5.7715,-5.914,-5.9928,-6.0129,-6.1106,-6.2269,-6.3636,-6.3967,-6.4529,-6.5456,-6.5688,-6.5697,-6.5561,-6.6133,-6.6075,-6.5448,-6.6015,-6.6711,-6.7566,-6.8569,-6.9578,-7.0445,-7.0678,-7.0758,-7.0843,-7.1067,-7.0887,-7.0176,-7.1076,-7.1096,-6.9982,-7.0707,-7.0787,-6.9922,-6.9358,-6.8819,0.0,0.0,0.0,0.0,0.0,0.0,0.0,0.0,0.0,0.0,0.0,-6.2618,-6.3336,-6.3448,-6.3276,-6.2643,-6.268,-6.2478,-6.1919,-6.1413,-6.1026,-6.0904,-6.072,-6.0509,-6.0405,-6.0463,-6.0131,-5.9034,-5.855,-5.8085,-5.7281,-5.6646,-5.6251,-5.5845,-5.5083,-5.3992,-5.2578,-5.0281,-4.793,-4.5762,-4.4318,-4.3709,-4.4146,-4.4823,-4.5222,-4.5122,-4.3464,-4.1545,-3.9833,-3.7641,-3.5168,-3.2825,-3.1629,-3.0854,-2.9719,-2.8837,-2.8372,-2.8323,-2.835,-2.8154,-5.6276,-5.6133,-5.6764,-5.7299,-5.7576,-5.6472,-5.6151,-5.6358,-5.7272,-5.7647,-5.7595,-5.7567,-5.6714,-5.5442,-5.6154,-5.6679,-5.7205,-5.7783,-5.8132,-5.8675,-6.078,-6.1777,-6.1847,-6.377,-6.5343,-6.641,-6.5396,-6.549,-6.6668,-6.623,-6.6017,-6.6005,-6.6883,-6.7188,-6.6941,-6.7426,-6.7806,-6.7973,-6.9023,-6.9911,-7.0616,-7.0758,-7.0871,-7.0952,-7.1147,-7.0968,-7.0409,-7.1125,-7.1321,-7.0821,-7.1416,-7.1398,-7.066,-7.047,-6.9908,0.0,-6.8472,0.0,0.0,0.0,0.0,0.0,0.0,0.0,0.0,-6.3907,-6.3796,-6.4072,-6.4305,-6.4226,-6.369,-6.4166,-6.4461,-6.4427,-6.3679,-6.3194,-6.3113,-6.2699,-6.2286,-6.2175,-6.1977,-6.1427,-5.9948,-5.9363,-5.8354,-5.6666,-5.5918,-5.5666,-5.5504,-5.4254,-5.2794,-5.1564,-4.8757,-4.6072,-4.4233,-4.352,-4.3621,-4.4495,-4.5107,-4.5248,-4.472,-4.2645,-4.0484,-3.9163,-3.6481,-3.3881,-3.1869,-3.1048,-3.0036,-2.8703,-2.8338,-2.8217,-2.843,-2.8484,-2.8116,-5.6737,-5.7225,-5.7829,-5.8691,-5.961,-5.9379,-5.8844,-5.8228,-5.9417,-5.9259,-5.8258,-5.8185,-5.7556,-5.6611,-5.7752,-5.806,-5.7752,-5.8653,-5.9165,-5.9348,-6.1258,-6.2362,-6.284,-6.4352,-6.5778,-6.689,-6.7029,-6.7142,-6.727,-6.7598,-6.7692,-6.7447,-6.8655,-6.9108,-6.8918,0.0,0.0,0.0,-7.0272,-7.0546,-7.0758,-7.0928,-7.1077,-7.1224,-7.1494,0.0,-7.1426,-7.1037,-7.1089,-7.1599,-7.1131,0.0,0.0,0.0,0.0,0.0,0.0,0.0,0.0,0.0,0.0,0.0,-6.6446,-6.5666,-6.4837,-6.5238,-6.5368,-6.5104,-6.6064,-6.6574,-6.6124,-6.6286,-6.6383,-6.6164,-6.537,-6.4585,-6.4228,-6.3718,-6.302,-6.2207,-6.2215,-6.1468,-5.9474,-5.8789,-5.7851,-5.605,-5.4931,-5.4262,-5.3763,-5.3169,-5.2156,-5.0486,-4.7312,-4.4995,-4.4163,-4.3801,-4.4014,-4.4954,-4.5565,-4.5425,-4.4398,-4.1948,-3.9604,-3.8006,-3.5015,-3.2427,-3.0839,-3.0058,-2.9453,-2.8406,-2.8265,-2.8163,-2.8217,-2.823,-2.8047,-5.8145,-5.8639,-5.945,-6.0347,0.0,-6.1655,-6.1575,-6.0946,-6.0971,-6.0407,-5.9487,-5.9756,-5.9482,-5.8763,-5.9545,-5.9756,-5.9487,-6.0537,-6.1,-6.1165,-6.3264,-6.4507,-6.5112,-6.6638,-6.7588,-6.8021,-6.8211,-6.8269,-6.8148,-6.865,-6.899,-6.9147,-7.0127,-7.06,-7.0616,-7.1521,-7.1667,-7.1068,-7.1252,-7.1631,-7.2091,-7.1891,-7.1804,-7.1957,-7.1741,0.0,0.0,0.0,0.0,0.0,0.0,0.0,0.0,-6.9655,0.0,-6.9026,-6.8431,-6.8024,-6.7939,-6.8013,-6.7974,-6.7789,-6.7543,-6.6967,-6.5932,-6.6588,-6.6957,-6.6889,-6.7258,-6.7501,-6.7582,-6.8008,-6.8184,-6.7854,-6.7411,-6.6941,-6.6336,-6.5106,-6.4035,-6.3316,-6.2586,-6.134,-5.9016,-5.8593,-5.7573,-5.5635,-5.4823,-5.4162,-5.3435,-5.2647,-5.1164,-4.848,-4.618,-4.4615,-4.4298,-4.4096,-4.4298,-4.5347,-4.5382,-4.4762,-4.3725,-4.1463,-3.9012,-3.7166,-3.4794,-3.244,-3.081,-3.0036,-2.9328,-2.8487,-2.815,-2.8083,-2.7963,-2.7923,-2.7755,-5.9914,-6.0208,-6.1084,-6.2012,-6.2694,-6.326,-6.3477,-6.35,-6.2304,0.0,0.0,-6.1519,-6.1388,-6.0902,-6.132,-6.1464,-6.1494,-6.2415,-6.2892,-6.3152,-6.5384,-6.6799,-6.7393,-6.8798,-6.9368,-6.9151,-6.9115,-6.9027,-6.8991,-6.9441,-6.9831,-7.0375,-7.1253,-7.1794,-7.1949,-7.2433,-7.2462,-7.2013,-7.2195,-7.2706,-7.3459,-7.2828,-7.2568,-7.2715,-7.2018,-7.1693,-7.1817,-7.1767,-7.1428,-7.0741,-7.0538,-7.0426,-7.0325,-6.9017,-6.8812,-6.9959,-6.9285,-6.8953,-6.9246,-6.9335,-6.9097,-6.8449,-6.8414,-6.8115,-6.7345,-6.7922,-6.8362,-6.8617,-6.8295,-6.8363,-6.8809,-6.9527,-6.9807,-6.9503,-6.9272,-6.8829,-6.7997,-6.6268,-6.4662,-6.3988,-6.2682,-6.0989,-5.8899,-5.8309,-5.7458,-5.5435,-5.4799,-5.4469,-5.343,-5.2154,-5.0308,-4.7335,-4.5856,-4.4777,-4.4568,-4.4154,-4.4517,-4.5422,-4.4913,-4.3835,-4.2495,-4.053,-3.8439,-3.6445,-3.4548,-3.2608,-3.1046,-2.9969,-2.9314,-2.8473,-2.8318,-2.8056,-2.7776,-2.7615,-2.7383,-6.1674,-6.1851,-6.2523,-6.3044,-6.3357,-6.3516,-6.374,-6.4073,-6.3331,-6.2426,-6.152,-6.2808,-6.2683,-6.1551,-6.2808,-6.2955,-6.258,-6.3204,-6.3933,-6.4601,-6.5969,-6.716,-6.8141,-6.9217,-6.9634,-6.9543,-6.9669,-6.9555,-6.9435,-7.002,-7.0067,-6.9962,-7.1696,-7.2579,-7.2432,-7.2585,-7.2761,-7.2977,-7.312,-7.3339,-7.3575,-7.3059,-7.2792,-7.2824,-7.216,-7.1767,-7.1778,-7.1213,-7.081,-7.0621,-6.9902,-6.9471,-6.951,-6.9829,-6.9889,-6.9435,-6.9764,-7.0326,-7.1046,-7.0174,-6.9498,-6.9207,-6.9409,-6.9383,-6.9008,-6.8963,-6.91,-6.942,-6.9781,-7.0335,-7.062,-7.0975,-7.1161,-7.1026,-6.9862,-6.8417,-6.7188,-6.57,-6.4268,-6.31,-6.1912,-6.0677,-5.9226,-5.7843,-5.6525,-5.5262,-5.4571,-5.3782,-5.2766,-5.1434,-5.0017,-4.8347,-4.6863,-4.5897,-4.5303,-4.4838,-4.4765,-4.4934,-4.4461,-4.3256,-4.1164,-3.9122,-3.7059,-3.4928,-3.3145,-3.1793,-3.0426,-2.983,-2.9314,-2.8796,-2.8473,-2.8016,-2.7722,-2.7321,-2.6892,-6.2351,-6.2672,-6.3134,-6.3592,-6.4045,-6.4451,-6.4739,-6.4702,-6.4977,-6.433,-6.3241,-6.3909,-6.4066,-6.3909,-6.4578,-6.4704,-6.4349,-6.5701,-6.6352,-6.6528,-6.777,-6.8828,-6.9648,-7.0314,-7.0419,-7.0277,-7.0714,-7.0799,-7.0785,-7.1158,-7.1354,-7.1463,-7.2892,-7.3458,-7.3193,-7.3763,-7.4017,-7.3952,-7.4043,-7.4406,-7.5113,-7.401,-7.347,-7.3644,-7.2432,-7.1782,-7.1778,-7.1048,-7.0441,-6.9898,-6.9097,-6.8635,-6.8664,-6.8525,-6.8643,-6.9149,-6.9473,-6.9972,-7.0641,-7.0228,-6.9766,-6.9261,-6.9565,-6.9756,-6.9741,-6.9669,-6.9834,-7.0164,-7.0241,-7.031,-7.0642,-7.1335,-7.1407,-7.0539,-6.9831,-6.8793,-6.7012,-6.5429,-6.3891,-6.246,-6.1038,-5.9593,-5.8304,-5.7043,-5.602,-5.5137,-5.4558,-5.3836,-5.3012,-5.1529,-5.0013,-4.8098,-4.6954,-4.6098,-4.5279,-4.5112,-4.4798,-4.4548,-4.3497,-4.1988,-3.9777,-3.7813,-3.5867,-3.3936,-3.2576,-3.1629,-3.0441,-2.9689,-2.9161,-2.8783,-2.8325,-2.7802,-2.7482,-2.6826,-2.6347,-6.291,-6.3459,-6.3592,-6.3984,-6.4512,-6.5483,-6.5634,-6.5439,-6.6417,-6.6343,-6.5393,-6.514,-6.5393,-6.5868,-6.6369,-6.6433,-6.652,-6.8124,-6.8788,-6.8807,-6.974,-7.0634,-7.1154,-7.1454,-7.1328,-7.1113,-7.1726,-7.2011,-7.1928,-7.2253,-7.2663,-7.3215,-7.3651,-7.3835,-7.3764,-7.4714,-7.5007,-7.4696,-7.4841,-7.5374,-7.6118,-7.4728,-7.3956,-7.3868,-7.2535,-7.1628,-7.1505,-7.1087,-7.0317,-6.9103,-6.8593,-6.8226,-6.7805,-6.7482,-6.7825,-6.9007,-6.943,-6.9729,-7.0049,-7.0424,-7.0226,-6.9385,-6.9788,-7.0073,-7.0,-7.0088,-7.0318,-7.0714,-7.0274,-7.0074,-7.0588,-7.1162,-7.1149,-6.9862,-6.9623,-6.854,-6.6457,-6.4708,-6.3097,-6.1403,-5.9796,-5.8455,-5.7451,-5.6443,-5.5621,-5.4993,-5.4506,-5.3912,-5.3049,-5.1772,-4.9947,-4.8166,-4.7212,-4.6495,-4.5222,-4.4923,-4.4699,-4.4138,-4.2525,-4.0801,-3.8734,-3.6941,-3.5214,-3.3312,-3.2304,-3.1632,-3.0665,-2.9618,-2.9201,-2.8895,-2.8492,-2.7682,-2.7134,-2.6401,-2.5754,-6.4382,-6.4607,-6.4197,-6.4279,-6.4847,-6.5777,-6.6161,-6.6299,-6.7462,-6.7928,-6.7641,-6.7101,-6.6846,-6.7005,-6.7892,-6.8252,-6.8284,-6.9607,-7.0533,-7.0993,-7.1621,-7.195,-7.2237,-7.2621,-7.2364,-7.167,-7.2442,-7.2653,-7.2171,-7.2699,-7.3312,-7.374,-7.3409,-7.351,-7.3954,-7.4714,-7.5,-7.483,-7.5644,-7.5812,-7.5288,-7.4518,-7.3777,-7.3099,-7.221,-7.1355,-7.0765,-7.136,-7.0636,-6.8538,-6.8828,-6.8457,-6.7201,-6.8143,-6.8967,-6.9049,-7.0311,-7.0908,-7.0386,-7.1255,-7.1157,-7.0172,-7.0694,-7.0698,-6.977,-6.9903,-7.0355,-7.0742,-7.0432,-7.0202,-7.0912,-7.0872,-7.0523,-6.9808,-6.8842,-6.7266,-6.4577,-6.2936,-6.1371,-5.9747,-5.8274,-5.7467,-5.7488,-5.6466,-5.5225,-5.463,-5.4297,-5.3681,-5.2414,-5.1195,-4.9883,-4.8538,-4.7613,-4.6837,-4.5784,-4.4956,-4.4075,-4.3228,-4.1693,-3.9788,-3.7791,-3.6072,-3.4701,-3.3068,-3.1904,-3.0984,-3.0767,-3.0136,-2.9145,-2.9202,-2.8659,-2.7749,-2.676,-2.5792,-2.5244,-6.4619,-6.4843,-6.4401,-6.4623,-6.539,-6.6322,-6.7004,-6.7387,-6.8266,-6.8904,-6.9189,-6.911,-6.8845,-6.8563,-6.927,-6.9607,-6.9776,-7.0973,-7.1873,-7.2408,-7.2713,-7.2871,-7.2942,-7.2676,-7.2485,-7.2368,-7.2612,-7.2763,-7.2772,-7.2984,-7.3589,-7.4462,-7.4038,-7.4212,-7.5089,-7.5133,-7.5191,-7.5485,-7.5504,-7.5214,-7.4596,-7.4285,-7.379,-7.3013,-7.2199,-7.1638,-7.1291,-7.0746,-6.9884,-6.8864,-6.8664,-6.7961,-6.6642,-6.7696,-6.8257,-6.8217,-6.9485,-7.0256,-7.0195,-7.0346,-7.0041,-6.907,-6.9352,-6.9258,-6.8691,-6.8606,-6.8939,-6.9479,-6.896,-6.8611,-6.8951,-6.899,-6.859,-6.7523,-6.6644,-6.5107,-6.2683,-6.1055,-5.9669,-5.8358,-5.7244,-5.6474,-5.6165,-5.5507,-5.4793,-5.4497,-5.4174,-5.3493,-5.2254,-5.0813,-4.9487,-4.8453,-4.6891,-4.5853,-4.5256,-4.4784,-4.3449,-4.1762,-4.0298,-3.8548,-3.6224,-3.467,-3.3384,-3.2281,-3.1224,-3.0744,-3.0934,-3.0036,-2.9103,-2.9147,-2.8413,-2.7348,-2.6533,-2.5898,-2.5544,-6.5213,-6.5589,-6.5576,-6.5823,-6.6433,-6.726,-6.7913,-6.8436,-6.9212,-6.982,-7.0276,-7.1051,-7.1011,-7.0469,-7.0727,-7.0973,-7.107,-7.2134,-7.2973,-7.3343,-7.3707,-7.3821,-7.3535,-7.3083,-7.2927,-7.3206,-7.3028,-7.3295,-7.3892,-7.386,-7.4354,-7.5159,-7.5041,-7.5412,-7.63,-7.5818,-7.5681,-7.5936,-7.5388,-7.4646,-7.3897,-7.3851,-7.3472,-7.2691,-7.2094,-7.1741,-7.1507,-7.0553,-6.9759,-6.9332,-6.8947,-6.818,-6.698,-6.7797,-6.8372,-6.8425,-6.9179,-6.9719,-6.9921,-6.9655,-6.929,-6.8803,-6.8696,-6.8444,-6.7897,-6.754,-6.7546,-6.7763,-6.713,-6.6805,-6.7579,-6.725,-6.6356,-6.5083,-6.4126,-6.2554,-6.0449,-5.9129,-5.8065,-5.696,-5.6319,-5.5787,-5.5163,-5.4912,-5.4669,-5.4323,-5.3993,-5.3218,-5.1848,-5.0253,-4.9031,-4.8086,-4.6129,-4.4805,-4.4633,-4.3559,-4.2333,-4.0974,-3.9205,-3.7312,-3.5192,-3.3816,-3.2616,-3.2124,-3.1194,-3.0476,-3.0614,-2.9926,-2.8952,-2.8924,-2.8193,-2.7175,-2.6653,-2.6162,-2.5685,-6.662,-6.7658,-6.7946,-6.7935,-6.8108,-6.8499,-6.8749,-6.9212,-7.0128,-7.0738,-7.1284,-7.2883,-7.3388,-7.2737,-7.2462,-7.2237,-7.2302,-7.3266,-7.3836,-7.4106,-7.4801,-7.4674,-7.3844,-7.3912,-7.3947,-7.3896,-7.3896,-7.4496,-7.5788,-7.568,-7.5835,-7.6131,-7.6413,-7.6866,-7.7217,-7.6731,-7.635,-7.6029,-7.5469,-7.4499,-7.3262,-7.3138,-7.2779,-7.2017,-7.1799,-7.1526,-7.0952,-7.1402,-7.1011,-6.9393,-6.9935,-6.9507,-6.8015,-6.9067,-6.9976,-7.0413,-7.0216,-6.9887,-6.962,-6.9804,-6.9798,-6.9508,-6.9448,-6.9085,-6.7836,-6.7218,-6.6802,-6.6145,-6.5534,-6.578,-6.7237,-6.5982,-6.4614,-6.3725,-6.1745,-5.9694,-5.7801,-5.7118,-5.6238,-5.5503,-5.5357,-5.5338,-5.5331,-5.5178,-5.4422,-5.3806,-5.3091,-5.2225,-5.0504,-4.9463,-4.8575,-4.731,-4.5683,-4.4159,-4.3966,-4.2505,-4.1069,-3.9968,-3.8353,-3.6454,-3.5361,-3.4343,-3.3137,-3.2104,-3.1248,-3.0709,-3.0379,-2.979,-2.9008,-2.855,-2.7987,-2.7215,-2.6974,-2.6294,-2.5987,-6.7266,-6.7909,-6.8106,-6.8312,-6.8594,-6.9364,-6.9912,-7.0375,-7.1156,-7.2165,-7.3022,-7.3469,-7.3914,-7.4423,-7.4295,-7.383,-7.3365,-7.397,-7.4473,-7.4902,-7.5484,-7.5637,-7.5249,-7.4652,-7.4508,-7.4738,-7.4474,-7.4911,-7.5983,-7.5995,-7.626,-7.6752,-7.6777,-7.7017,-7.7334,-7.6958,-7.6517,-7.6108,-7.5098,-7.4261,-7.3844,-7.3393,-7.2997,-7.2697,-7.2665,-7.2588,-7.2265,-7.2069,-7.1581,-7.0988,-7.0648,-6.9837,-6.864,-6.8751,-6.922,-6.974,-6.9546,-6.9395,-6.9385,-6.9385,-6.9425,-6.9355,-6.9082,-6.8822,-6.8255,-6.779,-6.73,-6.695,-6.5786,-6.5539,-6.5474,-6.4419,-6.2769,-6.0993,-5.9408,-5.7794,-5.6555,-5.54,-5.4714,-5.4825,-5.4913,-5.4796,-5.4762,-5.4558,-5.4055,-5.3093,-5.2612,-5.1437,-4.9923,-4.8921,-4.8209,-4.7038,-4.5063,-4.3145,-4.2665,-4.135,-3.9971,-3.8892,-3.7685,-3.6038,-3.485,-3.3181,-3.197,-3.1601,-3.1066,-3.0571,-3.014,-2.9439,-2.8701,-2.8311,-2.7736,-2.7549,-2.7402,-2.6782,-2.6633,-6.8355,-6.8499,-6.902,-6.9571,-7.0122,-7.0709,-7.1497,-7.2154,-7.2638,-7.3447,-7.4384,-7.413,-7.4511,-7.5322,-7.5595,-7.5397,-7.4797,-7.4972,-7.5204,-7.5691,-7.6062,-7.6143,-7.5947,-7.5338,-7.5449,-7.6021,-7.5976,-7.6154,-7.6544,-7.6662,-7.7026,-7.7685,-7.7614,-7.7703,-7.787,-7.7485,-7.6938,-7.6189,-7.5139,-7.4553,-7.4404,-7.3934,-7.3608,-7.37,-7.3902,-7.375,-7.3231,-7.2358,-7.1891,-7.176,-7.12,-7.0448,-6.9672,-6.9026,-6.8973,-6.952,-6.9442,-6.9283,-6.9344,-6.9303,-6.9388,-6.9355,-6.9119,-6.899,-6.911,-6.8392,-6.8006,-6.7543,-6.5989,-6.4647,-6.3648,-6.2386,-6.0703,-5.8763,-5.699,-5.5781,-5.5275,-5.4104,-5.4063,-5.4683,-5.5108,-5.4906,-5.4646,-5.4413,-5.38,-5.2881,-5.213,-5.0821,-4.9245,-4.8469,-4.7626,-4.6277,-4.4142,-4.2393,-4.1277,-3.9894,-3.8892,-3.8061,-3.678,-3.5355,-3.439,-3.2541,-3.141,-3.1198,-3.0759,-3.0418,-2.983,-2.916,-2.8642,-2.8292,-2.8003,-2.7816,-2.7722,-2.749,-2.7218,-7.0091,-6.992,-7.0775,-7.1758,-7.2645,-7.2664,-7.332,-7.4289,-7.4231,-7.4451,-7.5027,-7.506,-7.539,-7.5944,-7.6291,-7.6498,-7.6571,-7.6173,-7.6139,-7.6492,-7.6488,-7.6394,-7.6208,-7.6182,-7.6667,-7.7628,-7.8128,-7.8162,-7.7762,-7.7829,-7.8163,-7.8752,-7.8951,-7.8895,-7.8904,-7.8377,-7.7676,-7.6531,-7.5677,-7.517,-7.4606,-7.4525,-7.4522,-7.4648,-7.5243,-7.4909,-7.3408,-7.2572,-7.2199,-7.2016,-7.1782,-7.1547,-7.0938,-7.0067,-6.9749,-7.0151,-7.0068,-6.9778,-6.9529,-6.9896,-6.9975,-6.9865,-6.9851,-7.012,-7.0191,-6.9125,-6.8285,-6.7858,-6.5789,-6.3584,-6.1754,-5.998,-5.8499,-5.7488,-5.5232,-5.383,-5.3869,-5.3668,-5.3661,-5.4753,-5.5528,-5.5845,-5.5496,-5.4845,-5.4093,-5.3049,-5.1732,-5.0133,-4.8728,-4.8163,-4.6869,-4.4849,-4.3194,-4.1855,-4.0183,-3.8639,-3.7961,-3.7059,-3.5772,-3.4409,-3.398,-3.2662,-3.1248,-3.0869,-3.0154,-2.9844,-2.9328,-2.8824,-2.8487,-2.8123,-2.8056,-2.8016,-2.7923,-2.7649,-2.7682,-7.1265,-7.1292,-7.1406,-7.2356,-7.3588,-7.3436,-7.4074,-7.5125,-7.5158,-7.5266,-7.5587,-7.5693,-7.601,-7.6561,-7.7167,-7.7607,-7.8085,-7.8051,-7.7709,-7.7216,-7.7315,-7.7444,-7.725,-7.6999,-7.7311,-7.8171,-7.8565,-7.8529,-7.8344,-7.8387,-7.8565,-7.8789,-7.9331,-7.9111,-7.8331,-7.8384,-7.7871,-7.6575,-7.5915,-7.5546,-7.5475,-7.5457,-7.5467,-7.5462,-7.5694,-7.5482,-7.4944,-7.4645,-7.4216,-7.3559,-7.2857,-7.2075,-7.1216,-7.0602,-7.0371,-7.0419,-7.075,-7.0764,-7.0482,-7.0691,-7.0981,-7.1116,-7.1065,-7.1253,-7.1702,-7.0649,-6.9667,-6.8973,-6.6519,-6.3748,-6.1128,-5.8923,-5.7243,-5.5812,-5.4462,-5.3646,-5.3891,-5.4374,-5.4678,-5.479,-5.5842,-5.6124,-5.5423,-5.4809,-5.4137,-5.2725,-5.1314,-4.9806,-4.8016,-4.7704,-4.6891,-4.4591,-4.3043,-4.1376,-3.9758,-3.8476,-3.7674,-3.6693,-3.5274,-3.4213,-3.3603,-3.2524,-3.1283,-3.0404,-2.9691,-2.9328,-2.8824,-2.8487,-2.8318,-2.815,-2.811,-2.807,-2.8016,-2.7936,-2.7816,-7.183,-7.2014,-7.2046,-7.2897,-7.4081,-7.4235,-7.5004,-7.5948,-7.6013,-7.6252,-7.6597,-7.6103,-7.6551,-7.7503,-7.7907,-7.8451,-7.9061,-7.9598,-7.9216,-7.8252,-7.8132,-7.8231,-7.8258,-7.7837,-7.7915,-7.8384,-7.8629,-7.8554,-7.8283,-7.848,-7.8655,-7.8891,-7.9387,-7.9122,-7.8056,-7.8083,-7.762,-7.6665,-7.6027,-7.5923,-7.6263,-7.6326,-7.6316,-7.6287,-7.6253,-7.6244,-7.6186,-7.6175,-7.5608,-7.4418,-7.3324,-7.2249,-7.127,-7.114,-7.1068,-7.1063,-7.1471,-7.175,-7.1436,-7.1644,-7.1824,-7.2086,-7.1931,-7.1801,-7.192,-7.0973,-6.9637,-6.8119,-6.5262,-6.2582,-6.0329,-5.8288,-5.6616,-5.5575,-5.4653,-5.4194,-5.4205,-5.5108,-5.5532,-5.5475,-5.6156,-5.6322,-5.5814,-5.4869,-5.4092,-5.2616,-5.1073,-4.9555,-4.7849,-4.7006,-4.5617,-4.3945,-4.2221,-4.0607,-3.9368,-3.8291,-3.7399,-3.6251,-3.5147,-3.4392,-3.3784,-3.1919,-3.0375,-2.9873,-2.9328,-2.916,-2.8655,-2.8487,-2.815,-2.815,-2.8163,-2.811,-2.8083,-2.8096,-2.8016,-7.2079,-7.2219,-7.2721,-7.3429,-7.4432,-7.5054,-7.5956,-7.6786,-7.6745,-7.7148,-7.7594,-7.6908,-7.7152,-7.8436,-7.8585,-7.9094,-7.9871,-8.0607,-8.0526,-7.9857,-7.9327,-7.9004,-7.8815,-7.8514,-7.8523,-7.856,-7.8565,-7.837,-7.8153,-7.8369,-7.8602,-7.9079,-7.9403,-7.9163,-7.842,-7.7852,-7.7517,-7.698,-7.6222,-7.6279,-7.6989,-7.7031,-7.7019,-7.6981,-7.6926,-7.6907,-7.6827,-7.678,-7.604,-7.4413,-7.322,-7.2159,-7.1463,-7.1601,-7.1789,-7.1701,-7.2345,-7.2548,-7.2503,-7.2598,-7.263,-7.2484,-7.2319,-7.2167,-7.1359,-6.9729,-6.7966,-6.6268,-6.3188,-6.0676,-5.942,-5.8008,-5.6976,-5.6622,-5.5452,-5.477,-5.5055,-5.5736,-5.6077,-5.6191,-5.6617,-5.6717,-5.6269,-5.5208,-5.3997,-5.2654,-5.0847,-4.918,-4.7835,-4.6529,-4.4591,-4.2973,-4.1475,-3.9929,-3.8716,-3.7928,-3.7029,-3.6407,-3.5103,-3.4246,-3.3391,-3.1692,-3.0346,-2.9663,-2.916,-2.8824,-2.8655,-2.8487,-2.8203,-2.827,-2.8243,-2.8177,-2.8177,-2.8203,-2.7981,-7.2228,-7.3435,-7.3054,-7.3639,-7.4576,-7.4944,-7.5839,-7.7245,-7.7417,-7.7655,-7.7927,-7.8336,-7.8481,-7.879,-7.9466,-7.9939,-8.0442,-8.1005,-8.1517,-8.1422,-8.0927,-7.9967,-7.9079,-7.8725,-7.8669,-7.8774,-7.8719,-7.8615,-7.8809,-7.8778,-7.8962,-7.9331,-7.9827,-7.9858,-7.9268,-7.876,-7.832,-7.7764,-7.7014,-7.6761,-7.7009,-7.7105,-7.7056,-7.7043,-7.7004,-7.6972,-7.683,-7.6721,-7.5871,-7.4256,-7.3062,-7.2051,-7.1337,-7.165,-7.195,-7.2057,-7.292,-7.3383,-7.325,-7.3342,-7.3378,-7.3015,-7.2353,-7.1696,-7.0829,-6.8717,-6.7065,-6.5547,-6.3121,-6.0706,-5.954,-5.8534,-5.7833,-5.7202,-5.6499,-5.5992,-5.5963,-5.6652,-5.7283,-5.7081,-5.7249,-5.6873,-5.5964,-5.48,-5.3515,-5.193,-5.0359,-4.8724,-4.7434,-4.5959,-4.4289,-4.2637,-4.1016,-3.9632,-3.839,-3.7419,-3.6637,-3.6351,-3.5221,-3.3756,-3.2834,-3.1662,-3.0665,-3.0012,-2.9328,-2.8992,-2.8655,-2.8487,-2.8426,-2.8364,-2.831,-2.8243,-2.831,-2.835,-2.8034,-7.2993,-7.4258,-7.3755,-7.4097,-7.5003,-7.5054,-7.5988,-7.7395,-7.7433,-7.7907,-7.8478,-7.9025,-7.9263,-7.9432,-8.0206,-8.0576,-8.0808,-8.1297,-8.1646,-8.1851,-8.1617,-8.1015,-8.02,-7.9693,-7.9745,-8.0148,-7.9566,-7.9547,-7.9739,-7.9558,-7.944,-7.9546,-8.0119,-8.0152,-7.9669,-7.9274,-7.8748,-7.809,-7.7377,-7.7034,-7.7094,-7.7066,-7.705,-7.7004,-7.6972,-7.691,-7.6777,-7.6536,-7.564,-7.4227,-7.3264,-7.2495,-7.1737,-7.2121,-7.2531,-7.275,-7.3762,-7.4177,-7.3921,-7.3766,-7.3516,-7.305,-7.208,-7.0526,-6.8854,-6.682,-6.5284,-6.3584,-6.1564,-6.0272,-5.9819,-5.9152,-5.8495,-5.7833,-5.7648,-5.7306,-5.6615,-5.7164,-5.7426,-5.7369,-5.7095,-5.6648,-5.542,-5.4129,-5.2653,-5.1138,-4.9724,-4.8331,-4.7038,-4.5512,-4.3987,-4.2156,-4.0471,-3.8901,-3.7968,-3.7152,-3.6241,-3.5953,-3.4866,-3.3375,-3.2205,-3.1375,-3.0709,-3.0055,-2.9523,-2.9006,-2.8865,-2.8568,-2.848,-2.8364,-2.8323,-2.831,-2.8364,-2.835,-2.8034,-7.3921,-7.4646,-7.4514,-7.4792,-7.539,-7.5422,-7.6299,-7.757,-7.7373,-7.8047,-7.9226,-7.9297,-7.9768,-8.0309,-8.0774,-8.1137,-8.1239,-8.162,-8.1836,-8.2095,-8.2152,-8.2079,-8.1946,-8.0901,-8.0968,-8.1416,-8.0781,-8.0404,-8.0279,-8.0152,-7.9865,-7.9796,-8.0201,-8.0323,-8.002,-7.9625,-7.8958,-7.8363,-7.765,-7.7223,-7.7106,-7.7052,-7.702,-7.6972,-7.683,-7.6754,-7.6614,-7.6333,-7.5562,-7.3992,-7.3702,-7.3008,-7.2371,-7.2801,-7.3232,-7.3753,-7.4143,-7.4502,-7.4331,-7.3565,-7.3082,-7.254,-7.1221,-6.9169,-6.6805,-6.4687,-6.2888,-6.162,-5.943,-5.9246,-5.9771,-5.9392,-5.8743,-5.8143,-5.8361,-5.8023,-5.7507,-5.7306,-5.7368,-5.7163,-5.6512,-5.5796,-5.4496,-5.3164,-5.1534,-5.0175,-4.8933,-4.7626,-4.6277,-4.4591,-4.3228,-4.1713,-3.9845,-3.7986,-3.7348,-3.6885,-3.6131,-3.5388,-3.4145,-3.284,-3.1661,-3.0825,-3.0476,-3.014,-2.9719,-2.9367,-2.896,-2.8846,-2.8587,-2.8377,-2.835,-2.8323,-2.8297,-2.8257,-2.7981,-7.3627,-7.5358,-7.4743,-7.4825,-7.5423,-7.5595,-7.6538,-7.7974,-7.8218,-7.8893,-7.9905,-8.0206,-8.044,-8.0808,-8.1268,-8.1668,-8.2274,-8.2241,-8.2303,-8.2906,-8.3331,-8.3803,-8.3575,-8.2191,-8.1008,-8.1051,-8.0868,-8.0542,-8.0228,-8.0421,-8.0128,-8.0022,-8.0423,-8.0692,-8.0833,-8.0472,-7.992,-7.918,-7.8429,-7.7699,-7.7148,-7.7011,-7.6972,-7.6894,-7.6671,-7.6471,-7.6397,-7.6212,-7.5578,-7.4581,-7.3755,-7.3073,-7.2532,-7.2554,-7.2843,-7.308,-7.3825,-7.3921,-7.3137,-7.3069,-7.2754,-7.1406,-6.9921,-6.8187,-6.5344,-6.2966,-6.1613,-6.0581,-5.9271,-5.862,-5.9288,-5.8882,-5.8415,-5.8143,-5.7786,-5.7393,-5.691,-5.7455,-5.7302,-5.6381,-5.5771,-5.4831,-5.2864,-5.1693,-5.0338,-4.9031,-4.7895,-4.6869,-4.5362,-4.3835,-4.2309,-4.0938,-3.9235,-3.7525,-3.7063,-3.6454,-3.5405,-3.4687,-3.3613,-3.2646,-3.146,-3.0817,-3.0634,-3.0551,-3.017,-2.9745,-2.9267,-2.8852,-2.8591,-2.8497,-2.8377,-2.8364,-2.831,-2.8217,-2.7968,-7.4381,-7.607,-7.5658,-7.5948,-7.6589,-7.6362,-7.7209,-7.8518,-7.869,-7.9297,-8.0274,-8.0709,-8.0906,-8.1268,-8.1964,-8.263,-8.2993,-8.3067,-8.341,-8.393,-8.4031,-8.429,-8.4729,-8.3708,-8.2648,-8.2632,-8.2708,-8.224,-8.1848,-8.1519,-8.1452,-8.0806,-8.1145,-8.1374,-8.1451,-8.1272,-8.0614,-7.9702,-7.9179,-7.8406,-7.7304,-7.6973,-7.6855,-7.6764,-7.651,-7.635,-7.625,-7.6172,-7.5476,-7.4643,-7.4012,-7.3527,-7.3002,-7.2691,-7.2586,-7.2919,-7.2736,-7.2932,-7.2484,-7.1969,-7.1342,-7.0277,-6.8489,-6.5982,-6.3627,-6.1327,-6.0233,-5.9669,-5.9042,-5.8549,-5.9057,-5.8773,-5.8415,-5.7863,-5.7303,-5.6623,-5.6306,-5.6755,-5.6901,-5.5661,-5.4533,-5.3214,-5.1668,-5.0234,-4.9038,-4.7653,-4.6805,-4.58,-4.4762,-4.3228,-4.1693,-4.0158,-3.8603,-3.7365,-3.6937,-3.6038,-3.4687,-3.3975,-3.3119,-3.2296,-3.144,-3.1131,-3.1175,-3.0737,-3.0282,-2.9829,-2.9391,-2.9001,-2.8644,-2.843,-2.8323,-2.8364,-2.8337,-2.8203,-2.7812,-7.5278,-7.6831,-7.667,-7.7205,-7.7924,-7.74,-7.8082,-7.9532,-7.923,-7.9667,-8.0508,-8.0906,-8.12,-8.1723,-8.2725,-8.3226,-8.3578,-8.4088,-8.4562,-8.4526,-8.4287,-8.4656,-8.5009,-8.482,-8.468,-8.5521,-8.4645,-8.3989,-8.3376,-8.3326,-8.2361,-8.1728,-8.2023,-8.1929,-8.1685,-8.1776,-8.1282,-8.0101,-7.9678,-7.9061,-7.784,-7.7394,-7.7136,-7.6904,-7.6521,-7.6301,-7.6172,-7.5985,-7.5503,-7.4566,-7.4354,-7.4214,-7.3839,-7.2965,-7.2465,-7.2886,-7.2041,-7.1626,-7.1561,-7.09,-7.0113,-6.9297,-6.702,-6.4189,-6.1976,-6.0472,-5.9558,-5.9131,-5.8814,-5.8897,-5.9039,-5.8664,-5.8335,-5.7669,-5.6851,-5.602,-5.5407,-5.5444,-5.4937,-5.4405,-5.3114,-5.1715,-5.0101,-4.8521,-4.7408,-4.6446,-4.5574,-4.4675,-4.3778,-4.2443,-4.0725,-3.9318,-3.7896,-3.6867,-3.6276,-3.5505,-3.4306,-3.351,-3.2678,-3.2065,-3.1388,-3.1189,-3.0879,-3.0652,-3.0325,-2.9898,-2.9371,-2.9109,-2.8657,-2.8364,-2.827,-2.8323,-2.8283,-2.819,-2.7656,-7.536,-7.7134,-7.678,-7.7313,-7.8345,-7.8141,-7.8687,-7.9701,-7.9837,-8.0274,-8.0872,-8.1005,-8.1359,-8.2043,-8.2855,-8.3543,-8.4227,-8.4964,-8.5005,-8.4606,-8.448,-8.5024,-8.558,-8.53,-8.5312,-8.517,-8.4645,-8.3818,-8.3206,-8.2987,-8.2798,-8.1881,-8.2099,-8.2096,-8.1751,-8.183,-8.1455,-8.0241,-7.9789,-7.9212,-7.8815,-7.8195,-7.7615,-7.7306,-7.662,-7.6263,-7.6024,-7.578,-7.548,-7.5195,-7.4905,-7.4553,-7.3964,-7.2655,-7.1996,-7.1854,-7.1365,-7.093,-7.0679,-7.0527,-6.9415,-6.7933,-6.6173,-6.4031,-6.16,-6.0074,-5.9377,-5.9318,-5.9213,-5.9165,-5.8773,-5.8445,-5.7974,-5.7303,-5.6251,-5.5178,-5.4221,-5.3332,-5.2555,-5.2052,-5.1197,-5.0465,-4.8986,-4.7582,-4.6721,-4.5543,-4.4435,-4.3615,-4.2727,-4.1341,-3.9675,-3.842,-3.717,-3.6316,-3.5774,-3.4916,-3.3771,-3.3208,-3.2479,-3.18,-3.1277,-3.0879,-3.0581,-3.0465,-3.0163,-2.9907,-2.9403,-2.9085,-2.8804,-2.8631,-2.8484,-2.8323,-2.839,-2.826,-2.7565,-7.5566,-7.7167,-7.7249,-7.7858,-7.8624,-7.8812,-7.926,-7.9972,-8.0209,-8.051,-8.0872,-8.1166,-8.1551,-8.2336,-8.3682,-8.4681,-8.5491,-8.5601,-8.5603,-8.5121,-8.5033,-8.5417,-8.5992,-8.5471,-8.5279,-8.5053,-8.4488,-8.3807,-8.3419,-8.405,-8.351,-8.2794,-8.2909,-8.252,-8.1426,-8.1243,-8.0725,-7.9828,-7.9296,-7.9074,-7.8943,-7.8363,-7.7855,-7.7024,-7.6585,-7.6184,-7.6005,-7.5686,-7.5421,-7.5169,-7.4861,-7.4444,-7.3784,-7.296,-7.1995,-7.1824,-7.1143,-7.0639,-7.0234,-7.0023,-6.8535,-6.6686,-6.5187,-6.3107,-6.1009,-5.9617,-5.9195,-5.9213,-5.9198,-5.9099,-5.8555,-5.8114,-5.7528,-5.6337,-5.5295,-5.3964,-5.2685,-5.158,-5.0691,-4.9856,-4.9756,-4.9145,-4.7959,-4.695,-4.6033,-4.483,-4.3509,-4.2555,-4.1695,-4.0144,-3.8679,-3.7665,-3.6602,-3.5706,-3.5029,-3.429,-3.362,-3.2906,-3.2281,-3.1587,-3.115,-3.0752,-3.0493,-3.0295,-3.0079,-2.9836,-2.942,-2.9085,-2.8991,-2.8871,-2.8671,-2.8537,-2.8657,-2.83,-2.7787,-7.597,-7.7422,-7.7971,-7.8511,-7.9041,-7.9388,-7.9768,-8.0175,-8.0309,-8.061,-8.1005,-8.1262,-8.1646,-8.2558,-8.3996,-8.547,-8.6521,-8.5851,-8.5635,-8.556,-8.5311,-8.5725,-8.6027,-8.5557,-8.4995,-8.5409,-8.429,-8.3767,-8.4041,-8.4689,-8.4441,-8.3811,-8.3895,-8.307,-8.1424,-8.1259,-7.9988,-7.9161,-7.8862,-7.8858,-7.8553,-7.8287,-7.7698,-7.6635,-7.6302,-7.6118,-7.6015,-7.566,-7.5386,-7.5095,-7.4661,-7.4222,-7.3763,-7.3081,-7.2646,-7.236,-7.1376,-7.0863,-7.0354,-6.9209,-6.7723,-6.6127,-6.3884,-6.197,-6.0424,-5.9525,-5.8957,-5.9027,-5.8991,-5.8773,-5.8195,-5.764,-5.6708,-5.5412,-5.4112,-5.278,-5.1419,-5.0283,-4.9246,-4.8682,-4.8625,-4.7818,-4.6634,-4.5788,-4.4992,-4.3928,-4.2627,-4.1834,-4.0794,-3.933,-3.791,-3.694,-3.5901,-3.5159,-3.4473,-3.381,-3.3239,-3.2692,-3.2098,-3.1233,-3.0951,-3.0624,-3.0302,-3.0164,-3.0083,-2.9839,-2.9568,-2.9272,-2.9205,-2.9072,-2.8831,-2.8804,-2.8978,-2.8578,-2.7862,-7.654,-7.7971,-7.8296,-7.8863,-7.9388,-7.9904,-8.0107,-8.0209,-8.041,-8.0709,-8.1005,-8.1262,-8.1741,-8.2709,-8.3886,-8.4703,-8.5005,-8.5304,-8.5358,-8.5303,-8.5525,-8.6026,-8.6459,-8.5574,-8.5397,-8.5589,-8.4347,-8.3769,-8.4064,-8.481,-8.4822,-8.4276,-8.3989,-8.3328,-8.1809,-8.1547,-8.1059,-7.987,-8.0183,-8.015,-7.9338,-7.8961,-7.827,-7.7408,-7.6623,-7.6062,-7.5985,-7.566,-7.5315,-7.5132,-7.4699,-7.426,-7.3875,-7.3777,-7.3415,-7.2711,-7.1669,-7.0478,-7.0277,-6.8909,-6.727,-6.5812,-6.3902,-6.2151,-6.0609,-5.9501,-5.9002,-5.9009,-5.8882,-5.8335,-5.764,-5.6822,-5.5761,-5.4204,-5.2631,-5.1544,-5.0308,-4.9152,-4.8123,-4.7518,-4.7393,-4.6381,-4.5392,-4.4524,-4.3794,-4.2876,-4.1826,-4.1023,-3.9951,-3.8531,-3.6976,-3.6011,-3.5271,-3.4523,-3.3916,-3.3281,-3.2813,-3.2449,-3.1687,-3.0991,-3.0667,-3.0465,-3.0308,-3.0097,-3.0055,-2.9972,-2.9686,-2.9566,-2.9446,-2.9299,-2.9125,-2.9205,-2.9366,-2.8679,-2.7933,-7.7796,-7.8296,-7.8617,-7.8936,-7.9388,-7.9801,-8.0107,-8.0209,-8.051,-8.0709,-8.1102,-8.1325,-8.2232,-8.3263,-8.4117,-8.4581,-8.4898,-8.5245,-8.5453,-8.5484,-8.5876,-8.6465,-8.6838,-8.6352,-8.6066,-8.5632,-8.5003,-8.4309,-8.4393,-8.4696,-8.5016,-8.4709,-8.4289,-8.3485,-8.2098,-8.1641,-8.0719,-8.0144,-8.0285,-8.029,-7.9555,-7.9097,-7.8596,-7.7589,-7.6608,-7.6178,-7.5917,-7.5628,-7.5386,-7.517,-7.474,-7.4305,-7.4029,-7.3826,-7.3578,-7.3387,-7.2462,-7.1558,-7.0734,-6.8912,-6.7278,-6.5628,-6.3866,-6.1917,-6.0546,-5.9838,-5.938,-5.9069,-5.8525,-5.7833,-5.6936,-5.5876,-5.4204,-5.2754,-5.1268,-5.0155,-4.9177,-4.8133,-4.717,-4.6664,-4.6125,-4.5256,-4.4514,-4.3708,-4.3146,-4.2292,-4.1143,-3.9946,-3.8892,-3.7679,-3.6247,-3.4913,-3.4474,-3.4,-3.3375,-3.2809,-3.2312,-3.1964,-3.145,-3.0831,-3.0581,-3.0344,-3.0258,-2.9988,-2.9985,-2.9873,-2.9887,-2.9806,-2.9659,-2.9553,-2.9459,-2.9539,-2.9593,-2.9119,-2.823,-7.8936,-7.883,-7.9041,-7.9251,-7.9492,-7.9904,-8.0107,-8.0309,-8.061,-8.0906,-8.12,-8.1646,-8.2616,-8.3599,-8.4137,-8.4564,-8.4789,-8.5393,-8.5706,-8.5942,-8.632,-8.6819,-8.693,-8.673,-8.6152,-8.6067,-8.4891,-8.4508,-8.4654,-8.4904,-8.5168,-8.5067,-8.4494,-8.3621,-8.2504,-8.1778,-8.1051,-8.0703,-8.0726,-8.0452,-7.9773,-7.9253,-7.8479,-7.755,-7.6657,-7.6034,-7.5947,-7.5628,-7.5386,-7.5279,-7.4821,-7.4513,-7.4606,-7.4216,-7.4138,-7.3922,-7.3276,-7.2116,-7.0951,-6.9247,-6.7342,-6.553,-6.3687,-6.188,-6.0578,-6.0092,-5.9667,-5.8882,-5.7833,-5.702,-5.5964,-5.4679,-5.2849,-5.1393,-5.0028,-4.8763,-4.763,-4.7098,-4.6594,-4.6308,-4.5599,-4.4626,-4.384,-4.3064,-4.2437,-4.1759,-4.0492,-3.8898,-3.786,-3.6692,-3.5672,-3.4474,-3.3984,-3.372,-3.3337,-3.2659,-3.21,-3.1541,-3.1194,-3.0745,-3.0552,-3.0316,-3.0175,-3.0083,-2.9873,-2.9913,-2.99,-2.9887,-2.986,-2.9753,-2.9686,-2.9726,-2.9561,-2.9086,-2.8207,-7.9492,-7.9699,-7.9699,-7.9699,-7.9801,-8.0309,-8.051,-8.0576,-8.0808,-8.1137,-8.1593,-8.2024,-8.2649,-8.3166,-8.3891,-8.4177,-8.4046,-8.5144,-8.5598,-8.5982,-8.6392,-8.6958,-8.7025,-8.6534,-8.5818,-8.5823,-8.4947,-8.4581,-8.484,-8.5024,-8.5283,-8.5347,-8.4624,-8.3912,-8.312,-8.2338,-8.1948,-8.1555,-8.1351,-8.0842,-8.0201,-7.9524,-7.8518,-7.7524,-7.663,-7.5976,-7.6015,-7.5628,-7.5386,-7.5386,-7.4941,-7.5031,-7.5117,-7.4561,-7.4496,-7.4867,-7.3499,-7.24,-7.1261,-6.9248,-6.7264,-6.5679,-6.3919,-6.1896,-6.0659,-6.0377,-5.9743,-5.8305,-5.702,-5.5964,-5.4651,-5.3093,-5.1518,-5.0155,-4.9023,-4.8109,-4.7098,-4.6294,-4.5939,-4.5783,-4.5062,-4.3894,-4.3013,-4.2186,-4.1171,-4.0444,-3.9357,-3.7759,-3.694,-3.5867,-3.5254,-3.4343,-3.382,-3.3439,-3.3208,-3.2646,-3.1934,-3.1435,-3.1131,-3.0749,-3.0451,-3.0316,-3.0189,-3.0138,-2.9913,-2.9913,-2.9913,-2.99,-2.9887,-2.99,-2.9887,-2.9654,-2.9383,-2.8704,-2.7814,-7.9801,-8.0006,-8.0006,-8.0006,-7.9801,-8.041,-8.061,-8.0675,-8.1102,-8.1765,-8.2492,-8.2546,-8.2949,-8.3536,-8.3683,-8.3912,-8.4025,-8.5033,-8.5556,-8.606,-8.6608,-8.7163,-8.7119,-8.6808,-8.6296,-8.5898,-8.5077,-8.4553,-8.4741,-8.5024,-8.5437,-8.5357,-8.4688,-8.4339,-8.3704,-8.2835,-8.2339,-8.2164,-8.1811,-8.1337,-8.0474,-7.9602,-7.8557,-7.7537,-7.658,-7.6111,-7.5947,-7.5628,-7.5493,-7.5318,-7.5056,-7.5384,-7.5745,-7.4966,-7.5136,-7.5641,-7.385,-7.2449,-7.1339,-6.907,-6.6484,-6.4144,-6.2812,-6.1885,-6.0763,-6.0136,-5.9009,-5.7552,-5.5935,-5.4595,-5.3066,-5.1767,-5.0436,-4.9177,-4.8133,-4.7364,-4.6563,-4.5754,-4.5256,-4.5002,-4.411,-4.3107,-4.2022,-4.1122,-4.0125,-3.9144,-3.7921,-3.6692,-3.5983,-3.5355,-3.4768,-3.4129,-3.3619,-3.3171,-3.3088,-3.2434,-3.1722,-3.1312,-3.0913,-3.0737,-3.0377,-3.0281,-3.0164,-2.9918,-2.9913,-2.9913,-2.9913,-2.9913,-2.9913,-2.9913,-2.9694,-2.9462,-2.8986,-2.8487,-2.7599,-8.0006,-8.0209,-8.0209,-8.0107,-8.0006,-8.0376,-8.0675,-8.0808,-8.12,-8.1922,-8.288,-8.2639,-8.2949,-8.3536,-8.3929,-8.3858,-8.43,-8.5231,-8.5711,-8.6172,-8.6749,-8.7335,-8.7295,-8.687,-8.6266,-8.5918,-8.5225,-8.4656,-8.4833,-8.5018,-8.5551,-8.5599,-8.4931,-8.4437,-8.4085,-8.3092,-8.2265,-8.2227,-8.1802,-8.1636,-8.0824,-7.9447,-7.8696,-7.7679,-7.68,-7.6044,-7.5856,-7.5527,-7.5544,-7.5551,-7.5588,-7.5842,-7.6024,-7.6041,-7.5877,-7.537,-7.4293,-7.2413,-7.0991,-6.8658,-6.5914,-6.3989,-6.278,-6.1822,-6.0732,-5.9546,-5.8217,-5.6251,-5.4658,-5.3173,-5.1636,-5.0509,-4.9439,-4.8167,-4.7473,-4.6697,-4.589,-4.521,-4.4663,-4.4202,-4.323,-4.2268,-4.0848,-3.9771,-3.8742,-3.7951,-3.7252,-3.6216,-3.5282,-3.4768,-3.462,-3.4141,-3.3463,-3.3193,-3.2769,-3.204,-3.1556,-3.111,-3.0749,-3.051,-3.0288,-3.0203,-3.0097,-2.9985,-2.9913,-2.9913,-2.9913,-2.9913,-2.9913,-2.9913,-2.9628,-2.9126,-2.8717,-2.8042,-2.7384,-8.0209,-8.0209,-8.0209,-8.0209,-8.0175,-8.0442,-8.074,-8.1005,-8.1297,-8.1784,-8.236,-8.2465,-8.2775,-8.3256,-8.4053,-8.4157,-8.4336,-8.5598,-8.6263,-8.6209,-8.6921,-8.7431,-8.7211,-8.6747,-8.6266,-8.5768,-8.502,-8.4683,-8.5062,-8.5067,-8.5626,-8.5699,-8.4893,-8.4085,-8.4365,-8.2983,-8.2265,-8.2143,-8.1421,-8.1415,-8.0824,-7.9232,-7.8563,-7.7717,-7.6839,-7.6034,-7.6056,-7.5688,-7.5815,-7.6313,-7.6234,-7.6872,-7.8007,-7.74,-7.7212,-7.7267,-7.4903,-7.2777,-7.0807,-6.7796,-6.5736,-6.417,-6.2907,-6.1589,-6.0432,-5.8997,-5.7017,-5.4921,-5.3169,-5.1838,-5.0503,-4.9316,-4.8386,-4.7593,-4.7051,-4.6271,-4.546,-4.4663,-4.425,-4.3324,-4.238,-4.1441,-3.983,-3.8423,-3.7481,-3.6799,-3.6333,-3.5612,-3.4653,-3.4522,-3.4403,-3.3921,-3.3406,-3.2921,-3.2404,-3.1813,-3.1253,-3.0817,-3.0553,-3.0451,-3.0212,-3.0123,-3.0001,-2.9847,-2.9847,-2.978,-2.9833,-2.99,-2.986,-2.9793,-2.9224,-2.8739,-2.8168,-2.7573,-2.707,-8.0107,-8.051,-8.0309,-8.041,-8.0709,-8.0774,-8.0872,-8.1102,-8.1524,-8.2241,-8.2894,-8.2766,-8.311,-8.3751,-8.3983,-8.4152,-8.4265,-8.529,-8.5909,-8.6136,-8.7059,-8.7497,-8.7386,-8.6895,-8.6415,-8.5918,-8.5133,-8.4645,-8.5067,-8.511,-8.5315,-8.533,-8.4495,-8.3507,-8.3038,-8.2334,-8.2226,-8.226,-8.1859,-8.131,-8.0255,-7.9191,-7.8219,-7.7344,-7.6635,-7.637,-7.6625,-7.6335,-7.6577,-7.7226,-7.7187,-7.7944,-7.8887,-7.8352,-7.7741,-7.7228,-7.5141,-7.1637,-6.9233,-6.6717,-6.5319,-6.3837,-6.245,-6.0908,-5.9135,-5.7108,-5.5193,-5.3571,-5.1774,-5.0649,-4.985,-4.9085,-4.8231,-4.7509,-4.6941,-4.5978,-4.5165,-4.4366,-4.358,-4.2386,-4.1357,-4.0077,-3.8611,-3.7623,-3.6693,-3.6172,-3.5808,-3.545,-3.4637,-3.4423,-3.4484,-3.3651,-3.3135,-3.2647,-3.2221,-3.1646,-3.1224,-3.0898,-3.0524,-3.0335,-3.0267,-2.9988,-2.9907,-2.9646,-2.9646,-2.9633,-2.9713,-2.9766,-2.974,-2.9468,-2.8929,-2.8445,-2.77,-2.7221,-2.6672,-8.0107,-8.041,-8.041,-8.051,-8.0906,-8.0936,-8.1034,-8.1331,-8.2052,-8.2707,-8.3241,-8.3215,-8.3486,-8.3948,-8.4101,-8.3989,-8.4039,-8.5182,-8.5876,-8.6211,-8.7059,-8.7497,-8.7561,-8.7068,-8.6319,-8.5823,-8.517,-8.467,-8.4886,-8.511,-8.5113,-8.4713,-8.3943,-8.3137,-8.255,-8.2265,-8.2256,-8.217,-8.1772,-8.1271,-8.0294,-7.9328,-7.8374,-7.773,-7.7225,-7.691,-7.7347,-7.7467,-7.7487,-7.8026,-7.8409,-7.8747,-7.9153,-7.9058,-7.8029,-7.6812,-7.328,-6.9839,-6.7318,-6.4963,-6.3341,-6.1753,-6.1103,-5.9622,-5.7342,-5.5197,-5.3516,-5.1922,-5.0487,-4.995,-4.9492,-4.87,-4.7792,-4.7197,-4.6405,-4.546,-4.4481,-4.3675,-4.2581,-4.1414,-3.9891,-3.869,-3.7547,-3.7011,-3.623,-3.5757,-3.5242,-3.4849,-3.4507,-3.4536,-3.4215,-3.3484,-3.3044,-3.2586,-3.2113,-3.1342,-3.0949,-3.0825,-3.0666,-3.0377,-3.001,-2.9879,-2.9582,-2.9419,-2.9379,-2.9392,-2.9553,-2.9619,-2.9673,-2.9429,-2.8889,-2.8243,-2.7435,-2.6958,-2.6635,-8.0209,-8.0309,-8.0476,-8.061,-8.0675,-8.0966,-8.1421,-8.1948,-8.2855,-8.3126,-8.2956,-8.4105,-8.4106,-8.3787,-8.4278,-8.4278,-8.4242,-8.5261,-8.5801,-8.6283,-8.7059,-8.7497,-8.7376,-8.6696,-8.6185,-8.5504,-8.4835,-8.4501,-8.4685,-8.4739,-8.4658,-8.4311,-8.3587,-8.2845,-8.2363,-8.2264,-8.2276,-8.2131,-8.175,-8.1399,-8.0791,-7.9445,-7.8973,-7.8567,-7.8188,-7.7929,-7.8122,-7.8271,-7.8517,-7.8865,-7.9095,-7.951,-7.9768,-7.9865,-7.8116,-7.5051,-7.031,-6.7731,-6.5326,-6.3062,-6.1155,-5.9698,-5.8862,-5.7547,-5.5566,-5.3447,-5.1844,-5.0603,-4.9486,-4.9444,-4.916,-4.8158,-4.7172,-4.6461,-4.5731,-4.4778,-4.3675,-4.27,-4.1594,-4.0248,-3.8623,-3.7237,-3.623,-3.5659,-3.556,-3.507,-3.4701,-3.4441,-3.4064,-3.4279,-3.4024,-3.3271,-3.2861,-3.2707,-3.2005,-3.1145,-3.0934,-3.0782,-3.0553,-3.0405,-3.0024,-2.9542,-2.9421,-2.9232,-2.9112,-2.9138,-2.9325,-2.9513,-2.9508,-2.9211,-2.9053,-2.8243,-2.7624,-2.7234,-2.6758,-8.0309,-8.051,-8.061,-8.0774,-8.12,-8.1455,-8.2328,-8.3547,-8.3658,-8.3612,-8.3926,-8.4105,-8.4172,-8.3717,-8.4278,-8.4242,-8.4538,-8.5103,-8.584,-8.65,-8.7059,-8.76,-8.755,-8.6932,-8.6311,-8.5611,-8.4984,-8.4448,-8.4438,-8.4441,-8.4378,-8.4223,-8.3143,-8.2474,-8.2315,-8.2301,-8.2324,-8.2221,-8.1851,-8.1626,-8.126,-8.0076,-7.9717,-7.9221,-7.8795,-7.869,-7.9146,-7.9177,-7.9462,-8.004,-8.0011,-8.0313,-8.0915,-7.9743,-7.77,-7.3019,-6.9315,-6.6383,-6.3862,-6.1801,-5.971,-5.7342,-5.6023,-5.4474,-5.2888,-5.1695,-5.0368,-4.9636,-4.8786,-4.8634,-4.8595,-4.7865,-4.6921,-4.613,-4.521,-4.3952,-4.3001,-4.1799,-4.0699,-3.8867,-3.7203,-3.6279,-3.5227,-3.5018,-3.4885,-3.4448,-3.3985,-3.379,-3.3736,-3.3945,-3.3672,-3.2906,-3.2647,-3.2324,-3.1717,-3.0861,-3.0876,-3.0796,-3.0368,-3.0093,-2.9879,-2.9417,-2.9206,-2.9032,-2.8898,-2.8965,-2.9112,-2.9312,-2.9336,-2.9553,-2.9243,-2.8445,-2.7826,-2.7423,-2.6758,-8.0309,-8.041,-8.061,-8.1141,-8.206,-8.2414,-8.3484,-8.4693,-8.4507,-8.4327,-8.4212,-8.5011,-8.4811,-8.4145,-8.461,-8.4656,-8.4326,-8.5261,-8.5951,-8.6356,-8.7127,-8.7563,-8.7598,-8.7192,-8.6399,-8.5738,-8.5151,-8.455,-8.4306,-8.3905,-8.3746,-8.366,-8.2565,-8.2284,-8.2293,-8.2568,-8.2578,-8.2409,-8.2149,-8.1867,-8.1399,-8.0868,-8.0261,-7.9935,-7.9481,-7.9664,-8.0131,-8.0087,-8.0366,-8.0681,-8.0543,-8.0505,-8.0206,-7.8291,-7.5125,-7.0588,-6.7093,-6.4096,-6.1437,-5.9105,-5.7269,-5.5396,-5.3323,-5.2057,-5.1069,-4.9985,-4.9662,-4.9217,-4.8484,-4.7926,-4.7751,-4.7509,-4.676,-4.6001,-4.464,-4.328,-4.2223,-4.1027,-3.9473,-3.7652,-3.6406,-3.5546,-3.4968,-3.4674,-3.4424,-3.4233,-3.3904,-3.3708,-3.3619,-3.3683,-3.3302,-3.2524,-3.2221,-3.208,-3.1248,-3.0665,-3.0513,-3.0447,-3.0043,-2.9699,-2.9603,-2.9289,-2.8923,-2.8751,-2.8684,-2.8791,-2.8911,-2.9112,-2.9285,-2.9325,-2.9123,-2.825,-2.7874,-2.7612,-2.6896,-8.0209,-8.0209,-8.051,-8.1605,-8.3053,-8.33,-8.418,-8.555,-8.5355,-8.4846,-8.4435,-8.6132,-8.5974,-8.4799,-8.498,-8.49,-8.49,-8.5495,-8.5951,-8.6174,-8.7059,-8.7628,-8.7535,-8.7056,-8.625,-8.5567,-8.4944,-8.4342,-8.4012,-8.3678,-8.3354,-8.2997,-8.2431,-8.2155,-8.2287,-8.2996,-8.2956,-8.234,-8.2398,-8.2319,-8.1899,-8.1377,-8.097,-8.1187,-8.0782,-8.047,-8.0846,-8.092,-8.086,-8.0758,-8.0543,-8.0235,-7.8177,-7.5674,-7.1964,-6.8301,-6.4673,-6.1532,-5.8793,-5.6415,-5.4509,-5.2927,-5.1534,-5.0759,-4.9975,-4.9379,-4.9316,-4.9138,-4.8372,-4.7849,-4.7606,-4.7108,-4.6347,-4.5005,-4.3675,-4.2386,-4.111,-3.9785,-3.8063,-3.6558,-3.5744,-3.4863,-3.4299,-3.399,-3.3848,-3.376,-3.3643,-3.3515,-3.3439,-3.3437,-3.3042,-3.2281,-3.1993,-3.1638,-3.1189,-3.0665,-3.0346,-3.0126,-2.9662,-2.9308,-2.9212,-2.89,-2.8457,-2.8484,-2.8511,-2.8591,-2.8711,-2.8898,-2.9032,-2.8937,-2.871,-2.8191,-2.7695,-2.7635,-2.6785,-8.0209,-8.0209,-8.0709,-8.1593,-8.2639,-8.2766,-8.3291,-8.4124,-8.5209,-8.5415,-8.5347,-8.567,-8.565,-8.5087,-8.5375,-8.5297,-8.5016,-8.5685,-8.61,-8.6465,-8.7059,-8.7452,-8.7497,-8.6685,-8.599,-8.5366,-8.4685,-8.3951,-8.3785,-8.3556,-8.321,-8.2921,-8.2387,-8.2116,-8.2266,-8.3074,-8.3105,-8.2343,-8.2764,-8.2651,-8.2114,-8.1909,-8.1703,-8.162,-8.1213,-8.0961,-8.1107,-8.0926,-8.0758,-8.058,-8.0157,-7.8756,-7.6396,-7.3236,-6.9742,-6.5917,-6.2353,-5.9259,-5.6436,-5.4223,-5.2491,-5.1183,-5.0247,-5.0019,-4.9739,-4.9365,-4.909,-4.8774,-4.824,-4.775,-4.7092,-4.6351,-4.5531,-4.3947,-4.2559,-4.1191,-3.9825,-3.8212,-3.6594,-3.578,-3.5082,-3.4502,-3.3754,-3.3346,-3.3188,-3.3142,-3.3171,-3.3082,-3.3138,-3.3187,-3.289,-3.2418,-3.1673,-3.1366,-3.0782,-3.0499,-3.0179,-2.9915,-2.9578,-2.9157,-2.8851,-2.8568,-2.831,-2.8337,-2.8364,-2.8444,-2.8524,-2.8631,-2.8751,-2.8658,-2.8286,-2.7771,-2.7241,-2.6983,-2.613,-8.0209,-8.0276,-8.0872,-8.1612,-8.2453,-8.2816,-8.3262,-8.3975,-8.492,-8.5427,-8.558,-8.588,-8.5778,-8.5254,-8.5648,-8.5644,-8.529,-8.5987,-8.6246,-8.6501,-8.6953,-8.7099,-8.6841,-8.6425,-8.5767,-8.5126,-8.4154,-8.3531,-8.3519,-8.3116,-8.2741,-8.2456,-8.2092,-8.2151,-8.232,-8.2988,-8.312,-8.2343,-8.3081,-8.2945,-8.2304,-8.2073,-8.1934,-8.1774,-8.1575,-8.1311,-8.1069,-8.0855,-8.0614,-8.0043,-7.9411,-7.7365,-7.4833,-7.1756,-6.807,-6.4186,-6.0515,-5.7166,-5.4584,-5.2512,-5.1007,-4.9943,-4.9415,-4.9328,-4.8712,-4.8434,-4.8978,-4.8698,-4.6957,-4.6233,-4.5344,-4.464,-4.3397,-4.2052,-4.0535,-3.9129,-3.7944,-3.6586,-3.5691,-3.5457,-3.4689,-3.416,-3.3619,-3.3145,-3.3006,-3.3033,-3.3035,-3.305,-3.3043,-3.3077,-3.2736,-3.2312,-3.1702,-3.1292,-3.0905,-3.0499,-3.0165,-2.9747,-2.9326,-2.8919,-2.8487,-2.8318,-2.8163,-2.8217,-2.8257,-2.8297,-2.8377,-2.8444,-2.843,-2.847,-2.7932,-2.7354,-2.6866,-2.6548,-2.5934,-8.0309,-8.041,-8.1034,-8.1767,-8.2509,-8.3227,-8.3783,-8.4278,-8.4773,-8.5096,-8.5362,-8.6294,-8.6227,-8.5865,-8.5761,-8.5793,-8.5906,-8.6246,-8.6393,-8.6538,-8.7132,-8.7025,-8.6767,-8.6462,-8.5707,-8.485,-8.3903,-8.3316,-8.3026,-8.2649,-8.2289,-8.1794,-8.189,-8.2133,-8.2432,-8.289,-8.3101,-8.2692,-8.2848,-8.2914,-8.2534,-8.2171,-8.2013,-8.1826,-8.1639,-8.1387,-8.106,-8.0783,-8.0467,-7.9387,-7.8185,-7.5823,-7.3048,-6.998,-6.6289,-6.2396,-5.8675,-5.5613,-5.3252,-5.1238,-4.9939,-4.9139,-4.8972,-4.8506,-4.7907,-4.7863,-4.8518,-4.7545,-4.5849,-4.4819,-4.3937,-4.2966,-4.1749,-4.0351,-3.8905,-3.7497,-3.6253,-3.5308,-3.4977,-3.4946,-3.4298,-3.3753,-3.3399,-3.2926,-3.2786,-3.2951,-3.3084,-3.3098,-3.317,-3.3109,-3.2995,-3.2449,-3.1736,-3.1298,-3.0832,-3.0317,-2.9998,-2.9509,-2.9061,-2.8683,-2.8305,-2.8305,-2.815,-2.815,-2.819,-2.823,-2.8217,-2.8243,-2.8203,-2.8217,-2.7552,-2.7068,-2.6714,-2.6386,-2.5836,-8.051,-8.0906,-8.1131,-8.1861,-8.2691,-8.3314,-8.3783,-8.4361,-8.49,-8.5139,-8.5369,-8.5716,-8.5945,-8.5797,-8.5951,-8.5948,-8.5833,-8.6211,-8.6283,-8.632,-8.6801,-8.6767,-8.6323,-8.5887,-8.5521,-8.4707,-8.3923,-8.351,-8.2798,-8.2413,-8.2108,-8.173,-8.1913,-8.2162,-8.2419,-8.2878,-8.3203,-8.2761,-8.2761,-8.2935,-8.2397,-8.2094,-8.1987,-8.1792,-8.1596,-8.1219,-8.0837,-8.0573,-8.0002,-7.8827,-7.6958,-7.4332,-7.1444,-6.8215,-6.4511,-6.0951,-5.7102,-5.4553,-5.2211,-5.0558,-4.9409,-4.9284,-4.8968,-4.8159,-4.7518,-4.6729,-4.6808,-4.5754,-4.4414,-4.3863,-4.2926,-4.2025,-4.0802,-3.9248,-3.7724,-3.657,-3.5521,-3.5023,-3.4672,-3.4384,-3.3992,-3.3534,-3.3297,-3.2972,-3.2822,-3.2895,-3.2936,-3.3079,-3.3556,-3.325,-3.3057,-3.2434,-3.1813,-3.1086,-3.0499,-3.015,-2.9663,-2.9146,-2.8642,-2.8473,-2.8305,-2.8305,-2.815,-2.815,-2.815,-2.8163,-2.815,-2.815,-2.815,-2.8177,-2.7317,-2.6808,-2.6626,-2.6286,-2.5604]}]]